[[{"header":{"parameterUnit":"m.s-1","parameterCategory":1,"la1":31.0,"la2":29.5877,"lo1":-88.7671,"lo2":-86.6584,"dy":0.0162,"dx":0.0185,"nx":115,"ny":88,"refTime":"2023-08-21T18:00:00:Z","depth":0,"parameterNumber":2,"parameterNumberName":"U-component_of_WINDS"},"data":[0.0,0.0,0.0,0.0,0.0,0.0,0.0,0.0,0.0,0.0,0.0,0.0,0.0,0.0,0.0,0.0,0.0,0.0,0.0,0.0,0.0,0.0,0.0,0.0,0.0,0.0,0.0,0.0,0.0,0.0,0.0,0.0,0.0,0.0,0.0,0.0,0.0,0.0,0.0,0.0,0.0,0.0,0.0,0.0,0.0,0.0,0.0,0.0,0.0,0.0,0.0,0.0,0.0,0.0,0.0,0.0,0.0,0.0,0.0,0.0,0.0,0.0,0.0,0.0,0.0,0.0,0.0,0.0,0.0,0.0,0.0,0.0,0.0,0.0,0.0,0.0,0.0,0.0,0.0,0.0,0.0,0.0,0.0,0.0,0.0,0.0,0.0,0.0,0.0,0.0,0.0,0.0,0.0,0.0,0.0,0.0,0.0,0.0,0.0,0.0,0.0,0.0,0.0,0.0,0.0,0.0,0.0,0.0,0.0,0.0,0.0,0.0,0.0,0.0,0.0,0.0,0.0,0.0,0.0,0.0,0.0,0.0,0.0,0.0,0.0,0.0,0.0,0.0,0.0,0.0,0.0,0.0,0.0,0.0,0.0,0.0,0.0,0.0,0.0,0.0,0.0,0.0,0.0,0.0,0.0,0.0,0.0,0.0,0.0,0.0,0.0,0.0,0.0,0.0,0.0,0.0,0.0,0.0,0.0,0.0,0.0,0.0,0.0,0.0,0.0,0.0,0.0,0.0,0.0,0.0,0.0,0.0,0.0,0.0,0.0,0.0,0.0,0.0,0.0,0.0,0.0,0.0,0.0,0.0,0.0,0.0,0.0,0.0,0.0,0.0,0.0,0.0,0.0,0.0,0.0,0.0,0.0,0.0,0.0,0.0,0.0,0.0,0.0,0.0,0.0,0.0,0.0,0.0,0.0,0.0,0.0,0.0,0.0,0.0,0.0,0.0,0.0,0.0,0.0,0.0,0.0,0.0,0.0,0.0,0.0,0.0,0.0,0.0,0.0,0.0,0.0,0.0,0.0,0.0,0.0,0.0,0.0,0.0,0.0,0.0,0.0,0.0,0.0,0.0,0.0,0.0,0.0,0.0,0.0,0.0,0.0,0.0,0.0,0.0,0.0,0.0,0.0,0.0,0.0,0.0,0.0,0.0,0.0,0.0,0.0,0.0,0.0,0.0,0.0,0.0,0.0,0.0,0.0,0.0,0.0,0.0,0.0,0.0,0.0,0.0,0.0,0.0,0.0,0.0,0.0,0.0,0.0,0.0,0.0,0.0,0.0,0.0,0.0,0.0,0.0,0.0,0.0,0.0,0.0,0.0,0.0,0.0,0.0,0.0,0.0,0.0,0.0,0.0,0.0,0.0,0.0,0.0,0.0,0.0,0.0,0.0,0.0,0.0,0.0,0.0,0.0,0.0,0.0,0.0,0.0,0.0,0.0,0.0,0.0,0.0,0.0,0.0,0.0,0.0,0.0,0.0,0.0,0.0,0.0,0.0,0.0,0.0,0.0,0.0,0.0,0.0,0.0,0.0,0.0,0.0,0.0,0.0,0.0,0.0,0.0,0.0,0.0,0.0,0.0,0.0,0.0,0.0,0.0,0.0,0.0,0.0,0.0,0.0,0.0,0.0,0.0,0.0,0.0,0.0,0.0,0.0,0.0,0.0,0.0,0.0,0.0,0.0,0.0,0.0,0.0,0.0,0.0,0.0,0.0,0.0,0.0,0.0,0.0,0.0,0.0,0.0,0.0,0.0,0.0,0.0,0.0,0.0,0.0,0.0,0.0,0.0,0.0,0.0,0.0,0.0,0.0,0.0,0.0,0.0,0.0,0.0,0.0,0.0,0.0,0.0,0.0,0.0,0.0,0.0,0.0,0.0,0.0,0.0,0.0,0.0,0.0,0.0,0.0,0.0,0.0,0.0,0.0,0.0,0.0,0.0,0.0,0.0,0.0,0.0,0.0,0.0,0.0,0.0,0.0,0.0,0.0,0.0,0.0,0.0,0.0,0.0,0.0,0.0,0.0,0.0,0.0,0.0,0.0,0.0,0.0,0.0,0.0,0.0,0.0,0.0,0.0,0.0,0.0,0.0,0.0,0.0,0.0,0.0,0.0,0.0,0.0,0.0,0.0,0.0,0.0,0.0,0.0,0.0,0.0,0.0,0.0,0.0,0.0,0.0,0.0,0.0,0.0,0.0,0.0,0.0,0.0,0.0,0.0,0.0,0.0,0.0,0.0,0.0,0.0,0.0,0.0,0.0,0.0,0.0,0.0,0.0,0.0,0.0,0.0,0.0,0.0,0.0,0.0,0.0,0.0,0.0,0.0,0.0,0.0,0.0,0.0,0.0,0.0,0.0,0.0,0.0,0.0,0.0,0.0,0.0,0.0,0.0,0.0,0.0,0.0,0.0,0.0,0.0,0.0,0.0,0.0,0.0,0.0,0.0,0.0,0.0,0.0,0.0,0.0,0.0,0.0,0.0,0.0,0.0,0.0,0.0,0.0,0.0,0.0,0.0,0.0,0.0,0.0,0.0,0.0,0.0,0.0,0.0,0.0,0.0,0.0,0.0,0.0,0.0,0.0,0.0,0.0,0.0,0.0,0.0,0.0,0.0,0.0,0.0,0.0,0.0,0.0,0.0,0.0,0.0,0.0,0.0,0.0,0.0,0.0,0.0,0.0,0.0,0.0,0.0,0.0,0.0,0.0,0.0,0.0,0.0,0.0,0.0,0.0,0.0,0.0,0.0,0.0,0.0,0.0,0.0,0.0,0.0,0.0,0.0,0.0,0.0,0.0,0.0,0.0,0.0,0.0,0.0,0.0,0.0,0.0,0.0,0.0,0.0,0.0,0.0,0.0,0.0,0.0,0.0,0.0,0.0,0.0,0.0,0.0,0.0,0.0,0.0,0.0,0.0,0.0,0.0,0.0,0.0,0.0,0.0,0.0,0.0,0.0,0.0,0.0,0.0,0.0,0.0,0.0,0.0,0.0,0.0,0.0,0.0,0.0,0.0,0.0,0.0,0.0,0.0,0.0,0.0,0.0,0.0,0.0,0.0,0.0,0.0,0.0,0.0,0.0,0.0,0.0,0.0,0.0,0.0,0.0,0.0,0.0,0.0,0.0,0.0,0.0,0.0,0.0,0.0,0.0,0.0,0.0,0.0,0.0,0.0,0.0,0.0,0.0,0.0,0.0,0.0,0.0,0.0,0.0,0.0,0.0,0.0,0.0,0.0,0.0,0.0,0.0,0.0,0.0,0.0,0.0,0.0,0.0,0.0,0.0,0.0,0.0,0.0,0.0,0.0,0.0,0.0,0.0,0.0,0.0,0.0,0.0,0.0,0.0,0.0,0.0,0.0,0.0,0.0,0.0,0.0,0.0,0.0,0.0,0.0,0.0,0.0,0.0,0.0,0.0,0.0,0.0,0.0,0.0,0.0,0.0,0.0,0.0,0.0,0.0,0.0,0.0,0.0,0.0,0.0,0.0,0.0,0.0,0.0,0.0,0.0,0.0,0.0,0.0,0.0,0.0,0.0,0.0,0.0,0.0,0.0,0.0,0.0,0.0,0.0,0.0,0.0,0.0,0.0,0.0,0.0,0.0,0.0,0.0,0.0,0.0,0.0,0.0,0.0,0.0,0.0,0.0,0.0,0.0,0.0,0.0,0.0,0.0,0.0,0.0,0.0,0.0,0.0,0.0,0.0,0.0,0.0,0.0,0.0,0.0,0.0,0.0,0.0,0.0,0.0,0.0,0.0,0.0,0.0,0.0,0.0,0.0,0.0,0.0,0.0,0.0,0.0,0.0,0.0,0.0,0.0,0.0,0.0,0.0,0.0,0.0,0.0,0.0,0.0,0.0,0.0,0.0,0.0,0.0,0.0,0.0,0.0,0.0,0.0,0.0,0.0,0.0,0.0,0.0,0.0,0.0,0.0,0.0,0.0,0.0,0.0,0.0,0.0,0.0,0.0,0.0,0.0,0.0,0.0,0.0,0.0,0.0,0.0,0.0,0.0,0.0,0.0,0.0,0.0,0.0,0.0,0.0,0.0,0.0,0.0,0.0,0.0,0.0,0.0,0.0,0.0,0.0,0.0,0.0,0.0,0.0,0.0,0.0,0.0,0.0,0.0,0.0,0.0,0.0,0.0,0.0,0.0,0.0,0.0,0.0,0.0,0.0,0.0,0.0,0.0,0.0,0.0,0.0,0.0,0.0,0.0,0.0,0.0,0.0,0.0,0.0,0.0,0.0,0.0,0.0,0.0,0.0,0.0,1.7649,0.0,0.0,0.0,0.0,0.0,0.0,0.0,0.0,0.0,0.0,0.0,0.0,0.0,0.0,0.0,0.0,0.0,0.0,0.0,0.0,0.0,0.0,0.0,0.0,0.0,0.0,0.0,0.0,0.0,0.0,0.0,0.0,0.0,0.0,0.0,0.0,0.0,0.0,0.0,0.0,0.0,0.0,0.0,0.0,0.0,0.0,0.0,0.0,0.0,0.0,0.0,0.0,0.0,0.0,0.0,0.0,0.0,0.0,0.0,0.0,0.0,0.0,0.0,0.0,0.0,0.0,0.0,0.0,0.0,0.0,0.0,0.0,0.0,0.0,0.0,0.0,0.0,0.0,0.0,0.0,0.0,0.0,0.0,0.0,0.0,0.0,0.0,0.0,0.0,0.0,0.0,0.0,0.0,0.0,0.0,0.0,0.0,0.0,0.0,0.0,0.0,0.0,0.0,0.0,0.0,0.0,0.0,0.0,0.0,0.0,2.051,2.05,1.9704,1.891,1.8016,0.0,0.0,0.0,0.0,0.0,0.0,0.0,0.0,0.0,0.0,0.0,0.0,0.0,0.0,0.0,0.0,0.0,0.0,0.0,0.0,0.0,0.0,0.0,0.0,0.0,0.0,0.0,0.0,0.0,0.0,0.0,0.0,0.0,0.0,0.0,0.0,0.0,0.0,0.0,0.0,0.0,0.0,0.0,0.0,0.0,0.0,0.0,0.0,0.0,0.0,0.0,0.0,0.0,0.0,0.0,0.0,0.0,0.0,0.0,0.0,0.0,0.0,0.0,0.0,0.0,0.0,0.0,0.0,0.0,0.0,0.0,0.0,0.0,0.0,0.0,0.0,0.0,0.0,0.0,0.0,0.0,0.0,0.0,0.0,0.0,0.0,0.0,0.0,0.0,0.0,0.0,0.0,0.0,0.0,0.0,0.0,0.0,0.0,0.0,0.0,0.0,0.0,0.0,0.0,0.0,0.0,0.0,0.0,0.0,0.0,0.0,0.0,1.9899,1.9063,1.8013,0.0,0.0,0.0,0.0,0.0,0.0,0.0,0.0,0.0,0.0,0.0,0.0,0.0,0.0,0.0,0.0,0.0,0.0,0.0,0.0,0.0,0.0,0.0,0.0,0.0,0.0,0.0,0.0,0.0,0.0,0.0,0.0,0.0,0.0,0.0,0.0,0.0,0.0,0.0,0.0,0.0,0.0,0.0,0.0,0.0,0.0,0.0,0.0,0.0,0.0,0.0,0.0,0.0,0.0,0.0,0.0,0.0,0.0,0.0,0.0,0.0,0.0,0.0,0.0,0.0,0.0,0.0,0.0,0.0,0.0,0.0,0.0,0.0,0.0,0.0,0.0,0.0,0.0,0.0,0.0,0.0,0.0,0.0,0.0,0.0,0.0,0.0,0.0,0.0,0.0,0.0,0.0,0.0,0.0,0.0,0.0,0.0,0.0,0.0,0.0,0.0,0.0,0.0,0.0,0.0,0.0,0.0,0.0,0.0,0.0,2.0515,2.0506,2.0416,0.0,1.8091,0.0,0.0,0.0,0.0,0.0,0.0,0.0,0.0,0.0,0.0,0.0,0.0,0.0,0.0,0.0,0.0,0.0,0.0,0.0,0.0,0.0,0.0,0.0,0.0,0.0,0.0,0.0,0.0,0.0,0.0,0.0,0.0,0.0,0.0,0.0,0.0,0.0,0.0,0.0,0.0,0.0,0.0,0.0,0.0,0.0,0.0,0.0,0.0,0.0,0.0,0.0,0.0,0.0,0.0,0.0,0.0,0.0,0.0,0.0,0.0,0.0,0.0,0.0,0.0,0.0,0.0,0.0,0.0,0.0,0.0,0.0,0.0,0.0,0.0,0.0,0.0,0.0,0.0,0.0,0.0,0.0,0.0,0.0,0.0,0.0,0.0,0.0,0.0,0.0,0.0,0.0,0.0,0.0,0.0,0.0,0.0,0.0,0.0,0.0,0.0,0.0,0.0,0.0,0.0,0.0,0.0,0.0,0.0,0.0,0.0,2.0508,2.0506,2.0007,1.9411,0.0,0.0,0.0,0.0,0.0,0.0,0.0,0.0,0.0,0.0,0.0,0.0,0.0,0.0,0.0,0.0,0.0,0.0,0.0,0.0,0.0,0.0,0.0,0.0,0.0,0.0,0.0,0.0,0.0,0.0,0.0,0.0,0.0,0.0,0.0,0.0,0.0,0.0,0.0,0.0,0.0,0.0,0.0,0.0,0.0,0.0,0.0,0.0,0.0,0.0,0.0,0.0,0.0,0.0,0.0,0.0,0.0,0.0,0.0,0.0,0.0,0.0,0.0,0.0,0.0,0.0,0.0,0.0,0.0,0.0,0.0,0.0,0.0,0.0,0.0,0.0,0.0,0.0,0.0,0.0,0.0,0.0,0.0,0.0,0.0,0.0,0.0,0.0,0.0,0.0,0.0,0.0,0.0,0.0,0.0,0.0,0.0,0.0,0.0,0.0,0.0,0.0,0.0,0.0,0.0,0.0,0.0,0.0,0.0,0.0,2.0497,2.0515,2.048,1.9887,1.9464,1.9272,0.0,0.0,0.0,0.0,0.0,0.0,0.0,0.0,0.0,0.0,0.0,0.0,0.0,0.0,0.0,0.0,0.0,0.0,0.0,0.0,0.0,0.0,0.0,0.0,0.0,0.0,0.0,0.0,0.0,0.0,0.0,0.0,0.0,0.0,0.0,0.0,0.0,0.0,0.0,0.0,0.0,0.0,0.0,0.0,0.0,0.0,0.0,0.0,0.0,0.0,0.0,0.0,0.0,0.0,0.0,0.0,0.0,0.0,0.0,0.0,0.0,0.0,0.0,0.0,0.0,0.0,0.0,0.0,0.0,0.0,0.0,0.0,0.0,0.0,0.0,0.0,0.0,0.0,0.0,0.0,0.0,0.0,0.0,0.0,0.0,0.0,0.0,0.0,0.0,0.0,0.0,0.0,0.0,0.0,0.0,0.0,0.0,0.0,0.0,0.0,0.0,0.0,0.0,0.0,0.0,0.0,0.0,0.0,2.0381,2.0464,2.0502,2.0508,2.046,2.0059,0.0,0.0,0.0,0.0,0.0,0.0,0.0,0.0,0.0,0.0,0.0,0.0,0.0,0.0,0.0,0.0,0.0,0.0,0.0,0.0,0.0,0.0,0.0,0.0,0.0,0.0,0.0,0.0,0.0,0.0,0.0,0.0,0.0,0.0,0.0,0.0,0.0,0.0,0.0,0.0,0.0,0.0,0.0,0.0,0.0,0.0,0.0,0.0,0.0,0.0,0.0,0.0,0.0,0.0,0.0,0.0,0.0,0.0,0.0,0.0,0.0,0.0,0.0,0.0,0.0,0.0,0.0,0.0,0.0,0.0,0.0,0.0,0.0,0.0,0.0,0.0,0.0,0.0,0.0,0.0,0.0,0.0,0.0,0.0,0.0,0.0,0.0,0.0,0.0,0.0,0.0,0.0,0.0,0.0,0.0,0.0,0.0,0.0,0.0,0.0,0.0,0.0,0.0,0.0,0.0,0.0,0.0,0.0,0.0,2.0385,2.0449,2.0506,2.0515,2.0508,2.034,0.0,0.0,0.0,0.0,0.0,0.0,0.0,0.0,0.0,0.0,0.0,0.0,0.0,0.0,0.0,0.0,0.0,0.0,0.0,0.0,0.0,0.0,0.0,0.0,0.0,0.0,0.0,0.0,0.0,0.0,0.0,0.0,0.0,0.0,0.0,0.0,0.0,0.0,0.0,0.0,0.0,0.0,0.0,0.0,0.0,0.0,0.0,0.0,0.0,0.0,0.0,0.0,0.0,0.0,0.0,0.0,0.0,0.0,0.0,0.0,0.0,0.0,0.0,0.0,0.0,0.0,0.0,0.0,0.0,0.0,0.0,0.0,0.0,0.0,0.0,0.0,0.0,0.0,0.0,0.0,0.0,0.0,0.0,0.0,0.0,0.0,0.0,0.0,0.0,0.0,0.0,0.0,0.0,0.0,0.0,0.0,0.0,0.0,0.0,0.0,0.0,0.0,0.0,0.0,0.0,0.0,0.0,0.0,0.0,2.0408,0.0,2.0478,2.0478,2.0476,2.0504,0.0,0.0,0.0,0.0,0.0,0.0,0.0,0.0,0.0,0.0,0.0,0.0,0.0,0.0,0.0,0.0,0.0,0.0,0.0,0.0,0.0,0.0,0.0,0.0,0.0,0.0,0.0,0.0,0.0,0.0,0.0,0.0,0.0,0.0,0.0,0.0,0.0,0.0,0.0,0.0,0.0,0.0,0.0,0.0,0.0,0.0,0.0,0.0,0.0,0.0,0.0,0.0,0.0,0.0,0.0,0.0,0.0,0.0,0.0,0.0,0.0,0.0,0.0,0.0,0.0,0.0,0.0,0.0,0.0,0.0,0.0,0.0,0.0,0.0,0.0,0.0,0.0,0.0,0.0,0.0,0.0,0.0,0.0,0.0,0.0,0.0,0.0,0.0,0.0,0.0,0.0,0.0,0.0,0.0,0.0,0.0,0.0,0.0,0.0,0.0,0.0,0.0,0.0,0.0,0.0,0.0,0.0,0.0,2.036,2.039,2.0399,2.042,2.042,2.0458,2.0506,0.0,0.0,0.0,0.0,0.0,0.0,0.0,0.0,0.0,0.0,0.0,0.0,0.0,0.0,0.0,0.0,0.0,0.0,0.0,0.0,0.0,0.0,0.0,0.0,0.0,0.0,0.0,0.0,0.0,0.0,0.0,0.0,0.0,0.0,0.0,0.0,0.0,0.0,0.0,0.0,0.0,0.0,0.0,0.0,0.0,0.0,0.0,0.0,0.0,0.0,0.0,0.0,0.0,0.0,0.0,0.0,0.0,0.0,0.0,0.0,0.0,0.0,0.0,0.0,0.0,0.0,0.0,0.0,0.0,0.0,0.0,0.0,0.0,0.0,0.0,0.0,0.0,0.0,0.0,0.0,0.0,0.0,0.0,0.0,0.0,0.0,0.0,0.0,0.0,0.0,0.0,0.0,0.0,0.0,0.0,0.0,0.0,0.0,0.0,0.0,0.0,0.0,0.0,0.0,0.0,0.0,0.0,0.0,0.0,2.0408,2.0385,2.0425,2.0478,2.0478,2.0502,0.0,0.0,0.0,0.0,0.0,0.0,0.0,0.0,0.0,0.0,0.0,0.0,0.0,0.0,0.0,0.0,0.0,0.0,0.0,0.0,0.0,0.0,0.0,0.0,0.0,0.0,0.0,0.0,0.0,0.0,0.0,0.0,0.0,0.0,0.0,0.0,0.0,0.0,0.0,0.0,0.0,0.0,0.0,0.0,0.0,0.0,0.0,0.0,0.0,0.0,0.0,0.0,0.0,0.0,0.0,0.0,0.0,0.0,0.0,0.0,0.0,0.0,0.0,0.0,0.0,0.0,0.0,0.0,0.0,0.0,0.0,0.0,0.0,0.0,0.0,0.0,0.0,0.0,0.0,0.0,0.0,0.0,0.0,0.0,0.0,0.0,0.0,0.0,0.0,0.0,0.0,0.0,0.0,0.0,0.0,0.0,0.0,0.0,0.0,0.0,0.0,0.0,0.0,0.0,0.0,0.0,0.0,0.0,0.0,2.1332,2.1369,2.139,2.1405,2.1114,2.0968,2.0986,0.0,0.0,0.0,0.0,0.0,0.0,0.0,0.0,0.0,0.0,0.0,0.0,0.0,0.0,0.0,0.0,0.0,0.0,0.0,0.0,0.0,0.0,0.0,0.0,0.0,0.0,0.0,0.0,0.0,0.0,0.0,0.0,0.0,0.0,0.0,0.0,0.0,0.0,0.0,0.0,0.0,0.0,0.0,0.0,0.0,0.0,0.0,0.0,0.0,0.0,0.0,0.0,0.0,0.0,0.0,0.0,0.0,0.0,0.0,0.0,0.0,0.0,0.0,0.0,0.0,0.0,0.0,0.0,0.0,0.0,0.0,0.0,0.0,0.0,0.0,0.0,0.0,0.0,0.0,0.0,0.0,0.0,0.0,0.0,0.0,0.0,0.0,0.0,0.0,0.0,0.0,0.0,0.0,0.0,0.0,0.0,0.0,0.0,0.0,0.0,0.0,0.0,0.0,0.0,0.0,0.0,0.0,0.0,2.294,2.3082,2.3075,2.2957,2.2172,2.1779,0.0,0.0,0.0,0.0,0.0,0.0,0.0,0.0,0.0,0.0,0.0,0.0,0.0,0.0,0.0,0.0,0.0,0.0,0.0,0.0,0.0,0.0,0.0,0.0,0.0,0.0,0.0,0.0,0.0,0.0,0.0,0.0,0.0,0.0,0.0,0.0,0.0,0.0,0.0,0.0,0.0,0.0,0.0,0.0,0.0,0.0,0.0,0.0,0.0,0.0,0.0,0.0,0.0,0.0,0.0,0.0,0.0,0.0,0.0,0.0,0.0,0.0,0.0,0.0,0.0,0.0,0.0,0.0,0.0,0.0,0.0,0.0,0.0,0.0,0.0,0.0,0.0,0.0,0.0,0.0,0.0,0.0,0.0,0.0,0.0,0.0,0.0,0.0,0.0,0.0,0.0,0.0,0.0,0.0,0.0,0.0,0.0,0.0,0.0,0.0,0.0,0.0,0.0,0.0,0.0,0.0,0.0,0.0,0.0,2.3771,2.4486,2.4258,2.304,2.2768,2.2366,0.0,0.0,0.0,0.0,0.0,0.0,0.0,0.0,0.0,0.0,0.0,0.0,0.0,0.0,0.0,0.0,0.0,0.0,0.0,0.0,0.0,0.0,0.0,0.0,0.0,0.0,0.0,0.0,0.0,0.0,0.0,0.0,0.0,0.0,0.0,0.0,0.0,0.0,0.0,0.0,0.0,0.0,0.0,0.0,0.0,0.0,0.0,0.0,0.0,0.0,0.0,0.0,0.0,0.0,0.0,0.0,0.0,0.0,0.0,0.0,0.0,0.0,0.0,0.0,0.0,0.0,0.0,0.0,0.0,0.0,0.0,0.0,0.0,0.0,0.0,0.0,0.0,0.0,0.0,0.0,0.0,0.0,0.0,0.0,0.0,0.0,0.0,0.0,0.0,0.0,0.0,0.0,0.0,0.0,0.0,0.0,0.0,0.0,0.0,0.0,0.0,0.0,0.0,0.0,0.0,0.0,0.0,0.0,2.3379,2.4615,2.5172,2.5,2.4025,2.3702,2.3137,0.0,0.0,0.0,0.0,0.0,0.0,0.0,0.0,0.0,0.0,0.0,0.0,0.0,0.0,0.0,0.0,0.0,0.0,0.0,0.0,0.0,0.0,0.0,0.0,0.0,0.0,0.0,0.0,0.0,0.0,0.0,0.0,0.0,0.0,0.0,0.0,0.0,0.0,0.0,0.0,0.0,0.0,0.0,0.0,0.0,0.0,0.0,0.0,0.0,0.0,0.0,0.0,0.0,0.0,0.0,0.0,0.0,0.0,0.0,0.0,0.0,0.0,0.0,0.0,0.0,0.0,0.0,0.0,0.0,0.0,0.0,0.0,0.0,0.0,0.0,0.0,0.0,0.0,0.0,0.0,0.0,0.0,0.0,0.0,0.0,0.0,0.0,0.0,0.0,0.0,0.0,0.0,0.0,0.0,0.0,0.0,0.0,0.0,0.0,0.0,0.0,0.0,0.0,0.0,0.0,0.0,0.0,0.0,2.365,2.535,2.5379,2.5388,2.5374,2.4754,2.3973,0.0,0.0,0.0,0.0,0.0,0.0,0.0,0.0,0.0,0.0,0.0,0.0,0.0,0.0,0.0,0.0,0.0,0.0,0.0,0.0,0.0,0.0,0.0,0.0,0.0,0.0,0.0,0.0,0.0,0.0,0.0,0.0,0.0,0.0,0.0,0.0,0.0,0.0,0.0,0.0,0.0,0.0,0.0,0.0,0.0,0.0,0.0,0.0,0.0,0.0,0.0,0.0,0.0,0.0,0.0,0.0,0.0,0.0,0.0,0.0,0.0,0.0,0.0,0.0,0.0,0.0,0.0,0.0,0.0,0.0,0.0,0.0,0.0,0.0,0.0,0.0,0.0,0.0,0.0,0.0,0.0,0.0,0.0,0.0,0.0,0.0,0.0,0.0,0.0,0.0,0.0,0.0,0.0,0.0,0.0,0.0,0.0,0.0,0.0,0.0,0.0,0.0,0.0,0.0,0.0,0.0,0.0,0.0,2.4173,2.5203,2.5292,2.5322,2.5332,2.5266,2.4501,0.0,0.0,0.0,0.0,0.0,0.0,0.0,0.0,0.0,0.0,0.0,0.0,0.0,0.0,0.0,0.0,0.0,0.0,0.0,0.0,0.0,0.0,0.0,0.0,0.0,0.0,0.0,0.0,0.0,0.0,0.0,0.0,0.0,0.0,0.0,0.0,0.0,0.0,0.0,0.0,0.0,0.0,0.0,0.0,0.0,0.0,0.0,0.0,2.0304,0.0,0.0,0.0,0.0,0.0,0.0,0.0,0.0,0.0,0.0,0.0,0.0,0.0,0.0,0.0,0.0,0.0,0.0,0.0,0.0,0.0,0.0,0.0,0.0,0.0,0.0,0.0,0.0,0.0,0.0,0.0,0.0,0.0,0.0,0.0,0.0,0.0,0.0,0.0,0.0,0.0,0.0,0.0,0.0,0.0,0.0,0.0,0.0,0.0,0.0,0.0,0.0,0.0,0.0,0.0,0.0,0.0,0.0,0.0,2.4243,2.5103,2.5228,2.5261,2.5252,2.5351,2.4808,0.0,0.0,0.0,0.0,0.0,0.0,0.0,0.0,0.0,0.0,0.0,0.0,0.0,0.0,0.0,0.0,0.0,0.0,0.0,0.0,0.0,0.0,0.0,0.0,0.0,0.0,0.0,0.0,0.0,0.0,0.0,0.0,0.0,0.0,0.0,0.0,0.0,0.0,0.0,0.0,0.0,0.0,0.0,0.0,0.0,0.0,0.0,0.0,0.0,0.0,0.0,0.0,0.0,0.0,0.0,0.0,0.0,0.0,0.0,0.0,0.0,0.0,0.0,0.0,0.0,0.0,0.0,0.0,0.0,0.0,0.0,0.0,0.0,0.0,0.0,0.0,0.0,0.0,0.0,0.0,0.0,0.0,0.0,0.0,0.0,0.0,0.0,0.0,0.0,0.0,0.0,0.0,0.0,0.0,0.0,0.0,0.0,0.0,0.0,0.0,0.0,0.0,0.0,0.0,0.0,0.0,0.0,2.3379,2.4265,2.5038,2.513,2.5164,2.5176,2.525,2.4966,2.4281,0.0,0.0,0.0,0.0,0.0,0.0,0.0,0.0,0.0,0.0,0.0,0.0,0.0,0.0,0.0,0.0,0.0,0.0,0.0,0.0,0.0,0.0,0.0,0.0,0.0,0.0,0.0,0.0,0.0,0.0,0.0,0.0,0.0,0.0,0.0,0.0,0.0,0.0,1.9888,1.993,0.0,0.0,0.0,0.0,0.0,0.0,0.0,0.0,2.0284,0.0,0.0,0.0,0.0,0.0,0.0,0.0,0.0,0.0,0.0,0.0,0.0,0.0,0.0,0.0,0.0,0.0,0.0,0.0,0.0,0.0,0.0,0.0,0.0,0.0,0.0,0.0,0.0,0.0,0.0,0.0,0.0,0.0,0.0,0.0,0.0,0.0,0.0,0.0,0.0,0.0,0.0,0.0,0.0,0.0,0.0,0.0,0.0,0.0,0.0,0.0,0.0,0.0,0.0,0.0,0.0,2.234,2.3842,2.4728,2.4926,2.4993,2.5044,2.505,2.516,2.5149,2.4971,0.0,0.0,0.0,0.0,0.0,0.0,0.0,0.0,0.0,0.0,0.0,0.0,0.0,0.0,0.0,0.0,0.0,0.0,0.0,0.0,0.0,0.0,0.0,0.0,0.0,0.0,0.0,0.0,0.0,0.0,0.0,0.0,0.0,0.0,0.0,0.0,0.0,0.0,0.0,1.983,2.0114,0.0,0.0,0.0,0.0,0.0,0.0,0.0,0.0,2.0327,0.0,0.0,0.0,0.0,0.0,0.0,0.0,0.0,0.0,0.0,0.0,0.0,0.0,0.0,0.0,0.0,0.0,0.0,0.0,0.0,0.0,0.0,0.0,0.0,0.0,0.0,0.0,0.0,0.0,0.0,0.0,0.0,0.0,0.0,0.0,0.0,0.0,0.0,0.0,0.0,0.0,0.0,0.0,0.0,0.0,0.0,0.0,0.0,0.0,0.0,0.0,0.0,0.0,0.0,0.0,2.2271,2.3855,2.4707,2.4798,2.4898,2.4953,2.4966,2.5032,2.5101,0.0,0.0,0.0,0.0,0.0,0.0,0.0,0.0,0.0,0.0,0.0,0.0,0.0,0.0,0.0,0.0,0.0,0.0,0.0,0.0,0.0,0.0,0.0,0.0,0.0,0.0,0.0,0.0,0.0,0.0,0.0,0.0,0.0,0.0,0.0,0.0,0.0,0.0,0.0,0.0,2.0483,2.0797,2.1702,0.0,0.0,0.0,0.0,0.0,0.0,2.1551,2.1606,0.0,0.0,0.0,0.0,0.0,0.0,0.0,0.0,0.0,0.0,0.0,0.0,0.0,0.0,0.0,0.0,0.0,0.0,0.0,0.0,0.0,0.0,0.0,0.0,0.0,0.0,0.0,0.0,0.0,0.0,0.0,0.0,0.0,0.0,0.0,0.0,0.0,0.0,0.0,0.0,0.0,0.0,0.0,0.0,0.0,0.0,0.0,0.0,0.0,0.0,0.0,0.0,0.0,0.0,0.0,2.2114,2.3694,2.458,2.4676,2.4783,2.4842,2.4856,2.4926,2.4966,0.0,0.0,0.0,0.0,0.0,0.0,0.0,0.0,0.0,0.0,0.0,0.0,0.0,0.0,0.0,0.0,0.0,0.0,0.0,0.0,0.0,0.0,0.0,0.0,0.0,0.0,0.0,0.0,0.0,0.0,0.0,0.0,0.0,0.0,0.0,0.0,0.0,0.0,0.0,0.0,0.0,2.167,2.252,2.2552,0.0,0.0,0.0,0.0,2.269,2.2766,0.0,0.0,0.0,0.0,0.0,0.0,0.0,0.0,0.0,0.0,0.0,0.0,0.0,0.0,0.0,0.0,0.0,0.0,0.0,0.0,0.0,0.0,0.0,0.0,0.0,0.0,0.0,0.0,0.0,0.0,0.0,0.0,0.0,0.0,0.0,0.0,0.0,0.0,0.0,0.0,0.0,0.0,0.0,0.0,0.0,0.0,0.0,0.0,0.0,0.0,0.0,0.0,0.0,0.0,0.0,0.0,2.199,2.3508,2.441,2.4528,2.4647,2.4729,2.4723,2.4798,2.4837,0.0,0.0,0.0,0.0,0.0,0.0,0.0,0.0,0.0,0.0,0.0,0.0,0.0,0.0,0.0,0.0,0.0,0.0,0.0,0.0,0.0,0.0,0.0,0.0,0.0,0.0,0.0,0.0,0.0,0.0,0.0,0.0,0.0,0.0,0.0,0.0,0.0,0.0,0.0,0.0,0.0,2.2472,2.3332,2.2848,2.2697,0.0,0.0,2.2618,2.2699,2.2767,0.0,0.0,0.0,0.0,0.0,0.0,0.0,0.0,0.0,0.0,0.0,0.0,0.0,0.0,0.0,0.0,0.0,0.0,0.0,0.0,0.0,0.0,0.0,0.0,0.0,0.0,0.0,0.0,0.0,0.0,0.0,0.0,0.0,0.0,0.0,0.0,0.0,0.0,0.0,0.0,0.0,0.0,0.0,0.0,0.0,0.0,0.0,0.0,0.0,0.0,0.0,0.0,0.0,0.0,0.0,2.2374,2.2519,2.364,2.4284,2.4446,2.4549,2.458,2.4559,2.4695,2.4757,0.0,0.0,0.0,0.0,0.0,0.0,0.0,0.0,0.0,0.0,0.0,0.0,0.0,0.0,0.0,0.0,0.0,0.0,0.0,0.0,0.0,0.0,0.0,0.0,0.0,0.0,0.0,0.0,0.0,0.0,0.0,0.0,0.0,0.0,0.0,0.0,0.0,0.0,0.0,0.0,0.0,0.0,2.4238,2.4071,0.0,0.0,0.0,2.4014,2.4049,0.0,0.0,0.0,0.0,0.0,0.0,0.0,0.0,0.0,0.0,0.0,0.0,0.0,0.0,0.0,0.0,0.0,0.0,0.0,0.0,0.0,0.0,0.0,0.0,0.0,0.0,0.0,0.0,0.0,0.0,0.0,0.0,0.0,0.0,0.0,0.0,0.0,0.0,0.0,0.0,0.0,0.0,0.0,0.0,0.0,0.0,0.0,0.0,0.0,0.0,0.0,0.0,0.0,0.0,0.0,0.0,0.0,2.2847,2.3674,2.4173,2.4358,2.441,2.4479,2.4513,2.4599,0.0,0.0,0.0,0.0,0.0,0.0,0.0,0.0,0.0,0.0,0.0,0.0,0.0,0.0,0.0,0.0,0.0,0.0,0.0,0.0,0.0,0.0,0.0,0.0,0.0,0.0,0.0,1.9731,0.0,0.0,0.0,0.0,0.0,0.0,0.0,0.0,0.0,0.0,0.0,0.0,0.0,0.0,2.4176,2.4818,2.4936,2.4977,0.0,0.0,2.5082,2.5088,2.5153,2.5241,0.0,0.0,0.0,0.0,0.0,0.0,0.0,0.0,0.0,0.0,0.0,0.0,0.0,0.0,0.0,0.0,0.0,0.0,0.0,0.0,0.0,0.0,0.0,0.0,0.0,0.0,0.0,0.0,0.0,0.0,0.0,0.0,0.0,0.0,0.0,0.0,0.0,0.0,0.0,0.0,0.0,0.0,0.0,0.0,0.0,0.0,0.0,0.0,0.0,0.0,0.0,0.0,0.0,0.0,0.0,2.2654,2.3476,2.4016,2.4227,2.4284,2.4375,2.45,2.4497,2.4547,0.0,0.0,0.0,0.0,0.0,0.0,0.0,0.0,0.0,0.0,0.0,0.0,0.0,0.0,0.0,0.0,0.0,0.0,0.0,0.0,0.0,0.0,0.0,0.0,0.0,0.0,0.0,0.0,0.0,0.0,0.0,0.0,0.0,0.0,0.0,0.0,0.0,0.0,0.0,0.0,0.0,2.4823,2.4888,2.4912,2.4931,0.0,0.0,2.5025,2.5082,2.5144,2.5214,2.5212,0.0,0.0,0.0,0.0,0.0,0.0,0.0,0.0,0.0,0.0,0.0,0.0,0.0,0.0,0.0,0.0,0.0,0.0,0.0,0.0,0.0,0.0,0.0,0.0,0.0,0.0,0.0,0.0,0.0,0.0,0.0,0.0,0.0,0.0,0.0,0.0,0.0,0.0,0.0,0.0,0.0,0.0,0.0,0.0,0.0,0.0,0.0,0.0,0.0,0.0,0.0,0.0,0.0,2.3292,2.3355,2.3668,2.3955,2.4133,2.419,2.4266,2.4321,2.4357,2.4374,0.0,0.0,0.0,0.0,0.0,0.0,0.0,0.0,0.0,0.0,0.0,0.0,0.0,0.0,0.0,0.0,0.0,0.0,0.0,0.0,0.0,0.0,0.0,0.0,0.0,0.0,0.0,0.0,2.0988,2.1176,2.1653,0.0,0.0,0.0,0.0,0.0,0.0,0.0,0.0,0.0,0.0,2.4903,2.4908,2.4903,0.0,0.0,2.4898,2.4959,2.4972,2.5025,2.5088,2.5068,2.5153,0.0,0.0,0.0,0.0,0.0,0.0,0.0,0.0,0.0,0.0,0.0,0.0,0.0,0.0,0.0,0.0,0.0,0.0,0.0,0.0,0.0,0.0,0.0,0.0,0.0,0.0,0.0,0.0,0.0,0.0,0.0,0.0,0.0,0.0,0.0,0.0,0.0,0.0,0.0,0.0,0.0,0.0,0.0,0.0,0.0,0.0,0.0,0.0,0.0,0.0,0.0,0.0,2.3656,2.3718,2.3747,2.3855,2.4054,2.4112,2.4171,2.421,2.4229,2.4284,0.0,0.0,0.0,0.0,0.0,0.0,0.0,0.0,0.0,0.0,0.0,0.0,0.0,0.0,0.0,0.0,0.0,0.0,0.0,0.0,0.0,0.0,0.0,0.0,0.0,0.0,0.0,0.0,2.2154,2.2378,2.2543,0.0,0.0,0.0,0.0,0.0,0.0,0.0,0.0,0.0,0.0,2.4903,2.4865,2.4861,2.4837,2.4808,2.4842,2.487,2.487,2.4926,2.4966,2.4955,0.0,0.0,0.0,0.0,0.0,0.0,0.0,0.0,0.0,0.0,0.0,0.0,0.0,0.0,0.0,0.0,0.0,0.0,0.0,0.0,0.0,0.0,0.0,0.0,0.0,0.0,0.0,0.0,0.0,0.0,2.4458,0.0,0.0,0.0,0.0,0.0,0.0,0.0,0.0,0.0,0.0,0.0,0.0,0.0,0.0,0.0,0.0,0.0,0.0,0.0,0.0,0.0,0.0,2.3517,2.3499,2.3634,2.3786,2.3896,2.3958,2.4057,2.421,2.421,2.4229,2.4284,0.0,0.0,0.0,0.0,0.0,0.0,0.0,0.0,0.0,0.0,0.0,0.0,0.0,0.0,0.0,0.0,0.0,0.0,0.0,0.0,0.0,0.0,0.0,0.0,0.0,0.0,2.1959,2.272,2.3279,0.0,0.0,0.0,0.0,0.0,0.0,0.0,0.0,0.0,0.0,2.4893,2.487,2.4813,2.4813,2.4813,2.4794,2.4794,2.4813,2.4832,2.4875,2.4898,0.0,0.0,0.0,0.0,0.0,0.0,0.0,0.0,0.0,0.0,0.0,0.0,0.0,0.0,0.0,0.0,0.0,0.0,0.0,0.0,0.0,0.0,0.0,0.0,0.0,0.0,0.0,2.5706,2.5867,0.0,0.0,0.0,0.0,0.0,0.0,0.0,0.0,0.0,0.0,0.0,2.5814,2.5809,0.0,0.0,0.0,0.0,0.0,0.0,0.0,0.0,0.0,0.0,0.0,0.0,2.3453,2.3499,2.3611,2.3747,2.3837,2.3896,2.4016,2.4134,2.4134,2.4172,2.4229,0.0,0.0,0.0,0.0,0.0,0.0,0.0,0.0,0.0,0.0,0.0,0.0,0.0,0.0,0.0,0.0,0.0,0.0,0.0,0.0,0.0,0.0,0.0,0.0,0.0,2.2865,0.0,0.0,0.0,0.0,0.0,0.0,0.0,0.0,0.0,0.0,0.0,2.4926,2.4902,2.4865,2.4827,2.481,2.4806,2.4787,0.0,0.0,0.0,0.0,0.0,0.0,0.0,0.0,0.0,0.0,0.0,0.0,0.0,0.0,2.5195,2.5321,2.5322,2.5341,2.5388,0.0,0.0,0.0,0.0,0.0,0.0,0.0,0.0,0.0,0.0,0.0,0.0,0.0,0.0,2.6381,0.0,2.6641,0.0,0.0,0.0,0.0,0.0,0.0,0.0,0.0,2.5908,2.6164,2.6618,2.6573,2.6633,0.0,2.662,2.6694,0.0,0.0,0.0,0.0,0.0,0.0,0.0,0.0,2.3378,2.343,2.3567,2.37,2.3792,2.3834,2.3935,2.4094,2.4113,2.4152,2.4172,2.4191,2.4228,0.0,0.0,0.0,0.0,0.0,0.0,0.0,0.0,0.0,0.0,0.0,0.0,0.0,0.0,0.0,0.0,0.0,0.0,0.0,0.0,0.0,0.0,0.0,2.3658,0.0,0.0,0.0,0.0,0.0,0.0,0.0,0.0,0.0,2.4932,2.487,2.487,2.4879,2.4842,2.4783,2.4779,0.0,0.0,0.0,0.0,0.0,0.0,0.0,2.6547,2.7093,2.7255,2.7132,2.6597,2.5868,2.5343,2.5403,0.0,0.0,2.5228,2.5269,2.5271,2.5322,2.5341,2.5361,2.5369,2.5387,2.5443,0.0,0.0,0.0,0.0,0.0,0.0,0.0,0.0,2.6284,2.6463,0.0,2.6704,0.0,0.0,0.0,0.0,0.0,2.6696,0.0,0.0,2.6827,2.6806,2.6793,2.675,2.6964,2.7508,2.7488,2.7767,2.8264,2.6823,0.0,0.0,0.0,0.0,0.0,0.0,2.3312,2.3436,2.3554,2.3679,2.3891,2.3894,2.3982,2.4149,2.4206,2.4225,2.4149,2.4206,2.4263,2.43,2.5014,0.0,0.0,0.0,0.0,0.0,0.0,0.0,0.0,0.0,0.0,0.0,0.0,0.0,0.0,0.0,0.0,0.0,0.0,0.0,0.0,2.421,0.0,0.0,0.0,0.0,0.0,0.0,0.0,0.0,0.0,0.0,2.5103,2.493,2.4888,2.4888,0.0,0.0,0.0,0.0,2.5986,2.5955,2.6594,2.7063,2.7064,2.7045,2.7046,2.7101,0.0,0.0,2.7307,2.6673,2.6136,2.6181,2.5513,2.498,2.5137,2.5184,2.5187,2.5182,2.5241,2.5282,2.5311,2.5293,2.5313,2.7348,0.0,0.0,0.0,0.0,2.7034,2.7222,2.7405,2.7619,2.7832,2.8069,2.814,0.0,0.0,0.0,0.0,0.0,0.0,2.7657,2.8223,2.879,2.9308,2.9806,2.9799,2.9831,2.9909,2.9827,2.9825,2.9844,2.9318,2.8195,2.6535,0.0,0.0,0.0,0.0,2.4908,2.4959,2.5134,2.5279,2.535,2.542,2.5222,2.4829,2.4892,2.4913,2.4892,2.4913,2.5186,2.575,2.6048,0.0,0.0,0.0,0.0,0.0,0.0,0.0,0.0,0.0,0.0,0.0,0.0,0.0,0.0,0.0,0.0,0.0,0.0,0.0,2.4247,2.4763,2.5151,0.0,0.0,0.0,0.0,0.0,0.0,0.0,0.0,0.0,2.6429,2.6424,2.6449,0.0,0.0,2.6405,2.6352,2.6594,2.6761,2.669,2.6877,0.0,2.7867,2.7923,2.8147,2.8689,2.8334,2.7961,2.7997,2.7358,2.6641,2.6107,2.5869,2.5603,2.5105,2.5019,2.5057,2.5075,2.5141,2.5225,2.5228,2.5241,2.5233,2.9222,2.8558,2.8612,2.8815,2.9141,2.9385,2.9576,2.9717,3.0006,3.0058,2.9927,2.9751,2.9751,2.9875,2.9875,0.0,0.0,0.0,2.9277,2.9769,3.0243,3.0709,3.1066,3.1075,3.0993,3.0854,3.0787,3.0682,3.0511,3.0379,2.9579,2.818,0.0,0.0,2.591,2.5685,2.5579,2.5605,2.5786,2.5911,2.6009,2.6087,2.5945,2.552,2.5568,2.5608,2.5586,2.5608,2.5849,2.6304,2.6645,2.6672,0.0,0.0,0.0,0.0,0.0,0.0,0.0,0.0,0.0,0.0,0.0,2.6173,2.6154,0.0,0.0,0.0,2.5979,2.5737,2.5202,2.5645,0.0,0.0,0.0,0.0,0.0,0.0,0.0,2.7827,2.7842,2.784,2.784,2.7863,2.7662,2.7118,2.704,2.7028,2.6953,0.0,2.7513,2.74,2.7698,2.8108,2.861,2.8703,2.8891,2.9359,2.9061,2.8763,2.8745,2.8129,2.7418,2.6948,2.6381,2.5828,2.5367,2.5087,2.4893,2.4942,2.5025,2.5082,2.5094,2.5099,2.5091,3.1015,3.1056,3.0891,3.1116,3.1691,3.1984,3.2179,3.2284,3.2639,3.246,3.1809,3.1358,3.1247,3.1337,3.1417,0.0,3.1443,3.1472,3.1482,3.1437,3.1536,3.1519,3.1438,3.1401,3.1307,3.1182,3.1105,3.0963,3.0802,3.065,3.0499,3.0358,2.8775,2.7578,2.6788,2.6081,2.5729,2.5782,2.594,2.605,2.6188,2.6309,2.632,2.6183,2.6294,2.6336,2.6289,2.6336,2.6381,2.64,2.7019,2.7065,2.6426,0.0,0.0,0.0,0.0,0.0,0.0,0.0,0.0,0.0,0.0,0.0,0.0,0.0,0.0,0.0,2.6649,0.0,2.6591,2.6707,0.0,0.0,0.0,2.7198,2.7972,2.8012,2.8292,2.9104,0.0,0.0,2.9067,2.9034,2.8495,2.7233,2.7121,2.7154,2.7085,2.7783,2.8236,2.8116,2.8743,2.9283,2.9209,2.9249,2.927,2.9392,2.9373,2.9375,2.9416,2.8894,2.8427,2.8185,2.6953,2.5905,2.5883,2.5239,2.4719,2.4847,2.4888,2.4902,2.4915,2.4915,2.4929,3.2602,3.3278,3.3338,3.2544,3.1291,3.1466,3.1746,3.1984,3.2195,3.2327,3.2323,3.2402,3.2534,3.2655,3.2708,3.2748,3.2785,3.3477,3.3719,3.3677,3.4274,3.4483,3.4456,3.447,3.4438,3.4315,3.4347,3.3877,3.3027,3.2976,3.2274,3.1032,3.0512,2.9639,2.8386,2.7723,2.7437,2.7419,2.7575,2.7665,2.7771,2.7849,2.7587,2.695,2.6957,2.6982,2.6957,2.6982,2.7277,2.7843,2.8062,2.8012,2.7826,2.796,0.0,0.0,0.0,0.0,0.0,0.0,0.0,0.0,0.0,2.7552,2.753,0.0,2.8127,0.0,2.6852,2.6483,2.6527,2.7116,0.0,0.0,2.8084,2.8525,2.8746,2.8727,2.8819,2.9021,2.8975,2.8952,2.8952,2.8887,2.8735,2.8379,2.8522,2.8639,2.8535,2.8739,2.892,2.8857,2.9005,2.9175,2.92,2.9262,2.9323,2.9388,2.937,2.9409,2.9409,2.9262,2.8947,2.8333,2.7457,2.6616,2.5979,2.5157,2.4685,2.4676,2.4798,2.4898,2.4898,2.4907,2.4902,3.4723,3.5182,3.539,3.4814,3.3717,3.3507,3.3602,3.3861,3.4027,3.4055,3.397,3.3946,3.3838,3.3661,3.4078,3.4253,3.4321,3.4852,3.51,3.5038,3.5421,3.5588,3.5522,3.554,3.5475,3.5393,3.5375,3.5041,3.4375,3.434,3.3652,3.2334,3.1863,3.1109,2.9994,2.9324,2.9024,2.9024,2.8813,2.8576,2.8237,2.8291,2.8103,2.7673,2.7681,2.7689,2.7689,2.7689,2.7905,2.8335,2.8273,2.8254,2.8215,2.8099,2.7812,0.0,0.0,0.0,0.0,0.0,0.0,0.0,0.0,0.0,0.0,0.0,2.8579,2.8142,2.764,2.7409,2.7474,2.788,2.8177,2.8223,2.8625,2.8858,2.8858,2.8791,2.8785,2.8785,2.8712,2.8669,2.8687,2.8633,2.8626,2.8612,2.8767,2.8868,2.89,2.8989,2.9035,2.8934,2.8975,2.9044,2.9134,2.9218,2.928,2.9304,2.9304,2.9304,2.9304,2.9347,2.9182,2.8738,2.7773,2.6898,2.6375,2.533,2.4582,2.4615,2.4695,2.4768,2.4802,2.4813,2.4794,3.6574,3.661,3.6763,3.6916,3.6936,3.6388,3.6249,3.6492,3.6759,3.6566,3.6078,3.5652,3.5166,3.4727,3.5522,3.5861,3.5861,3.6013,3.6045,3.6045,3.5912,3.5861,3.5861,3.5765,3.5697,3.5663,3.5559,3.5402,3.5243,3.5155,3.4677,3.3812,3.3073,3.2299,3.159,3.1002,3.0588,3.0313,2.9786,2.9155,2.8418,2.8429,2.8457,2.8475,2.8433,2.8389,2.8389,2.83,2.8264,2.8253,2.8144,2.805,2.8041,2.7848,2.7672,0.0,2.7717,0.0,0.0,0.0,0.0,0.0,0.0,0.0,0.0,2.8543,2.8562,2.8536,2.8562,2.8587,2.8619,2.8644,2.8662,2.8712,2.8669,2.8644,2.8644,2.8543,2.8484,2.8466,2.8432,2.8424,2.8424,2.8412,2.842,2.8414,2.8466,2.8533,2.8597,2.8761,2.8816,2.8676,2.8815,2.8952,2.9044,2.9134,2.9178,2.9178,2.92,2.9218,2.9218,2.924,2.9302,2.9135,2.7953,2.6916,2.6954,2.5613,2.4551,2.4582,2.4599,2.4615,2.4682,2.4698,2.4682,3.647,3.661,3.6626,3.673,3.6851,3.6821,3.7064,3.7522,3.7905,3.7906,3.7602,3.6967,3.6708,3.6753,3.7077,3.722,3.7256,3.7415,3.7431,3.7344,3.7344,3.7255,3.7202,3.7238,3.7238,3.7184,3.7131,3.6738,3.5917,3.5842,3.5361,3.4514,3.4246,3.3738,3.3108,0.0,0.0,0.0,3.0255,3.0101,2.9897,2.988,2.9928,2.991,2.9272,0.0,2.8929,2.839,2.8071,2.8071,2.7922,0.0,0.0,0.0,0.0,0.0,0.0,0.0,0.0,0.0,0.0,0.0,2.9753,2.9384,2.8398,2.8255,2.8273,2.83,2.8282,2.8282,2.8282,2.8282,2.8309,2.8291,2.8353,2.838,2.8362,2.8406,2.8406,2.8424,2.8424,2.8398,2.8398,2.8406,2.8388,2.8327,2.8336,2.8327,2.8306,2.8478,2.8576,2.8623,2.8737,2.8858,2.8994,2.9058,2.9044,2.9089,2.9156,2.9197,2.9197,2.92,2.9218,2.9181,2.7871,2.6743,2.6821,2.5523,2.4429,2.4498,2.4517,2.4551,2.4617,2.4615,2.4615,3.74,0.0,3.7546,3.7616,0.0,3.792,3.8181,3.8489,3.8201,3.8205,3.8377,3.8146,3.8111,3.8369,3.8546,3.8661,3.8736,3.8921,3.8977,3.8941,3.8885,3.8811,3.8736,3.8756,3.8736,3.8679,3.8342,3.7895,3.7299,3.687,3.6174,3.5249,3.5194,3.4809,3.4163,3.3864,3.2816,3.1031,3.0978,3.0738,3.0278,3.026,3.026,3.0243,0.0,0.0,0.0,0.0,0.0,0.0,0.0,0.0,0.0,0.0,0.0,2.8434,2.8697,2.8904,2.9037,2.9401,2.9658,2.9791,2.9907,2.9751,2.926,2.9254,2.9254,2.9236,2.9254,2.9265,2.9315,2.9333,2.9201,2.8872,2.8846,2.8702,2.829,2.8174,2.8219,2.8191,2.8191,2.8191,2.8191,2.8192,2.821,2.8164,2.8187,2.8195,2.8164,2.8281,2.8425,2.8598,2.8687,2.8785,2.8881,2.8947,2.897,2.8994,2.9062,2.9089,2.9108,2.9134,2.9134,2.9042,2.7809,2.6722,2.6613,2.5449,2.4358,2.4393,2.4411,2.4465,2.4498,2.4532,2.4564,3.8505,3.8408,3.8504,3.856,3.856,3.8805,3.9094,3.9242,0.0,0.0,0.0,3.8947,3.9118,3.9353,3.9557,3.9718,3.9836,4.0006,4.0065,4.0125,4.0103,3.9988,3.9893,3.9893,3.9854,3.9753,3.9192,3.8851,3.8642,3.7881,3.7114,3.6362,3.613,3.5694,3.5029,3.4358,3.343,3.2243,3.1862,3.1323,3.0607,3.0571,3.0571,3.0539,3.0462,3.0392,3.0211,2.9523,2.9132,2.9119,2.8399,2.8206,2.8702,2.8542,2.8699,2.9299,2.9363,2.9397,2.9644,2.9677,2.9781,2.9989,3.0092,3.0189,3.0233,3.0198,3.0215,3.018,3.0229,3.0256,3.0391,3.0421,3.022,2.9654,2.9576,2.9198,2.8408,2.823,2.8195,2.8032,2.7996,2.7996,2.7996,2.801,2.7974,2.8014,2.8052,2.8094,2.8103,2.8208,2.8362,2.8528,2.8612,2.8687,2.8779,2.8828,2.8894,2.8876,2.8947,2.8994,2.9017,2.9062,2.9067,2.9085,2.7767,2.6866,2.6591,2.5392,2.4358,2.4284,2.4339,2.4376,2.4394,2.441,2.4478,3.8974,3.8391,3.8408,3.8408,3.8448,3.856,3.8892,3.9259,3.8908,3.8979,3.9353,3.8888,3.8833,3.9126,3.9287,3.9453,3.9656,3.9771,3.9872,0.0,3.9932,3.9911,3.9811,3.9811,3.9753,3.9615,3.9549,3.9496,3.9368,3.8677,3.8252,3.8019,3.7435,3.6675,3.5916,3.5261,3.4782,3.4517,3.3089,3.2264,3.2106,3.2106,3.202,3.1899,3.1287,3.0921,3.0784,3.007,2.9669,2.9669,2.9449,2.9349,2.9368,2.9265,2.9248,2.928,2.9824,3.0216,3.027,3.0851,3.1268,3.1472,3.1564,3.1116,3.0016,2.9876,2.9859,2.9876,3.0009,2.9972,2.9986,3.0156,3.0219,3.0043,3.0061,2.9768,2.8994,2.8936,2.8727,2.8191,2.7996,2.805,2.8039,2.8032,2.8014,2.8003,2.8006,2.8023,2.8116,2.8217,2.8317,2.8398,2.8466,2.8543,2.8637,2.873,2.8816,2.8822,2.8942,2.8975,2.8975,2.9017,2.9017,2.9017,2.7699,2.6765,2.6641,2.5352,2.445,2.4266,2.4303,2.4303,2.4303,2.4339,2.4375,3.9606,3.9007,3.8991,3.8764,3.8408,3.86,3.8821,3.9061,3.9257,3.9546,3.9904,3.9804,3.9928,4.0254,4.0377,4.0551,4.0806,4.0925,4.1032,4.1118,4.1159,4.1136,4.1055,4.1055,4.0973,4.089,4.0447,4.0194,4.01,3.9393,3.881,3.8369,3.7648,3.714,3.6787,3.5987,3.5597,3.5544,3.4005,3.3159,3.3107,3.2564,3.2267,3.2179,3.183,3.1586,3.141,3.0751,3.0369,3.0335,2.9833,2.9713,3.0075,3.0003,3.0101,3.0441,3.0594,3.0777,3.0815,3.1159,3.1385,3.1445,3.1596,3.1436,3.0819,3.0925,3.108,3.1115,3.1131,3.1182,3.1282,3.1384,3.1225,3.0768,3.0779,3.048,2.9765,2.9651,2.9506,2.9211,2.914,2.8981,2.8541,2.8476,2.8275,2.797,2.7895,2.7999,2.8099,2.8162,2.8245,2.8353,2.844,2.8518,2.8587,2.871,2.8803,2.8798,2.8923,2.8975,2.8975,2.8975,2.8975,2.8883,2.7673,2.6741,2.6633,2.5329,2.443,2.4247,2.4266,2.4247,2.4247,2.4284,2.4339,4.0335,3.9719,3.9703,3.9298,3.8691,3.8776,3.8805,3.886,3.9451,3.9884,4.0255,4.0502,4.0823,4.1117,4.1272,4.1498,4.1754,4.1902,4.1995,4.2103,4.2187,4.2205,4.2103,4.2086,4.2055,4.1874,4.135,4.1007,4.0793,4.0147,3.937,3.8611,3.7913,3.76,3.7603,3.6746,3.6319,3.627,3.4995,3.4164,3.3917,3.3143,3.2633,3.2441,3.237,3.2175,3.1894,3.1357,3.1027,3.0992,3.0351,3.0247,3.0745,3.0666,3.0844,3.1317,3.1151,3.1015,3.1112,3.1112,3.1151,3.119,3.1346,3.1483,3.16,3.1802,3.2001,3.2108,3.2074,3.2162,3.2283,3.2404,3.2209,3.161,3.156,3.1228,3.051,3.0334,3.0264,3.0159,3.0106,2.9825,2.9365,2.917,2.8971,2.8513,2.8229,2.8244,2.8326,2.8276,2.8209,2.8327,2.8432,2.851,2.8562,2.8703,2.8771,2.8761,2.8876,2.8923,2.8947,2.897,2.8994,2.8828,2.7673,2.6778,2.6465,2.5309,2.4373,2.4209,2.4209,2.421,2.421,2.4247,2.4303,4.1063,4.0448,4.0399,3.9994,3.9372,3.9005,3.8821,3.886,3.9451,3.9781,3.9952,4.0337,4.068,4.0918,4.1134,4.1363,4.1604,4.1736,4.1909,4.2079,4.2103,4.2103,4.2103,4.2086,4.1977,4.1884,4.1839,4.1768,4.1611,4.099,4.0288,3.9469,3.8766,3.8376,3.8252,3.7562,3.719,3.719,3.6247,3.5414,3.4654,3.4421,3.3907,3.3136,3.3043,3.2602,3.194,3.1731,3.1696,3.1696,3.1502,3.1391,3.1418,3.127,3.1206,3.1213,3.1095,3.0975,3.0952,3.0912,3.0992,3.119,3.1207,3.132,3.146,3.153,3.1651,3.1837,3.2001,3.2108,3.2161,3.2319,3.2335,3.2247,3.2195,3.1984,3.1282,3.1087,3.0856,3.0159,3.0282,3.0071,3.0033,2.9938,2.9907,2.9741,2.9286,2.9058,2.9053,2.8653,2.8398,2.8425,2.8424,2.8432,2.851,2.8616,2.8692,2.8718,2.8761,2.8822,2.8846,2.8876,2.8905,2.8759,2.7651,2.6683,2.6279,2.5346,2.4263,2.419,2.4209,2.4209,2.4209,2.4209,2.4266,4.1792,4.116,4.1128,4.0496,3.9551,3.9478,3.9198,3.8876,3.9362,3.959,3.9694,4.0087,4.0485,4.0871,4.0995,4.1134,4.1346,4.1604,4.1736,4.1823,4.197,4.2037,4.2103,4.2037,4.2012,4.1995,4.1987,4.1945,4.1821,4.125,4.0742,4.037,3.9704,3.9274,3.9181,3.8433,3.7966,3.7835,3.7034,3.6394,3.5987,3.5034,3.4347,3.3992,3.3917,3.3665,3.3225,3.2827,3.253,3.2421,3.1912,3.1579,3.1559,3.1389,3.1312,3.1235,3.1055,3.0855,3.0708,3.0749,3.0807,3.0898,3.1009,3.1168,3.1314,3.1363,3.1445,3.1614,3.1783,3.1929,3.1984,3.2108,3.2232,3.2267,3.2266,3.2161,3.1967,3.1879,3.1772,3.1493,3.1458,3.123,3.0791,3.036,3.0141,3.0142,2.9895,2.9809,2.9821,2.9318,2.8987,2.8972,2.8694,2.8424,2.8536,2.8641,2.8667,2.8699,2.8773,2.8816,2.8798,2.8828,2.8834,2.8834,2.7533,2.6622,2.653,2.5326,2.419,2.419,2.419,2.419,2.419,2.4209,2.4209,4.2342,4.1873,4.1678,4.0982,4.0118,4.0107,3.9829,3.9499,3.9868,4.003,4.0171,4.049,4.0883,4.1246,4.103,4.0995,4.118,4.1426,4.156,4.1604,4.1841,4.1987,4.2055,4.2055,4.2055,4.2037,4.2055,4.203,4.1934,4.1558,4.128,4.1174,4.0544,4.0153,4.0002,3.9213,3.8744,3.8554,3.7769,3.7325,3.711,3.5892,3.5084,3.4853,3.4777,3.4557,3.4198,3.3679,3.3346,3.3214,3.2526,3.2158,3.2158,3.2003,3.1885,3.1805,3.1638,3.1375,3.1165,3.1191,3.1166,3.1033,3.1132,3.1194,3.1162,3.1213,3.1291,3.1385,3.1576,3.1691,3.1839,3.1929,3.2037,3.2108,3.2109,3.2162,3.2301,3.2319,3.2284,3.2319,3.2179,3.2143,3.1529,3.1021,3.0781,3.0767,3.062,3.0515,3.0504,3.0077,2.9608,2.9536,2.9008,2.8712,2.8608,2.858,2.8641,2.8667,2.8724,2.8748,2.873,2.8755,2.8761,2.8621,2.7337,2.6542,2.6322,2.5285,2.419,2.419,2.419,2.419,2.419,2.419,2.419,4.2618,4.2488,4.1857,4.1533,4.1464,4.0902,4.071,4.0721,4.113,4.1349,4.1499,4.1829,4.2132,4.2295,4.14,4.1034,4.1175,4.1411,4.1576,4.163,4.1789,4.1919,4.1987,4.2037,4.2055,4.203,4.2079,4.2079,4.1987,4.1952,4.197,4.1864,4.1144,4.079,4.0683,3.9975,3.9504,3.9388,3.8642,3.8179,3.7953,3.7268,3.6457,3.578,3.5523,3.5096,3.4411,3.4198,3.4125,3.4042,3.3688,3.355,3.3567,3.3345,3.3178,3.3144,3.3033,3.2887,3.269,3.2552,3.2287,3.1859,3.175,3.1575,3.1254,3.1183,3.1213,3.1224,3.1363,3.1428,3.1579,3.1746,3.1856,3.1912,3.1894,3.1966,3.2108,3.2126,3.2108,3.2108,3.2161,3.2092,3.2039,3.2109,3.1969,3.1829,3.1579,3.1276,3.1306,3.0863,3.0267,2.983,2.951,2.9287,2.8683,2.8536,2.8562,2.8605,2.863,2.8612,2.8637,2.8662,2.8687,2.8409,2.7255,2.6476,2.6151,2.5463,2.4461,2.417,2.4208,2.4208,2.419,2.419,2.419,4.3055,4.2555,4.2359,4.2002,4.161,4.1471,4.1157,4.0851,4.114,4.1328,4.1458,4.1794,4.2105,4.2375,4.2159,4.2171,4.2469,4.2675,4.2521,4.2166,4.2314,4.2247,4.1902,4.1892,4.1934,4.203,4.205,4.2133,4.2181,4.2181,4.2181,4.2163,4.1896,4.1736,4.1511,4.079,4.0318,4.014,3.9394,3.8925,3.8813,3.8111,3.7527,3.7143,3.6694,3.6247,3.5826,3.5322,3.4983,3.48,3.4099,3.3704,3.3663,3.3515,3.3381,3.3287,3.3158,3.3038,3.2917,3.2785,3.2608,3.243,3.243,3.2407,3.2193,3.1918,3.1722,3.1695,3.141,3.1325,3.1346,3.1517,3.1651,3.1691,3.1728,3.1765,3.1893,3.1965,3.1984,3.1984,3.2037,3.2108,3.2091,3.2108,3.2144,3.2179,3.2091,3.2036,3.2015,3.1565,3.1031,3.0718,3.0,2.9308,2.926,2.8729,2.851,2.8536,2.8562,2.8587,2.8612,2.8612,2.8637,2.8481,2.7367,2.6445,2.6085,2.5147,2.4275,2.4113,2.4151,2.417,2.419,2.419,2.419,4.3071,4.2619,4.2571,4.2359,4.1921,4.2028,4.1813,4.145,4.1671,4.1848,4.1981,4.2382,4.2702,4.2959,4.3282,4.3614,4.3802,4.362,4.3245,4.2793,4.301,4.2791,4.2229,4.215,4.207,4.1962,4.2068,4.2175,4.2228,4.2287,4.2287,4.2287,4.2287,4.2246,4.2056,4.1529,4.1173,4.0905,4.0162,3.9733,3.9585,3.8859,3.8415,3.8268,3.7638,3.7033,3.6661,3.6122,3.5723,3.5449,3.4837,3.4396,3.4329,3.4202,3.409,3.4021,3.3906,3.3757,3.3679,3.3499,3.3292,3.3044,3.315,3.3145,3.294,3.2527,3.2404,3.2278,3.2075,3.178,3.182,3.1918,3.1856,3.1602,3.1504,3.1559,3.1688,3.1746,3.1765,3.1802,3.1912,3.1982,3.2017,3.2018,3.2054,3.2106,3.2249,3.2371,3.2387,3.2155,3.1706,3.1537,3.0716,3.0101,2.9898,2.9582,2.8891,2.8781,2.8662,2.8677,2.8587,2.8587,2.8515,2.8341,2.7713,2.6739,2.5768,2.4814,2.4344,2.4147,2.4094,2.4151,2.417,2.4171,2.4245,4.2666,4.2571,4.2571,4.2618,4.2537,4.2537,4.2664,4.272,4.2921,4.2961,4.3092,4.3731,4.3903,4.4232,4.4541,4.4966,4.487,4.4125,4.368,4.3541,4.3763,4.3518,4.2833,4.2881,4.2538,4.1947,4.2012,4.2103,4.2086,4.2246,4.2287,4.2287,4.2287,4.2287,4.2305,4.2074,4.1966,4.1697,4.0969,4.0567,4.0375,3.9606,3.9101,3.8988,3.8258,3.7436,3.6641,3.6502,3.6316,3.6122,3.5959,3.5837,3.548,3.5436,3.5537,3.5391,3.5311,3.5207,3.5128,3.4875,3.4352,3.3938,3.3806,3.362,3.3278,3.304,3.295,3.3004,3.2914,3.288,3.2847,3.2856,3.2513,3.1557,3.1516,3.1504,3.1564,3.1534,3.1538,3.1596,3.1709,3.18,3.1819,3.1856,3.191,3.1944,3.2072,3.2267,3.2354,3.2316,3.2119,3.1759,3.1292,3.0858,3.067,3.044,2.9671,2.9071,2.8889,2.8797,2.8641,2.8587,2.8587,2.8413,2.787,2.6897,2.5583,2.4699,2.432,2.4124,2.4127,2.4112,2.4112,2.4168,2.4372,4.3087,4.265,4.2571,4.2571,4.2571,4.2571,4.2634,4.2696,4.2883,4.3068,4.3235,4.3713,4.4006,4.435,4.4814,4.5086,4.5196,4.5078,4.4829,4.446,4.4585,4.4308,4.3687,4.357,4.3253,4.2547,4.2078,4.1952,4.2079,4.2163,4.2187,4.2287,4.2287,4.2287,4.2287,4.2139,4.203,4.1927,4.1525,4.1253,4.1068,4.0324,3.9835,3.9572,3.8824,3.8173,3.7765,3.6887,3.6353,3.6242,3.5993,3.5773,3.5639,3.5639,3.5639,3.5594,3.5429,3.5308,3.5308,3.5041,3.48,3.4584,3.4535,3.4468,3.425,3.3894,3.3689,3.3651,3.3295,3.2988,3.2988,3.2988,3.289,3.2647,3.2174,3.1877,3.1896,3.1618,3.1457,3.15,3.1576,3.1614,3.1634,3.1691,3.1763,3.1871,3.1963,3.2055,3.2214,3.2318,3.2335,3.2172,3.1833,3.1526,3.1355,3.1092,3.0534,2.997,2.9638,2.9339,2.9094,2.8757,2.8739,2.837,2.7852,2.7001,2.5665,2.4929,2.4623,2.421,2.4142,2.4125,2.4107,2.4312,2.4626,4.3281,4.2603,4.2571,4.2571,4.2571,4.2571,4.2571,4.2634,4.2821,4.2945,4.3174,4.3535,4.3889,4.4236,4.4703,4.4978,4.5194,4.5615,4.5577,4.5227,4.5373,4.5098,4.4343,4.4036,4.3711,4.3225,4.2555,4.229,4.2402,4.2161,4.2121,4.2205,4.2246,4.2246,4.2205,4.2055,4.2005,4.1902,4.1648,4.1471,4.1338,4.0899,4.0502,4.0199,3.9422,3.894,3.8665,3.7562,3.6808,3.6446,3.6014,3.5684,3.5622,3.5639,3.5639,3.5577,3.5458,3.54,3.5354,3.5198,3.5041,3.5041,3.5041,3.5041,3.4958,3.4651,3.4485,3.4368,3.4113,3.3885,3.384,3.3885,3.3929,3.4001,3.3136,3.2479,3.2232,3.1676,3.1363,3.1385,3.144,3.1538,3.1596,3.1579,3.1671,3.1817,3.1893,3.193,3.2127,3.2197,3.2318,3.2352,3.2172,3.1974,3.198,3.172,3.1385,3.0962,3.0538,3.0216,2.9908,2.9442,2.9214,2.8522,2.796,2.7489,2.6317,2.5774,2.5379,2.4878,2.4444,2.4483,2.4668,2.4819,2.5113,4.3362,4.2715,4.2587,4.2571,4.2571,4.2571,4.2571,4.2634,4.2759,4.2945,4.3174,4.3416,4.3789,4.4155,4.4592,4.4886,4.5103,4.5511,4.5752,4.5784,4.59,4.5698,4.5133,4.446,4.4056,4.3898,4.3303,4.2996,4.3005,4.2581,4.2119,4.2257,4.2299,4.2157,4.2115,4.203,4.1945,4.1797,4.156,4.1426,4.1363,4.1152,4.0977,4.0784,4.0006,3.9504,3.9324,3.8465,3.7653,3.691,3.6169,3.5757,3.5656,3.5639,3.5639,3.5577,3.552,3.5492,3.5446,3.5354,3.5245,3.5261,3.5261,3.5308,3.5228,3.5161,3.5111,3.5174,3.5124,3.514,3.5124,3.5107,3.517,3.5227,3.4095,3.3111,3.2285,3.1755,3.1506,3.1404,3.1414,3.15,3.1542,3.1579,3.1671,3.1783,3.1856,3.1948,3.202,3.2108,3.2214,3.2248,3.2229,3.2294,3.2234,3.1856,3.1627,3.1816,3.1361,3.0908,3.0586,3.0106,2.9613,2.8927,2.8413,2.7852,2.7182,2.6566,2.6136,2.5719,2.5433,2.5256,2.555,2.6049,2.6435,4.4075,4.3379,4.2844,4.2571,4.2571,4.2571,4.2571,4.2634,4.2634,4.2805,4.3096,4.3312,4.3687,4.4097,4.4553,4.4886,4.5086,4.5459,4.5736,4.5838,4.5972,4.6035,4.5768,4.5168,4.4764,4.4671,4.4021,4.3715,4.3744,4.3507,4.3244,4.2845,4.2888,4.2622,4.2136,4.2041,4.1945,4.178,4.1515,4.1318,4.1226,4.1059,4.0888,4.0728,4.0329,4.008,3.998,3.9188,3.8106,3.692,3.6666,3.618,3.574,3.5673,3.5673,3.5577,3.5566,3.5492,3.5492,3.54,3.5308,3.5308,3.5354,3.5308,3.5308,3.5308,3.5308,3.5308,3.5308,3.5291,3.5308,3.5291,3.5383,3.5391,3.4688,3.3871,3.3128,3.2459,3.2026,3.1992,3.1591,3.1448,3.1462,3.1521,3.1631,3.1763,3.1837,3.1873,3.1982,3.209,3.2179,3.2267,3.2283,3.242,3.238,3.2004,3.1959,3.2451,3.2115,3.1494,3.1153,3.0767,3.0251,2.9663,2.9445,2.8993,2.7997,2.7169,2.6838,2.6892,2.6819,2.6879,2.7659,2.827,2.8548,4.4642,4.367,4.3249,4.2909,4.265,4.2571,4.2571,4.2571,4.2634,4.2805,4.3052,4.3235,4.3611,4.4097,4.448,4.4814,4.5032,4.5406,4.5684,4.5821,4.5972,4.6105,4.6049,4.5712,4.5572,4.5497,4.4764,4.4495,4.4437,4.419,4.3842,4.3615,4.3571,4.3227,4.2536,4.2361,4.2184,4.1807,4.1498,4.1272,4.1209,4.0995,4.0776,4.0648,4.0436,4.0355,4.017,3.9764,3.8817,3.7665,3.7229,3.6907,3.6214,3.6096,3.5977,3.569,3.5549,3.5566,3.5503,3.5458,3.5412,3.5412,3.5412,3.5412,3.5412,3.5412,3.5412,3.5412,3.5412,3.5412,3.5412,3.5412,3.5458,3.5498,3.5233,3.4718,3.3921,3.322,3.2662,3.2266,3.1935,3.1574,3.1547,3.1517,3.1614,3.1726,3.18,3.1873,3.1946,3.2054,3.2161,3.2232,3.2354,3.2439,3.2504,3.2216,3.2115,3.2577,3.2724,3.2092,3.1791,3.1446,3.1021,3.0586,3.0423,3.0043,2.9145,2.8547,2.8735,2.8728,2.8533,2.8623,2.9264,2.9816,3.0204,4.5079,4.3929,4.3848,4.3443,4.2958,4.286,4.3006,4.2893,4.286,4.2984,4.3199,4.3162,4.3552,4.4097,4.4463,4.4725,4.5032,4.5423,4.5615,4.5821,4.604,4.6189,4.6172,4.6102,4.6098,4.6028,4.5501,4.5273,4.5098,4.4536,4.4232,4.4237,4.4248,4.3852,4.3297,4.3094,4.2626,4.2071,4.1716,4.1411,4.1215,4.0995,4.0793,4.0583,4.0517,4.037,4.0288,4.0119,3.9642,3.8258,3.8122,3.7665,3.7102,3.6937,3.6564,3.6039,3.5887,3.5853,3.5667,3.5622,3.5622,3.5622,3.5577,3.5639,3.5594,3.5577,3.5577,3.5594,3.5639,3.5577,3.5639,3.5622,3.5622,3.565,3.5722,3.5372,3.4665,3.3981,3.3254,3.2495,3.2459,3.2072,3.1798,3.1551,3.1593,3.1763,3.18,3.1856,3.1948,3.2055,3.2144,3.2284,3.2388,3.2457,3.247,3.2429,3.2417,3.2577,3.2898,3.2703,3.2527,3.218,3.1818,3.1492,3.1238,3.0985,3.0577,3.0359,3.0368,3.0369,3.0098,3.0134,3.0333,3.084,3.1266,4.5629,4.5322,4.4787,4.4464,4.435,4.4334,4.4302,4.4237,4.3702,4.3667,4.385,4.3514,4.3645,4.4131,4.457,4.4831,4.5032,4.5318,4.5581,4.5821,4.5972,4.6122,4.6172,4.6189,4.6189,4.6119,4.6081,4.5975,4.587,4.5659,4.5396,4.4952,4.4941,4.4636,4.3994,4.3842,4.349,4.281,4.2409,4.1876,4.1285,4.1029,4.084,4.0631,4.0534,4.0468,4.0436,4.0436,4.0266,3.9907,3.9378,3.8764,3.8103,3.795,3.7541,3.6911,3.6706,3.6502,3.6041,3.58,3.5773,3.5773,3.5667,3.5639,3.5639,3.5622,3.5622,3.5639,3.5639,3.5667,3.5728,3.5773,3.58,3.5888,3.5932,3.5864,3.5581,3.5002,3.4457,3.4065,3.3264,3.252,3.2488,3.1867,3.1806,3.1797,3.1819,3.1858,3.193,3.202,3.2161,3.2267,3.2388,3.2473,3.2504,3.253,3.2567,3.2675,3.2947,3.3129,3.3002,3.2897,3.2506,3.2234,3.1999,3.1763,3.1546,3.1274,3.1121,3.1345,3.1624,3.1707,3.1826,3.2144,3.1999,4.6099,4.5775,4.5419,4.5079,4.4836,4.4804,4.4804,4.4739,4.4561,4.4479,4.4554,4.4196,4.4261,4.4566,4.4739,4.4886,4.5086,4.5406,4.5684,4.5838,4.599,4.614,4.6189,4.6189,4.6189,4.6189,4.6172,4.6189,4.6189,4.6154,4.5958,4.5677,4.5655,4.5376,4.477,4.4653,4.4294,4.3605,4.2984,4.2398,4.1911,4.1279,4.0888,4.0697,4.0583,4.0534,4.0583,4.068,4.0728,4.0672,4.0427,3.9782,3.8995,3.876,3.8265,3.7342,3.712,3.6744,3.6198,3.5949,3.5905,3.5905,3.5844,3.58,3.58,3.58,3.58,3.58,3.58,3.5844,3.5905,3.5888,3.5932,3.5993,3.6079,3.6062,3.6011,3.5677,3.5224,3.4899,3.4182,3.3419,3.2916,3.2423,3.2018,3.199,3.1817,3.1856,3.1893,3.2001,3.2126,3.2214,3.2371,3.2456,3.2519,3.2577,3.2612,3.2791,3.3045,3.3208,3.3237,3.323,3.3194,3.2886,3.2596,3.2669,3.2469,3.218,3.2035,3.2368,3.2694,3.3002,3.3038,3.2777,3.2488,4.6536,4.5969,4.5969,4.5629,4.516,4.5226,4.5275,4.5226,4.5261,4.5423,4.5403,4.5024,4.483,4.5152,4.4914,4.4903,4.514,4.5459,4.5736,4.5838,4.6023,4.6122,4.6189,4.6189,4.6189,4.6189,4.6189,4.6189,4.6189,4.6189,4.6137,4.6186,4.6154,4.5945,4.5611,4.5441,4.5123,4.4428,4.3568,4.284,4.2387,4.1661,4.1047,4.0823,4.071,4.0728,4.0823,4.0918,4.0982,4.1076,4.1163,4.0631,4.0018,3.9603,3.9123,3.7734,3.7693,3.7212,3.6638,3.6225,3.6105,3.6062,3.6062,3.6045,3.6045,3.6062,3.6062,3.6062,3.6062,3.6045,3.6062,3.6105,3.6122,3.6165,3.6208,3.6251,3.6251,3.6148,3.5805,3.5309,3.4912,3.4341,3.367,3.3124,3.261,3.2127,3.1955,3.1854,3.1963,3.2036,3.2161,3.2249,3.2405,3.2557,3.2669,3.2749,3.2764,3.2924,3.316,3.3286,3.3382,3.3375,3.3321,3.3357,3.3212,3.3194,3.3158,3.294,3.2977,3.3375,3.3321,3.3194,3.3194,3.323,3.2741,4.6981,4.6698,4.6698,4.6617,4.6604,4.6741,4.6743,4.6727,4.6356,4.6339,4.6463,4.5424,4.5236,4.5385,4.5154,4.5103,4.5318,4.5563,4.5718,4.5838,4.5972,4.6122,4.6189,4.6189,4.6189,4.6189,4.6189,4.6189,4.6189,4.6189,4.6189,4.6189,4.6189,4.6161,4.6283,4.6247,4.5876,4.528,4.441,4.3575,4.2741,4.1852,4.1244,4.1088,4.1024,4.1024,4.1088,4.1134,4.118,4.118,4.1209,4.1076,4.0891,4.0793,4.0308,3.95,3.8841,3.8235,3.7421,3.6807,3.6506,3.6419,3.6318,3.6276,3.6259,3.6259,3.6276,3.6276,3.6276,3.6318,3.6419,3.6377,3.6461,3.6502,3.6561,3.6579,3.6579,3.6502,3.6385,3.599,3.56,3.5175,3.4501,3.3792,3.3156,3.2602,3.2239,3.2069,3.2073,3.2144,3.2249,3.2371,3.2473,3.2657,3.2802,3.2898,3.297,3.3093,3.3256,3.3286,3.3364,3.3393,3.3393,3.3393,3.3393,3.3321,3.3339,3.3393,3.3266,3.3176,3.3158,3.314,3.2741,3.2361,3.1991,4.7319,4.7251,4.7251,4.7183,4.7251,4.7319,4.7386,4.7421,4.7308,4.7342,4.7184,4.6386,4.595,4.5981,4.5384,4.5211,4.5423,4.5615,4.5718,4.5838,4.5972,4.6122,4.6189,4.6189,4.6189,4.6189,4.6189,4.6189,4.6189,4.6189,4.6189,4.6189,4.6189,4.6319,4.6542,4.6489,4.6395,4.5946,4.5326,4.4392,4.3318,4.2163,4.1433,4.1255,4.1209,4.1255,4.1318,4.1408,4.1453,4.1498,4.1604,4.156,4.1542,4.141,4.1076,4.0306,3.9774,3.9025,3.8024,3.7339,3.7037,3.6655,3.6544,3.6502,3.6502,3.6502,3.6502,3.6502,3.6502,3.6544,3.6602,3.6602,3.6643,3.6702,3.6719,3.6719,3.6719,3.6719,3.6661,3.6544,3.6307,3.5838,3.5243,3.4536,3.3793,3.313,3.2572,3.2352,3.2249,3.2283,3.2386,3.2473,3.259,3.2773,3.2916,3.3011,3.3104,3.3244,3.3304,3.3334,3.3364,3.3393,3.3393,3.3393,3.3393,3.3393,3.3393,3.3375,3.3176,3.2922,3.2788,3.2534,3.1936,3.1437,3.1211,4.716,4.7177,4.716,4.7243,4.7358,4.739,4.7589,4.7787,4.8018,4.8115,4.8005,4.715,4.6617,4.6384,4.5768,4.5318,4.5406,4.5667,4.5787,4.5871,4.6073,4.6189,4.6189,4.6189,4.6189,4.6189,4.6189,4.6189,4.6189,4.6189,4.6189,4.6189,4.6189,4.6319,4.6542,4.659,4.6684,4.6518,4.6067,4.5159,4.38,4.2422,4.1471,4.1363,4.1363,4.1453,4.156,4.1622,4.1692,4.1797,4.1902,4.1945,4.1841,4.1841,4.1411,4.0648,4.0333,3.9425,3.8594,3.793,3.7586,3.6974,3.6864,3.6806,3.6823,3.6846,3.6846,3.6823,3.6806,3.6846,3.6846,3.6846,3.6846,3.6846,3.6864,3.6823,3.6864,3.6904,3.6904,3.6846,3.6806,3.6486,3.5906,3.5292,3.4565,3.3824,3.3264,3.2581,3.2474,3.2431,3.2482,3.2621,3.2755,3.2902,3.3028,3.3122,3.3214,3.3304,3.3334,3.3364,3.3393,3.3393,3.3393,3.3393,3.3393,3.3393,3.3393,3.3302,3.3067,3.2759,3.2418,3.1855,3.1166,3.1029,3.1002,4.6046,4.5904,4.5937,4.6267,4.686,4.7054,4.75,4.808,4.8358,4.8346,4.7882,4.7224,4.6707,4.6246,4.5694,4.5388,4.5459,4.5684,4.5838,4.5871,4.6073,4.6189,4.6189,4.6189,4.6189,4.6189,4.6189,4.6189,4.6221,4.6221,4.6239,4.6239,4.6221,4.6368,4.659,4.6637,4.6684,4.6653,4.6031,4.4902,4.3474,4.2396,4.1929,4.1858,4.1858,4.1858,4.1858,4.1919,4.1945,4.1962,4.2005,4.2005,4.1987,4.1962,4.1945,4.1584,4.1004,4.0169,3.9441,3.8911,3.8188,3.7549,3.7288,3.7256,3.7161,3.7161,3.7143,3.7238,3.72,3.7182,3.7161,3.7182,3.722,3.7182,3.7143,3.7143,3.7182,3.7083,3.7083,3.7122,3.7066,3.6948,3.6589,3.599,3.5378,3.4672,3.3917,3.3264,3.2733,3.269,3.2642,3.2798,3.2852,3.3028,3.3109,3.3232,3.3274,3.3334,3.3364,3.3393,3.3393,3.3393,3.3393,3.3393,3.3393,3.3422,3.3422,3.3277,3.2958,3.2643,3.2355,3.1393,3.0285,3.0428,3.0873,4.5639,4.6046,4.6062,4.6229,4.6495,4.6698,4.6971,4.7334,4.7648,4.7663,4.7393,4.6857,4.6272,4.5834,4.5474,4.5423,4.5511,4.5736,4.5838,4.5939,4.6073,4.6189,4.6189,4.6189,4.6189,4.6189,4.6239,4.6253,4.6253,4.6221,4.6239,4.6319,4.6301,4.6447,4.6684,4.6702,4.6795,4.655,4.5703,4.468,4.3784,4.2739,4.2005,4.2005,4.2005,4.2005,4.2005,4.2072,4.2055,4.2072,4.2115,4.2103,4.2086,4.2061,4.2055,4.2002,4.1711,4.1085,4.0377,3.9934,3.9142,3.8288,3.7916,3.781,3.7474,3.7332,3.7332,3.7297,3.7297,3.7297,3.7297,3.7297,3.7297,3.7297,3.7334,3.7334,3.7334,3.7297,3.7259,3.7297,3.7297,3.7182,3.6995,3.6443,3.584,3.5265,3.4499,3.374,3.3277,3.3037,3.3005,3.2975,3.3024,3.3104,3.3183,3.3262,3.3304,3.3364,3.3364,3.3393,3.3393,3.3393,3.3393,3.3422,3.3452,3.3452,3.3452,3.3325,3.3154,3.2736,3.231,3.1465,3.0709,3.0771,3.1133,4.5439,4.5993,4.601,4.6051,4.6236,4.6397,4.6599,4.6844,4.7106,4.707,4.6811,4.637,4.5821,4.551,4.5458,4.5476,4.5615,4.5736,4.5889,4.604,4.614,4.6189,4.6189,4.6189,4.6189,4.6189,4.627,4.6301,4.635,4.635,4.6398,4.6447,4.6447,4.659,4.6731,4.6778,4.6824,4.6873,4.5428,4.4618,4.4173,4.2878,4.2292,4.2072,4.2072,4.2072,4.2072,4.2139,4.2163,4.2163,4.2205,4.221,4.2175,4.2169,4.2145,4.2145,4.2038,4.1801,4.1245,4.0801,4.0121,3.9341,3.8773,3.8581,3.7869,3.7674,3.7496,3.7445,3.7392,3.7392,3.7372,3.7372,3.741,3.741,3.741,3.7372,3.7354,3.7372,3.741,3.7429,3.741,3.7372,3.7135,3.6738,3.6274,3.5829,3.5132,3.4288,3.3839,3.3491,3.3265,3.3212,3.3242,3.3286,3.331,3.3388,3.3382,3.3364,3.3393,3.3422,3.3422,3.3452,3.3452,3.3481,3.3509,3.3509,3.3538,3.3447,3.3302,3.2784,3.2283,3.1928,3.1498,3.1506,3.1722,4.5138,4.5094,4.5111,4.5538,4.6079,4.6152,4.651,4.6937,4.7249,4.6945,4.6344,4.5765,4.551,4.5423,4.5423,4.5476,4.5632,4.5736,4.5871,4.6023,4.6122,4.6189,4.6189,4.6189,4.6189,4.6221,4.6319,4.635,4.6429,4.6525,4.6542,4.6607,4.659,4.6684,4.6778,4.6824,4.687,4.6676,4.5374,4.4626,4.4153,4.3191,4.2299,4.2246,4.2246,4.2287,4.2287,4.2269,4.2228,4.2246,4.2287,4.2287,4.2251,4.2269,4.2228,4.2246,4.2246,4.2121,4.1907,4.1421,4.0713,4.0089,3.9661,3.9337,3.8732,3.8681,3.836,3.7914,3.7984,3.779,3.7718,3.7612,3.7717,3.7521,3.7503,3.7503,3.7503,3.7503,3.754,3.754,3.754,3.7484,3.7429,3.7069,3.6796,3.6368,3.5966,3.5155,3.4351,3.3963,3.3593,3.3422,3.3466,3.3491,3.3472,3.3538,3.3617,3.352,3.3411,3.3452,3.3481,3.3481,3.3509,3.3538,3.3595,3.3577,3.3605,3.355,3.3341,3.2739,3.2364,3.2354,3.2334,3.2324,3.2742,4.53,4.5264,4.5264,4.5312,4.5422,4.5514,4.574,4.5963,4.6143,4.6077,4.5748,4.5491,4.5423,4.5528,4.5528,4.5615,4.5821,4.5871,4.5972,4.6073,4.6172,4.6189,4.6189,4.6189,4.6189,4.6221,4.6368,4.6447,4.6542,4.6637,4.6778,4.6795,4.6731,4.6824,4.687,4.6888,4.6934,4.6569,4.5508,4.4617,4.426,4.3161,4.2287,4.2287,4.2287,4.2287,4.2287,4.2287,4.2287,4.2287,4.2287,4.2287,4.2287,4.2287,4.2287,4.2287,4.2287,4.2287,4.2287,4.193,4.1466,4.0735,4.0217,3.9807,3.9539,3.9486,3.9397,3.9129,3.8915,3.8719,3.838,3.8326,3.8255,3.7809,3.7684,3.7756,3.7827,3.7934,3.7773,3.7862,3.7702,3.7558,3.754,3.7487,3.7234,3.6945,3.6522,3.6025,3.5168,3.4587,3.4275,3.4204,3.4285,3.422,3.419,3.4081,3.3973,3.3803,3.3615,3.3655,3.3749,3.3567,3.3577,3.3605,3.3661,3.3661,3.3689,3.3698,3.3479,3.3149,3.3121,3.3248,3.3201,3.3107,3.3434,4.5423,4.5476,4.5476,4.53,4.514,4.5247,4.5283,4.5336,4.5511,4.5528,4.5528,4.5528,4.5581,4.5615,4.5684,4.577,4.5922,4.5972,4.6073,4.6122,4.6189,4.6189,4.6189,4.6239,4.6221,4.627,4.6398,4.6542,4.6684,4.6778,4.6888,4.6934,4.6934,4.6934,4.6934,4.6998,4.6998,4.6623,4.5561,4.4624,4.4392,4.3144,4.2305,4.2287,4.2287,4.2287,4.2287,4.2287,4.2287,4.2287,4.2287,4.2287,4.2287,4.2287,4.2287,4.2287,4.2287,4.2287,4.2287,4.2216,4.2037,4.1466,4.1092,4.0663,4.0342,4.0235,4.0146,3.9789,3.9789,3.97,3.9147,3.9111,3.904,3.8719,3.8668,3.8704,3.8667,3.8702,3.8381,3.8165,3.8023,3.7969,3.7594,3.7577,3.7469,3.7145,3.6646,3.6292,3.5899,3.5379,3.5193,3.5199,3.5358,3.524,3.5072,3.5024,3.4927,3.4757,3.4532,3.416,3.4108,3.3925,3.3734,3.3716,3.3744,3.3771,3.3798,3.3807,3.378,3.3698,3.3697,3.3658,3.371,3.3596,3.3739,4.539,4.5581,4.5511,4.5442,4.5268,4.5511,4.5563,4.5581,4.5718,4.5787,4.5718,4.5787,4.577,4.577,4.577,4.5871,4.5972,4.6023,4.6073,4.6172,4.6189,4.6189,4.6189,4.6221,4.6253,4.6398,4.6495,4.6655,4.6795,4.6888,4.6998,4.6998,4.698,4.698,4.6998,4.6998,4.6998,4.6748,4.5408,4.4757,4.425,4.3108,4.2412,4.2287,4.2287,4.2287,4.2287,4.2287,4.2287,4.2287,4.2287,4.2287,4.2287,4.2287,4.2287,4.2287,4.2287,4.2287,4.2287,4.2287,4.2198,4.2109,4.1734,4.1609,4.1199,4.102,4.0877,4.0556,4.0289,4.011,3.9932,3.9896,3.9825,3.9557,3.9473,3.9401,3.9328,3.9307,3.9004,3.8808,3.8719,3.854,3.7969,3.7631,3.7613,3.7308,3.6808,3.647,3.6363,3.6325,3.6161,3.6294,3.6421,3.6159,3.6023,3.5988,3.5903,3.5684,3.5403,3.502,3.4731,3.4595,3.433,3.4018,3.4211,3.4568,3.4246,3.3931,3.3913,3.3895,3.3895,3.3884,3.3998,3.4104,3.4216,4.404,4.4108,4.4141,4.419,4.4297,4.5319,4.5718,4.5718,4.5787,4.5838,4.5787,4.5787,4.5889,4.5922,4.5922,4.604,4.6122,4.6122,4.6189,4.6189,4.6189,4.6189,4.6189,4.6239,4.627,4.6381,4.6542,4.6702,4.6795,4.6934,4.698,4.6998,4.6998,4.6998,4.6998,4.6998,4.6998,4.6694,4.5517,4.4535,4.441,4.3179,4.2287,4.2287,4.2287,4.2287,4.2287,4.2287,4.2287,4.2287,4.2287,4.2287,4.2287,4.2287,4.2287,4.2287,4.2287,4.2287,4.2287,4.2287,4.2287,4.2287,4.2251,4.2144,4.1895,4.1877,4.168,4.1502,4.127,4.1092,4.086,4.0753,4.0538,3.9914,3.9738,3.9738,3.9738,3.9733,3.9605,3.9554,3.9504,3.9079,3.8562,3.7989,3.7846,3.7703,3.7238,3.7184,3.7113,3.7291,3.7324,3.7442,3.7486,3.7152,3.6958,3.6887,3.6644,3.6352,3.6115,3.5823,3.5572,3.5375,3.5349,3.5276,3.5358,3.5423,3.5061,3.467,3.4197,3.4049,3.437,3.4351,3.4328,3.4457,3.4561,4.3377,4.3475,4.3523,4.362,4.3777,4.4652,4.5209,4.5521,4.58,4.5939,4.5922,4.5922,4.5972,4.6023,4.6073,4.6073,4.6189,4.6189,4.6189,4.6189,4.6189,4.6189,4.6239,4.627,4.635,4.6477,4.659,4.6749,4.6906,4.6952,4.6998,4.6998,4.6998,4.6998,4.6998,4.6998,4.698,4.6551,4.5534,4.4589,4.4161,4.3286,4.2305,4.2287,4.2287,4.2287,4.2287,4.2287,4.2287,4.2287,4.2287,4.2287,4.2287,4.2287,4.2287,4.2287,4.2287,4.2287,4.2287,4.2287,4.2287,4.2287,4.2287,4.2287,4.2287,4.2198,4.2216,4.218,4.2287,4.2019,4.1573,4.1466,4.1217,4.061,4.0649,4.0667,4.0703,4.0749,4.057,4.0503,4.0221,3.9725,3.91,3.8563,3.8133,3.7936,3.7721,3.7775,3.781,3.788,3.7967,3.8034,3.8099,3.7849,3.7726,3.7752,3.7473,3.7089,3.6851,3.665,3.6476,3.6268,3.6417,3.6426,3.6224,3.6019,3.5866,3.5528,3.5299,3.5256,3.5429,3.5261,3.4809,3.4894,3.5152,4.3388,4.3598,4.3645,4.3623,4.3752,4.3728,4.4218,4.5098,4.5733,4.5996,4.6014,4.5909,4.5909,4.6067,4.6102,4.6119,4.6189,4.6189,4.6189,4.6189,4.6189,4.6189,4.6221,4.6301,4.6447,4.659,4.6749,4.6842,4.6998,4.6998,4.6998,4.6998,4.6998,4.6998,4.6998,4.6998,4.6998,4.6569,4.5517,4.4749,4.4285,4.3126,4.243,4.2287,4.2287,4.2287,4.2287,4.2287,4.2287,4.2287,4.2287,4.2287,4.2287,4.2287,4.2287,4.2287,4.2287,4.2287,4.2287,4.2287,4.2287,4.2287,4.2287,4.2287,4.2287,4.2287,4.2287,4.2287,4.2287,4.2287,4.218,4.2144,4.2091,4.1948,4.1948,4.1966,4.1984,4.1895,4.1645,4.1417,4.1078,4.0527,3.9707,3.9099,3.8833,3.8671,3.8543,3.831,3.8272,3.798,3.8065,3.8119,3.8234,3.8382,3.8319,3.8272,3.8242,3.7839,3.7741,3.7521,3.7364,3.7247,3.7312,3.7239,3.6859,3.666,3.6682,3.6684,3.6627,3.6601,3.6363,3.6213,3.5778,3.5825,3.61,4.198,4.2072,4.2181,4.2226,4.2359,4.2822,4.3506,4.4255,4.4501,4.4571,4.4553,4.4571,4.4975,4.5414,4.5431,4.5747,4.5979,4.6189,4.6189,4.6119,4.5926,4.6102,4.62,4.6209,4.6442,4.6554,4.6695,4.6817,4.6998,4.6998,4.6998,4.6998,4.6998,4.6998,4.6944,4.698,4.6908,4.648,4.5267,4.4749,4.4161,4.3036,4.2519,4.2287,4.2287,4.2287,4.2287,4.2287,4.2287,4.2287,4.2287,4.2287,4.2287,4.2287,4.2287,4.2287,4.2287,4.2287,4.2287,4.2287,4.2287,4.2287,4.2287,4.2287,4.2287,4.2328,4.2287,4.2287,4.2287,4.2287,4.2328,4.2328,4.2287,4.2287,4.2287,4.2305,4.2346,4.2257,4.2024,4.2016,4.1676,4.1264,4.0405,4.0073,3.9806,3.9606,3.9384,3.9148,3.8749,3.8434,3.818,3.8234,3.8318,3.8496,3.8546,3.8517,3.8634,3.864,3.8449,3.8332,3.8309,3.8247,3.8257,3.8118,3.7817,3.7702,3.7678,3.7667,3.7596,3.723,3.699,3.6915,3.6859,3.6881,3.7115,4.1426,4.1471,4.156,4.1604,4.1674,4.2131,4.2605,4.3044,4.3623,4.3886,4.3886,4.3921,4.4167,4.4553,4.4641,4.4817,4.5168,4.515,4.5168,4.515,4.5378,4.5203,4.5369,4.5587,4.5764,4.6081,4.6387,4.656,4.6801,4.6962,4.6998,4.6998,4.6998,4.6766,4.6587,4.6409,4.6248,4.5784,4.5124,4.4553,4.3804,4.2983,4.2501,4.2287,4.2287,4.2287,4.2287,4.2287,4.2287,4.2287,4.2287,4.2287,4.2287,4.2287,4.2287,4.2287,4.2287,4.2287,4.2287,4.2287,4.2287,4.2287,4.2287,4.2351,4.2351,4.2351,4.231,4.2287,4.2287,4.2287,4.2328,4.2328,4.2328,4.2287,4.2305,4.2382,4.2346,4.2369,4.2356,4.24,4.2167,4.1823,4.1417,4.1047,4.0727,4.0419,4.0249,4.0185,3.9549,3.8857,3.8542,3.8364,3.8496,3.8609,3.8658,3.8719,3.881,3.8881,3.881,3.8783,3.8989,3.899,3.8831,3.8819,3.8831,3.8721,3.8565,3.8507,3.8413,3.8079,3.8007,3.8199,3.812,3.7894,3.8241,4.1471,4.1604,4.1604,4.1604,4.1604,4.1657,4.1674,4.1745,4.3044,4.3676,4.3605,4.3658,4.3641,4.3799,4.3851,4.3957,4.422,4.4273,4.4325,4.3986,4.4284,4.4366,4.4442,4.4339,4.4997,4.5427,4.5677,4.59,4.6516,4.6516,4.6391,4.6801,4.6623,4.6266,4.5766,4.5713,4.5427,4.4767,4.45,4.4143,4.3536,4.284,4.2287,4.2287,4.2287,4.2287,4.2287,4.2287,4.2287,4.2287,4.2287,4.2287,4.2328,4.2369,4.2369,4.2369,4.2369,4.2369,4.2369,4.2369,4.2364,4.2346,4.2346,4.2391,4.2432,4.2409,4.2387,4.2369,4.2409,4.2409,4.2409,4.2468,4.2468,4.2427,4.2427,4.2445,4.2427,4.249,4.2552,4.2613,4.2619,4.2309,4.2204,4.1849,4.1869,4.1377,4.1081,4.1119,4.0726,3.9813,3.93,3.897,3.9013,3.9093,3.8792,3.8851,3.8939,3.8979,3.9055,3.9064,3.9175,3.9229,3.9309,3.9282,3.9271,3.9432,3.9368,3.9232,3.9142,3.9222,3.9245,3.9573,3.9463,3.8927,3.8987,4.156,4.1604,4.1604,4.1604,4.1604,4.1604,4.1604,4.1622,4.1955,4.2219,4.2184,4.2236,4.2535,4.3026,4.3061,4.3254,4.3676,4.3599,4.3898,4.3874,4.3885,4.3754,4.4127,4.4094,4.4502,4.4671,4.4885,4.5098,4.5374,4.5356,4.5231,4.5249,4.5338,4.5213,4.4946,4.491,4.4535,4.3804,4.3732,4.3679,4.334,4.2769,4.2287,4.2287,4.2287,4.2328,4.2328,4.2328,4.2287,4.2287,4.2287,4.2346,4.2463,4.2508,4.253,4.253,4.253,4.253,4.2512,4.253,4.2526,4.2539,4.2539,4.2548,4.253,4.2468,4.2486,4.2508,4.253,4.253,4.253,4.2588,4.2588,4.2588,4.2588,4.2548,4.253,4.2649,4.2765,4.2842,4.2918,4.2865,4.2794,4.285,4.292,4.2658,4.2249,4.2087,4.2013,4.1416,4.0665,4.0277,3.9907,3.9801,3.946,3.9211,3.9389,3.9305,3.9312,3.9346,3.9373,3.9413,3.9471,3.957,3.9628,3.9665,3.9708,3.9679,3.9683,3.9781,3.9804,3.9845,3.9924,3.9583,3.964,4.1604,4.1604,4.1604,4.1604,4.1604,4.1648,4.1692,4.1692,4.1754,4.1754,4.1754,4.1684,4.1868,4.2271,4.2271,4.2492,4.3012,4.2941,4.2943,4.3076,4.3297,4.3147,4.3315,4.3562,4.373,4.3924,4.4448,4.4652,4.45,4.4642,4.4696,4.4553,4.4553,4.441,4.4214,4.4071,4.375,4.3019,4.3019,4.3019,4.3019,4.2555,4.2287,4.2287,4.2287,4.2346,4.2405,4.2405,4.2427,4.2409,4.245,4.245,4.2548,4.257,4.2609,4.2649,4.2706,4.2688,4.2709,4.2727,4.2742,4.2717,4.2721,4.2747,4.2826,4.2806,4.2724,4.2745,4.2706,4.2667,4.2765,4.2804,4.2804,4.2765,4.2822,4.286,4.286,4.2899,4.2956,4.3031,4.3123,4.3178,4.3159,4.323,4.3345,4.3457,4.3098,4.3074,4.3015,4.2846,4.2129,4.1609,4.1285,4.0932,4.07,4.0328,3.9983,3.9858,3.975,3.9602,3.9608,3.9607,3.9623,3.9689,3.9735,3.9735,3.9781,3.9879,3.9864,3.9845,3.9867,3.9889,4.0044,4.0331,4.0482,4.1648,4.1604,4.1648,4.1648,4.1648,4.1736,4.1841,4.1823,4.1962,4.2005,4.1962,4.1754,4.1666,4.1648,4.1648,4.1736,4.1903,4.2203,4.2131,4.2164,4.2182,4.2445,4.2477,4.2359,4.2828,4.3315,4.3761,4.3957,4.4018,4.4018,4.4018,4.4285,4.4196,4.3982,4.3554,4.3304,4.3019,4.2608,4.2465,4.2435,4.2323,4.2287,4.2328,4.2328,4.2328,4.2387,4.2503,4.2544,4.2566,4.2627,4.2649,4.2688,4.2727,4.2765,4.2804,4.286,4.2899,4.2918,4.2938,4.2938,4.2917,4.2915,4.2918,4.2976,4.3105,4.3087,4.3031,4.2974,4.2936,4.2899,4.2975,4.3013,4.3013,4.3013,4.3068,4.3123,4.3123,4.3123,4.3142,4.3196,4.3304,4.3391,4.3495,4.3597,4.3744,4.3868,4.398,4.4079,4.4046,4.3807,4.3351,4.2987,4.2717,4.238,4.1838,4.1397,4.087,4.0802,4.0691,4.022,3.9835,3.9802,3.9769,3.9754,3.98,3.9879,3.9996,4.0132,4.006,4.0154,4.059,4.0858,4.0881,4.1149,4.1364,4.1841,4.1754,4.1736,4.1736,4.178,4.178,4.1841,4.1945,4.1987,4.2005,4.2005,4.1962,4.1902,4.1902,4.1902,4.1945,4.1927,4.1927,4.1995,4.2097,4.2079,4.2163,4.2205,4.2246,4.2376,4.2644,4.2876,4.2751,4.3161,4.3001,4.2804,4.2894,4.2858,4.2751,4.268,4.2537,4.2537,4.2328,4.2346,4.2346,4.2387,4.2387,4.2387,4.2387,4.2445,4.2526,4.2606,4.2685,4.2763,4.2783,4.2899,4.2974,4.3012,4.3031,4.3068,4.3087,4.3142,4.3142,4.316,4.3196,4.3178,4.3214,4.3231,4.3284,4.3355,4.3408,4.3375,4.3375,4.3304,4.3196,4.3232,4.325,4.325,4.3304,4.3358,4.3304,4.3304,4.3286,4.3286,4.3375,4.3479,4.3615,4.3749,4.3846,4.3923,4.4079,4.4165,4.4244,4.4306,4.4345,4.4393,4.4158,4.3912,4.3115,4.228,4.2201,4.1858,4.1832,4.1669,4.1189,4.0646,4.0046,3.9993,4.0333,4.0185,4.0113,4.0249,4.0745,4.084,4.1108,4.1692,4.2014,4.1946,4.205,4.2265]},{"header":{"parameterUnit":"m.s-1","parameterCategory":1,"la1":31.0,"la2":29.5877,"lo1":-88.7671,"lo2":-86.6584,"dy":0.0162,"dx":0.0185,"nx":115,"ny":88,"refTime":"2023-08-21T18:00:00:Z","depth":0,"parameterNumber":3,"parameterNumberName":"V-component_of_WINDS"},"data":[0.0,0.0,0.0,0.0,0.0,0.0,0.0,0.0,0.0,0.0,0.0,0.0,0.0,0.0,0.0,0.0,0.0,0.0,0.0,0.0,0.0,0.0,0.0,0.0,0.0,0.0,0.0,0.0,0.0,0.0,0.0,0.0,0.0,0.0,0.0,0.0,0.0,0.0,0.0,0.0,0.0,0.0,0.0,0.0,0.0,0.0,0.0,0.0,0.0,0.0,0.0,0.0,0.0,0.0,0.0,0.0,0.0,0.0,0.0,0.0,0.0,0.0,0.0,0.0,0.0,0.0,0.0,0.0,0.0,0.0,0.0,0.0,0.0,0.0,0.0,0.0,0.0,0.0,0.0,0.0,0.0,0.0,0.0,0.0,0.0,0.0,0.0,0.0,0.0,0.0,0.0,0.0,0.0,0.0,0.0,0.0,0.0,0.0,0.0,0.0,0.0,0.0,0.0,0.0,0.0,0.0,0.0,0.0,0.0,0.0,0.0,0.0,0.0,0.0,0.0,0.0,0.0,0.0,0.0,0.0,0.0,0.0,0.0,0.0,0.0,0.0,0.0,0.0,0.0,0.0,0.0,0.0,0.0,0.0,0.0,0.0,0.0,0.0,0.0,0.0,0.0,0.0,0.0,0.0,0.0,0.0,0.0,0.0,0.0,0.0,0.0,0.0,0.0,0.0,0.0,0.0,0.0,0.0,0.0,0.0,0.0,0.0,0.0,0.0,0.0,0.0,0.0,0.0,0.0,0.0,0.0,0.0,0.0,0.0,0.0,0.0,0.0,0.0,0.0,0.0,0.0,0.0,0.0,0.0,0.0,0.0,0.0,0.0,0.0,0.0,0.0,0.0,0.0,0.0,0.0,0.0,0.0,0.0,0.0,0.0,0.0,0.0,0.0,0.0,0.0,0.0,0.0,0.0,0.0,0.0,0.0,0.0,0.0,0.0,0.0,0.0,0.0,0.0,0.0,0.0,0.0,0.0,0.0,0.0,0.0,0.0,0.0,0.0,0.0,0.0,0.0,0.0,0.0,0.0,0.0,0.0,0.0,0.0,0.0,0.0,0.0,0.0,0.0,0.0,0.0,0.0,0.0,0.0,0.0,0.0,0.0,0.0,0.0,0.0,0.0,0.0,0.0,0.0,0.0,0.0,0.0,0.0,0.0,0.0,0.0,0.0,0.0,0.0,0.0,0.0,0.0,0.0,0.0,0.0,0.0,0.0,0.0,0.0,0.0,0.0,0.0,0.0,0.0,0.0,0.0,0.0,0.0,0.0,0.0,0.0,0.0,0.0,0.0,0.0,0.0,0.0,0.0,0.0,0.0,0.0,0.0,0.0,0.0,0.0,0.0,0.0,0.0,0.0,0.0,0.0,0.0,0.0,0.0,0.0,0.0,0.0,0.0,0.0,0.0,0.0,0.0,0.0,0.0,0.0,0.0,0.0,0.0,0.0,0.0,0.0,0.0,0.0,0.0,0.0,0.0,0.0,0.0,0.0,0.0,0.0,0.0,0.0,0.0,0.0,0.0,0.0,0.0,0.0,0.0,0.0,0.0,0.0,0.0,0.0,0.0,0.0,0.0,0.0,0.0,0.0,0.0,0.0,0.0,0.0,0.0,0.0,0.0,0.0,0.0,0.0,0.0,0.0,0.0,0.0,0.0,0.0,0.0,0.0,0.0,0.0,0.0,0.0,0.0,0.0,0.0,0.0,0.0,0.0,0.0,0.0,0.0,0.0,0.0,0.0,0.0,0.0,0.0,0.0,0.0,0.0,0.0,0.0,0.0,0.0,0.0,0.0,0.0,0.0,0.0,0.0,0.0,0.0,0.0,0.0,0.0,0.0,0.0,0.0,0.0,0.0,0.0,0.0,0.0,0.0,0.0,0.0,0.0,0.0,0.0,0.0,0.0,0.0,0.0,0.0,0.0,0.0,0.0,0.0,0.0,0.0,0.0,0.0,0.0,0.0,0.0,0.0,0.0,0.0,0.0,0.0,0.0,0.0,0.0,0.0,0.0,0.0,0.0,0.0,0.0,0.0,0.0,0.0,0.0,0.0,0.0,0.0,0.0,0.0,0.0,0.0,0.0,0.0,0.0,0.0,0.0,0.0,0.0,0.0,0.0,0.0,0.0,0.0,0.0,0.0,0.0,0.0,0.0,0.0,0.0,0.0,0.0,0.0,0.0,0.0,0.0,0.0,0.0,0.0,0.0,0.0,0.0,0.0,0.0,0.0,0.0,0.0,0.0,0.0,0.0,0.0,0.0,0.0,0.0,0.0,0.0,0.0,0.0,0.0,0.0,0.0,0.0,0.0,0.0,0.0,0.0,0.0,0.0,0.0,0.0,0.0,0.0,0.0,0.0,0.0,0.0,0.0,0.0,0.0,0.0,0.0,0.0,0.0,0.0,0.0,0.0,0.0,0.0,0.0,0.0,0.0,0.0,0.0,0.0,0.0,0.0,0.0,0.0,0.0,0.0,0.0,0.0,0.0,0.0,0.0,0.0,0.0,0.0,0.0,0.0,0.0,0.0,0.0,0.0,0.0,0.0,0.0,0.0,0.0,0.0,0.0,0.0,0.0,0.0,0.0,0.0,0.0,0.0,0.0,0.0,0.0,0.0,0.0,0.0,0.0,0.0,0.0,0.0,0.0,0.0,0.0,0.0,0.0,0.0,0.0,0.0,0.0,0.0,0.0,0.0,0.0,0.0,0.0,0.0,0.0,0.0,0.0,0.0,0.0,0.0,0.0,0.0,0.0,0.0,0.0,0.0,0.0,0.0,0.0,0.0,0.0,0.0,0.0,0.0,0.0,0.0,0.0,0.0,0.0,0.0,0.0,0.0,0.0,0.0,0.0,0.0,0.0,0.0,0.0,0.0,0.0,0.0,0.0,0.0,0.0,0.0,0.0,0.0,0.0,0.0,0.0,0.0,0.0,0.0,0.0,0.0,0.0,0.0,0.0,0.0,0.0,0.0,0.0,0.0,0.0,0.0,0.0,0.0,0.0,0.0,0.0,0.0,0.0,0.0,0.0,0.0,0.0,0.0,0.0,0.0,0.0,0.0,0.0,0.0,0.0,0.0,0.0,0.0,0.0,0.0,0.0,0.0,0.0,0.0,0.0,0.0,0.0,0.0,0.0,0.0,0.0,0.0,0.0,0.0,0.0,0.0,0.0,0.0,0.0,0.0,0.0,0.0,0.0,0.0,0.0,0.0,0.0,0.0,0.0,0.0,0.0,0.0,0.0,0.0,0.0,0.0,0.0,0.0,0.0,0.0,0.0,0.0,0.0,0.0,0.0,0.0,0.0,0.0,0.0,0.0,0.0,0.0,0.0,0.0,0.0,0.0,0.0,0.0,0.0,0.0,0.0,0.0,0.0,0.0,0.0,0.0,0.0,0.0,0.0,0.0,0.0,0.0,0.0,0.0,0.0,0.0,0.0,0.0,0.0,0.0,0.0,0.0,0.0,0.0,0.0,0.0,0.0,0.0,0.0,0.0,0.0,0.0,0.0,0.0,0.0,0.0,0.0,0.0,0.0,0.0,0.0,0.0,0.0,0.0,0.0,0.0,0.0,0.0,0.0,0.0,0.0,0.0,0.0,0.0,0.0,0.0,0.0,0.0,0.0,0.0,0.0,0.0,0.0,0.0,0.0,0.0,0.0,0.0,0.0,0.0,0.0,0.0,0.0,0.0,0.0,0.0,0.0,0.0,0.0,0.0,0.0,0.0,0.0,0.0,0.0,0.0,0.0,0.0,0.0,0.0,0.0,0.0,0.0,0.0,0.0,0.0,0.0,0.0,0.0,0.0,0.0,0.0,0.0,0.0,0.0,0.0,0.0,0.0,0.0,0.0,0.0,0.0,0.0,0.0,0.0,0.0,0.0,0.0,0.0,0.0,0.0,0.0,0.0,0.0,0.0,0.0,0.0,0.0,0.0,0.0,0.0,0.0,0.0,0.0,0.0,0.0,0.0,0.0,0.0,0.0,0.0,0.0,0.0,0.0,0.0,0.0,0.0,0.0,0.0,0.0,0.0,0.0,0.0,0.0,0.0,0.0,0.0,0.0,0.0,0.0,0.0,0.0,0.0,0.0,0.0,0.0,0.0,0.0,0.0,0.0,0.0,0.0,0.0,0.0,0.0,0.0,0.0,0.0,0.0,0.0,0.0,0.0,0.0,0.0,0.0,0.0,0.0,0.0,0.0,0.0,0.0,0.0,0.0,0.0,0.0,0.0,0.0,0.0,0.0,0.0,0.0,0.0,0.0,0.0,0.0,0.0,0.0,-0.0964,0.0,0.0,0.0,0.0,0.0,0.0,0.0,0.0,0.0,0.0,0.0,0.0,0.0,0.0,0.0,0.0,0.0,0.0,0.0,0.0,0.0,0.0,0.0,0.0,0.0,0.0,0.0,0.0,0.0,0.0,0.0,0.0,0.0,0.0,0.0,0.0,0.0,0.0,0.0,0.0,0.0,0.0,0.0,0.0,0.0,0.0,0.0,0.0,0.0,0.0,0.0,0.0,0.0,0.0,0.0,0.0,0.0,0.0,0.0,0.0,0.0,0.0,0.0,0.0,0.0,0.0,0.0,0.0,0.0,0.0,0.0,0.0,0.0,0.0,0.0,0.0,0.0,0.0,0.0,0.0,0.0,0.0,0.0,0.0,0.0,0.0,0.0,0.0,0.0,0.0,0.0,0.0,0.0,0.0,0.0,0.0,0.0,0.0,0.0,0.0,0.0,0.0,0.0,0.0,0.0,0.0,0.0,0.0,0.0,0.0,-0.1524,-0.1389,-0.1291,-0.1157,-0.1062,0.0,0.0,0.0,0.0,0.0,0.0,0.0,0.0,0.0,0.0,0.0,0.0,0.0,0.0,0.0,0.0,0.0,0.0,0.0,0.0,0.0,0.0,0.0,0.0,0.0,0.0,0.0,0.0,0.0,0.0,0.0,0.0,0.0,0.0,0.0,0.0,0.0,0.0,0.0,0.0,0.0,0.0,0.0,0.0,0.0,0.0,0.0,0.0,0.0,0.0,0.0,0.0,0.0,0.0,0.0,0.0,0.0,0.0,0.0,0.0,0.0,0.0,0.0,0.0,0.0,0.0,0.0,0.0,0.0,0.0,0.0,0.0,0.0,0.0,0.0,0.0,0.0,0.0,0.0,0.0,0.0,0.0,0.0,0.0,0.0,0.0,0.0,0.0,0.0,0.0,0.0,0.0,0.0,0.0,0.0,0.0,0.0,0.0,0.0,0.0,0.0,0.0,0.0,0.0,0.0,0.0,0.0,0.0,0.0,0.0,0.0,0.0,-0.1304,-0.1208,-0.1102,0.0,0.0,0.0,0.0,0.0,0.0,0.0,0.0,0.0,0.0,0.0,0.0,0.0,0.0,0.0,0.0,0.0,0.0,0.0,0.0,0.0,0.0,0.0,0.0,0.0,0.0,0.0,0.0,0.0,0.0,0.0,0.0,0.0,0.0,0.0,0.0,0.0,0.0,0.0,0.0,0.0,0.0,0.0,0.0,0.0,0.0,0.0,0.0,0.0,0.0,0.0,0.0,0.0,0.0,0.0,0.0,0.0,0.0,0.0,0.0,0.0,0.0,0.0,0.0,0.0,0.0,0.0,0.0,0.0,0.0,0.0,0.0,0.0,0.0,0.0,0.0,0.0,0.0,0.0,0.0,0.0,0.0,0.0,0.0,0.0,0.0,0.0,0.0,0.0,0.0,0.0,0.0,0.0,0.0,0.0,0.0,0.0,0.0,0.0,0.0,0.0,0.0,0.0,0.0,0.0,0.0,0.0,0.0,0.0,0.0,-0.1705,-0.1569,-0.1472,0.0,-0.1107,0.0,0.0,0.0,0.0,0.0,0.0,0.0,0.0,0.0,0.0,0.0,0.0,0.0,0.0,0.0,0.0,0.0,0.0,0.0,0.0,0.0,0.0,0.0,0.0,0.0,0.0,0.0,0.0,0.0,0.0,0.0,0.0,0.0,0.0,0.0,0.0,0.0,0.0,0.0,0.0,0.0,0.0,0.0,0.0,0.0,0.0,0.0,0.0,0.0,0.0,0.0,0.0,0.0,0.0,0.0,0.0,0.0,0.0,0.0,0.0,0.0,0.0,0.0,0.0,0.0,0.0,0.0,0.0,0.0,0.0,0.0,0.0,0.0,0.0,0.0,0.0,0.0,0.0,0.0,0.0,0.0,0.0,0.0,0.0,0.0,0.0,0.0,0.0,0.0,0.0,0.0,0.0,0.0,0.0,0.0,0.0,0.0,0.0,0.0,0.0,0.0,0.0,0.0,0.0,0.0,0.0,0.0,0.0,0.0,0.0,-0.1794,-0.1569,-0.1443,-0.1272,0.0,0.0,0.0,0.0,0.0,0.0,0.0,0.0,0.0,0.0,0.0,0.0,0.0,0.0,0.0,0.0,0.0,0.0,0.0,0.0,0.0,0.0,0.0,0.0,0.0,0.0,0.0,0.0,0.0,0.0,0.0,0.0,0.0,0.0,0.0,0.0,0.0,0.0,0.0,0.0,0.0,0.0,0.0,0.0,0.0,0.0,0.0,0.0,0.0,0.0,0.0,0.0,0.0,0.0,0.0,0.0,0.0,0.0,0.0,0.0,0.0,0.0,0.0,0.0,0.0,0.0,0.0,0.0,0.0,0.0,0.0,0.0,0.0,0.0,0.0,0.0,0.0,0.0,0.0,0.0,0.0,0.0,0.0,0.0,0.0,0.0,0.0,0.0,0.0,0.0,0.0,0.0,0.0,0.0,0.0,0.0,0.0,0.0,0.0,0.0,0.0,0.0,0.0,0.0,0.0,0.0,0.0,0.0,0.0,0.0,-0.2109,-0.193,-0.1657,-0.1478,-0.1361,-0.1305,0.0,0.0,0.0,0.0,0.0,0.0,0.0,0.0,0.0,0.0,0.0,0.0,0.0,0.0,0.0,0.0,0.0,0.0,0.0,0.0,0.0,0.0,0.0,0.0,0.0,0.0,0.0,0.0,0.0,0.0,0.0,0.0,0.0,0.0,0.0,0.0,0.0,0.0,0.0,0.0,0.0,0.0,0.0,0.0,0.0,0.0,0.0,0.0,0.0,0.0,0.0,0.0,0.0,0.0,0.0,0.0,0.0,0.0,0.0,0.0,0.0,0.0,0.0,0.0,0.0,0.0,0.0,0.0,0.0,0.0,0.0,0.0,0.0,0.0,0.0,0.0,0.0,0.0,0.0,0.0,0.0,0.0,0.0,0.0,0.0,0.0,0.0,0.0,0.0,0.0,0.0,0.0,0.0,0.0,0.0,0.0,0.0,0.0,0.0,0.0,0.0,0.0,0.0,0.0,0.0,0.0,0.0,0.0,-0.2277,-0.2241,-0.2064,-0.1794,-0.1655,-0.1535,0.0,0.0,0.0,0.0,0.0,0.0,0.0,0.0,0.0,0.0,0.0,0.0,0.0,0.0,0.0,0.0,0.0,0.0,0.0,0.0,0.0,0.0,0.0,0.0,0.0,0.0,0.0,0.0,0.0,0.0,0.0,0.0,0.0,0.0,0.0,0.0,0.0,0.0,0.0,0.0,0.0,0.0,0.0,0.0,0.0,0.0,0.0,0.0,0.0,0.0,0.0,0.0,0.0,0.0,0.0,0.0,0.0,0.0,0.0,0.0,0.0,0.0,0.0,0.0,0.0,0.0,0.0,0.0,0.0,0.0,0.0,0.0,0.0,0.0,0.0,0.0,0.0,0.0,0.0,0.0,0.0,0.0,0.0,0.0,0.0,0.0,0.0,0.0,0.0,0.0,0.0,0.0,0.0,0.0,0.0,0.0,0.0,0.0,0.0,0.0,0.0,0.0,0.0,0.0,0.0,0.0,0.0,0.0,0.0,-0.2413,-0.2194,-0.202,-0.193,-0.1794,-0.169,0.0,0.0,0.0,0.0,0.0,0.0,0.0,0.0,0.0,0.0,0.0,0.0,0.0,0.0,0.0,0.0,0.0,0.0,0.0,0.0,0.0,0.0,0.0,0.0,0.0,0.0,0.0,0.0,0.0,0.0,0.0,0.0,0.0,0.0,0.0,0.0,0.0,0.0,0.0,0.0,0.0,0.0,0.0,0.0,0.0,0.0,0.0,0.0,0.0,0.0,0.0,0.0,0.0,0.0,0.0,0.0,0.0,0.0,0.0,0.0,0.0,0.0,0.0,0.0,0.0,0.0,0.0,0.0,0.0,0.0,0.0,0.0,0.0,0.0,0.0,0.0,0.0,0.0,0.0,0.0,0.0,0.0,0.0,0.0,0.0,0.0,0.0,0.0,0.0,0.0,0.0,0.0,0.0,0.0,0.0,0.0,0.0,0.0,0.0,0.0,0.0,0.0,0.0,0.0,0.0,0.0,0.0,0.0,0.0,-0.2551,0.0,-0.2107,-0.2107,-0.1927,-0.1839,0.0,0.0,0.0,0.0,0.0,0.0,0.0,0.0,0.0,0.0,0.0,0.0,0.0,0.0,0.0,0.0,0.0,0.0,0.0,0.0,0.0,0.0,0.0,0.0,0.0,0.0,0.0,0.0,0.0,0.0,0.0,0.0,0.0,0.0,0.0,0.0,0.0,0.0,0.0,0.0,0.0,0.0,0.0,0.0,0.0,0.0,0.0,0.0,0.0,0.0,0.0,0.0,0.0,0.0,0.0,0.0,0.0,0.0,0.0,0.0,0.0,0.0,0.0,0.0,0.0,0.0,0.0,0.0,0.0,0.0,0.0,0.0,0.0,0.0,0.0,0.0,0.0,0.0,0.0,0.0,0.0,0.0,0.0,0.0,0.0,0.0,0.0,0.0,0.0,0.0,0.0,0.0,0.0,0.0,0.0,0.0,0.0,0.0,0.0,0.0,0.0,0.0,0.0,0.0,0.0,0.0,0.0,0.0,-0.2907,-0.2684,-0.246,-0.2281,-0.2281,-0.2105,-0.202,0.0,0.0,0.0,0.0,0.0,0.0,0.0,0.0,0.0,0.0,0.0,0.0,0.0,0.0,0.0,0.0,0.0,0.0,0.0,0.0,0.0,0.0,0.0,0.0,0.0,0.0,0.0,0.0,0.0,0.0,0.0,0.0,0.0,0.0,0.0,0.0,0.0,0.0,0.0,0.0,0.0,0.0,0.0,0.0,0.0,0.0,0.0,0.0,0.0,0.0,0.0,0.0,0.0,0.0,0.0,0.0,0.0,0.0,0.0,0.0,0.0,0.0,0.0,0.0,0.0,0.0,0.0,0.0,0.0,0.0,0.0,0.0,0.0,0.0,0.0,0.0,0.0,0.0,0.0,0.0,0.0,0.0,0.0,0.0,0.0,0.0,0.0,0.0,0.0,0.0,0.0,0.0,0.0,0.0,0.0,0.0,0.0,0.0,0.0,0.0,0.0,0.0,0.0,0.0,0.0,0.0,0.0,0.0,0.0,-0.2551,-0.2413,-0.2237,-0.2107,-0.2107,-0.2064,0.0,0.0,0.0,0.0,0.0,0.0,0.0,0.0,0.0,0.0,0.0,0.0,0.0,0.0,0.0,0.0,0.0,0.0,0.0,0.0,0.0,0.0,0.0,0.0,0.0,0.0,0.0,0.0,0.0,0.0,0.0,0.0,0.0,0.0,0.0,0.0,0.0,0.0,0.0,0.0,0.0,0.0,0.0,0.0,0.0,0.0,0.0,0.0,0.0,0.0,0.0,0.0,0.0,0.0,0.0,0.0,0.0,0.0,0.0,0.0,0.0,0.0,0.0,0.0,0.0,0.0,0.0,0.0,0.0,0.0,0.0,0.0,0.0,0.0,0.0,0.0,0.0,0.0,0.0,0.0,0.0,0.0,0.0,0.0,0.0,0.0,0.0,0.0,0.0,0.0,0.0,0.0,0.0,0.0,0.0,0.0,0.0,0.0,0.0,0.0,0.0,0.0,0.0,0.0,0.0,0.0,0.0,0.0,0.0,-0.2714,-0.2576,-0.239,-0.225,-0.2219,-0.2111,-0.1928,0.0,0.0,0.0,0.0,0.0,0.0,0.0,0.0,0.0,0.0,0.0,0.0,0.0,0.0,0.0,0.0,0.0,0.0,0.0,0.0,0.0,0.0,0.0,0.0,0.0,0.0,0.0,0.0,0.0,0.0,0.0,0.0,0.0,0.0,0.0,0.0,0.0,0.0,0.0,0.0,0.0,0.0,0.0,0.0,0.0,0.0,0.0,0.0,0.0,0.0,0.0,0.0,0.0,0.0,0.0,0.0,0.0,0.0,0.0,0.0,0.0,0.0,0.0,0.0,0.0,0.0,0.0,0.0,0.0,0.0,0.0,0.0,0.0,0.0,0.0,0.0,0.0,0.0,0.0,0.0,0.0,0.0,0.0,0.0,0.0,0.0,0.0,0.0,0.0,0.0,0.0,0.0,0.0,0.0,0.0,0.0,0.0,0.0,0.0,0.0,0.0,0.0,0.0,0.0,0.0,0.0,0.0,0.0,-0.3071,-0.2885,-0.2782,-0.2616,-0.2428,-0.2241,0.0,0.0,0.0,0.0,0.0,0.0,0.0,0.0,0.0,0.0,0.0,0.0,0.0,0.0,0.0,0.0,0.0,0.0,0.0,0.0,0.0,0.0,0.0,0.0,0.0,0.0,0.0,0.0,0.0,0.0,0.0,0.0,0.0,0.0,0.0,0.0,0.0,0.0,0.0,0.0,0.0,0.0,0.0,0.0,0.0,0.0,0.0,0.0,0.0,0.0,0.0,0.0,0.0,0.0,0.0,0.0,0.0,0.0,0.0,0.0,0.0,0.0,0.0,0.0,0.0,0.0,0.0,0.0,0.0,0.0,0.0,0.0,0.0,0.0,0.0,0.0,0.0,0.0,0.0,0.0,0.0,0.0,0.0,0.0,0.0,0.0,0.0,0.0,0.0,0.0,0.0,0.0,0.0,0.0,0.0,0.0,0.0,0.0,0.0,0.0,0.0,0.0,0.0,0.0,0.0,0.0,0.0,0.0,0.0,-0.3606,-0.3441,-0.3086,-0.2574,-0.2544,-0.2449,0.0,0.0,0.0,0.0,0.0,0.0,0.0,0.0,0.0,0.0,0.0,0.0,0.0,0.0,0.0,0.0,0.0,0.0,0.0,0.0,0.0,0.0,0.0,0.0,0.0,0.0,0.0,0.0,0.0,0.0,0.0,0.0,0.0,0.0,0.0,0.0,0.0,0.0,0.0,0.0,0.0,0.0,0.0,0.0,0.0,0.0,0.0,0.0,0.0,0.0,0.0,0.0,0.0,0.0,0.0,0.0,0.0,0.0,0.0,0.0,0.0,0.0,0.0,0.0,0.0,0.0,0.0,0.0,0.0,0.0,0.0,0.0,0.0,0.0,0.0,0.0,0.0,0.0,0.0,0.0,0.0,0.0,0.0,0.0,0.0,0.0,0.0,0.0,0.0,0.0,0.0,0.0,0.0,0.0,0.0,0.0,0.0,0.0,0.0,0.0,0.0,0.0,0.0,0.0,0.0,0.0,0.0,0.0,-0.407,-0.3899,-0.3874,-0.3569,-0.3056,-0.2805,-0.2585,0.0,0.0,0.0,0.0,0.0,0.0,0.0,0.0,0.0,0.0,0.0,0.0,0.0,0.0,0.0,0.0,0.0,0.0,0.0,0.0,0.0,0.0,0.0,0.0,0.0,0.0,0.0,0.0,0.0,0.0,0.0,0.0,0.0,0.0,0.0,0.0,0.0,0.0,0.0,0.0,0.0,0.0,0.0,0.0,0.0,0.0,0.0,0.0,0.0,0.0,0.0,0.0,0.0,0.0,0.0,0.0,0.0,0.0,0.0,0.0,0.0,0.0,0.0,0.0,0.0,0.0,0.0,0.0,0.0,0.0,0.0,0.0,0.0,0.0,0.0,0.0,0.0,0.0,0.0,0.0,0.0,0.0,0.0,0.0,0.0,0.0,0.0,0.0,0.0,0.0,0.0,0.0,0.0,0.0,0.0,0.0,0.0,0.0,0.0,0.0,0.0,0.0,0.0,0.0,0.0,0.0,0.0,0.0,-0.433,-0.4128,-0.419,-0.4135,-0.3849,-0.3204,-0.2837,0.0,0.0,0.0,0.0,0.0,0.0,0.0,0.0,0.0,0.0,0.0,0.0,0.0,0.0,0.0,0.0,0.0,0.0,0.0,0.0,0.0,0.0,0.0,0.0,0.0,0.0,0.0,0.0,0.0,0.0,0.0,0.0,0.0,0.0,0.0,0.0,0.0,0.0,0.0,0.0,0.0,0.0,0.0,0.0,0.0,0.0,0.0,0.0,0.0,0.0,0.0,0.0,0.0,0.0,0.0,0.0,0.0,0.0,0.0,0.0,0.0,0.0,0.0,0.0,0.0,0.0,0.0,0.0,0.0,0.0,0.0,0.0,0.0,0.0,0.0,0.0,0.0,0.0,0.0,0.0,0.0,0.0,0.0,0.0,0.0,0.0,0.0,0.0,0.0,0.0,0.0,0.0,0.0,0.0,0.0,0.0,0.0,0.0,0.0,0.0,0.0,0.0,0.0,0.0,0.0,0.0,0.0,0.0,-0.4918,-0.4842,-0.4688,-0.4522,-0.4353,-0.3776,-0.3334,0.0,0.0,0.0,0.0,0.0,0.0,0.0,0.0,0.0,0.0,0.0,0.0,0.0,0.0,0.0,0.0,0.0,0.0,0.0,0.0,0.0,0.0,0.0,0.0,0.0,0.0,0.0,0.0,0.0,0.0,0.0,0.0,0.0,0.0,0.0,0.0,0.0,0.0,0.0,0.0,0.0,0.0,0.0,0.0,0.0,0.0,0.0,0.0,-0.3398,0.0,0.0,0.0,0.0,0.0,0.0,0.0,0.0,0.0,0.0,0.0,0.0,0.0,0.0,0.0,0.0,0.0,0.0,0.0,0.0,0.0,0.0,0.0,0.0,0.0,0.0,0.0,0.0,0.0,0.0,0.0,0.0,0.0,0.0,0.0,0.0,0.0,0.0,0.0,0.0,0.0,0.0,0.0,0.0,0.0,0.0,0.0,0.0,0.0,0.0,0.0,0.0,0.0,0.0,0.0,0.0,0.0,0.0,0.0,-0.543,-0.5336,-0.5018,-0.4853,-0.4794,-0.4356,-0.3929,0.0,0.0,0.0,0.0,0.0,0.0,0.0,0.0,0.0,0.0,0.0,0.0,0.0,0.0,0.0,0.0,0.0,0.0,0.0,0.0,0.0,0.0,0.0,0.0,0.0,0.0,0.0,0.0,0.0,0.0,0.0,0.0,0.0,0.0,0.0,0.0,0.0,0.0,0.0,0.0,0.0,0.0,0.0,0.0,0.0,0.0,0.0,0.0,0.0,0.0,0.0,0.0,0.0,0.0,0.0,0.0,0.0,0.0,0.0,0.0,0.0,0.0,0.0,0.0,0.0,0.0,0.0,0.0,0.0,0.0,0.0,0.0,0.0,0.0,0.0,0.0,0.0,0.0,0.0,0.0,0.0,0.0,0.0,0.0,0.0,0.0,0.0,0.0,0.0,0.0,0.0,0.0,0.0,0.0,0.0,0.0,0.0,0.0,0.0,0.0,0.0,0.0,0.0,0.0,0.0,0.0,0.0,-0.5937,-0.5937,-0.5723,-0.5399,-0.5234,-0.5179,-0.4908,-0.4515,-0.4009,0.0,0.0,0.0,0.0,0.0,0.0,0.0,0.0,0.0,0.0,0.0,0.0,0.0,0.0,0.0,0.0,0.0,0.0,0.0,0.0,0.0,0.0,0.0,0.0,0.0,0.0,0.0,0.0,0.0,0.0,0.0,0.0,0.0,0.0,0.0,0.0,0.0,0.0,-0.5005,-0.5154,0.0,0.0,0.0,0.0,0.0,0.0,0.0,0.0,-0.3394,0.0,0.0,0.0,0.0,0.0,0.0,0.0,0.0,0.0,0.0,0.0,0.0,0.0,0.0,0.0,0.0,0.0,0.0,0.0,0.0,0.0,0.0,0.0,0.0,0.0,0.0,0.0,0.0,0.0,0.0,0.0,0.0,0.0,0.0,0.0,0.0,0.0,0.0,0.0,0.0,0.0,0.0,0.0,0.0,0.0,0.0,0.0,0.0,0.0,0.0,0.0,0.0,0.0,0.0,0.0,0.0,-0.6196,-0.6556,-0.6568,-0.6273,-0.6,-0.5782,-0.5668,-0.5348,-0.5117,-0.491,0.0,0.0,0.0,0.0,0.0,0.0,0.0,0.0,0.0,0.0,0.0,0.0,0.0,0.0,0.0,0.0,0.0,0.0,0.0,0.0,0.0,0.0,0.0,0.0,0.0,0.0,0.0,0.0,0.0,0.0,0.0,0.0,0.0,0.0,0.0,0.0,0.0,0.0,0.0,-0.5453,-0.5673,0.0,0.0,0.0,0.0,0.0,0.0,0.0,0.0,-0.3129,0.0,0.0,0.0,0.0,0.0,0.0,0.0,0.0,0.0,0.0,0.0,0.0,0.0,0.0,0.0,0.0,0.0,0.0,0.0,0.0,0.0,0.0,0.0,0.0,0.0,0.0,0.0,0.0,0.0,0.0,0.0,0.0,0.0,0.0,0.0,0.0,0.0,0.0,0.0,0.0,0.0,0.0,0.0,0.0,0.0,0.0,0.0,0.0,0.0,0.0,0.0,0.0,0.0,0.0,0.0,-0.665,-0.701,-0.7085,-0.6761,-0.6381,-0.6164,-0.6109,-0.5837,-0.5622,0.0,0.0,0.0,0.0,0.0,0.0,0.0,0.0,0.0,0.0,0.0,0.0,0.0,0.0,0.0,0.0,0.0,0.0,0.0,0.0,0.0,0.0,0.0,0.0,0.0,0.0,0.0,0.0,0.0,0.0,0.0,0.0,0.0,0.0,0.0,0.0,0.0,0.0,0.0,0.0,-0.5729,-0.5768,-0.5866,0.0,0.0,0.0,0.0,0.0,0.0,-0.3752,-0.3422,0.0,0.0,0.0,0.0,0.0,0.0,0.0,0.0,0.0,0.0,0.0,0.0,0.0,0.0,0.0,0.0,0.0,0.0,0.0,0.0,0.0,0.0,0.0,0.0,0.0,0.0,0.0,0.0,0.0,0.0,0.0,0.0,0.0,0.0,0.0,0.0,0.0,0.0,0.0,0.0,0.0,0.0,0.0,0.0,0.0,0.0,0.0,0.0,0.0,0.0,0.0,0.0,0.0,0.0,0.0,-0.7026,-0.7471,-0.7515,-0.7192,-0.6815,-0.6598,-0.6544,-0.6273,-0.6109,0.0,0.0,0.0,0.0,0.0,0.0,0.0,0.0,0.0,0.0,0.0,0.0,0.0,0.0,0.0,0.0,0.0,0.0,0.0,0.0,0.0,0.0,0.0,0.0,0.0,0.0,0.0,0.0,0.0,0.0,0.0,0.0,0.0,0.0,0.0,0.0,0.0,0.0,0.0,0.0,0.0,-0.5908,-0.5982,-0.578,0.0,0.0,0.0,0.0,-0.4565,-0.4168,0.0,0.0,0.0,0.0,0.0,0.0,0.0,0.0,0.0,0.0,0.0,0.0,0.0,0.0,0.0,0.0,0.0,0.0,0.0,0.0,0.0,0.0,0.0,0.0,0.0,0.0,0.0,0.0,0.0,0.0,0.0,0.0,0.0,0.0,0.0,0.0,0.0,0.0,0.0,0.0,0.0,0.0,0.0,0.0,0.0,0.0,0.0,0.0,0.0,0.0,0.0,0.0,0.0,0.0,0.0,0.0,-0.7465,-0.8037,-0.8049,-0.7616,-0.7359,-0.7149,-0.7031,-0.6761,-0.6539,0.0,0.0,0.0,0.0,0.0,0.0,0.0,0.0,0.0,0.0,0.0,0.0,0.0,0.0,0.0,0.0,0.0,0.0,0.0,0.0,0.0,0.0,0.0,0.0,0.0,0.0,0.0,0.0,0.0,0.0,0.0,0.0,0.0,0.0,0.0,0.0,0.0,0.0,0.0,0.0,0.0,-0.6232,-0.6197,-0.5962,-0.5764,0.0,0.0,-0.4911,-0.4618,-0.4271,0.0,0.0,0.0,0.0,0.0,0.0,0.0,0.0,0.0,0.0,0.0,0.0,0.0,0.0,0.0,0.0,0.0,0.0,0.0,0.0,0.0,0.0,0.0,0.0,0.0,0.0,0.0,0.0,0.0,0.0,0.0,0.0,0.0,0.0,0.0,0.0,0.0,0.0,0.0,0.0,0.0,0.0,0.0,0.0,0.0,0.0,0.0,0.0,0.0,0.0,0.0,0.0,0.0,0.0,0.0,-0.8365,-0.8141,-0.8371,-0.8362,-0.8002,-0.7681,-0.7515,-0.745,-0.7198,-0.6982,0.0,0.0,0.0,0.0,0.0,0.0,0.0,0.0,0.0,0.0,0.0,0.0,0.0,0.0,0.0,0.0,0.0,0.0,0.0,0.0,0.0,0.0,0.0,0.0,0.0,0.0,0.0,0.0,0.0,0.0,0.0,0.0,0.0,0.0,0.0,0.0,0.0,0.0,0.0,0.0,0.0,0.0,-0.6438,-0.6225,0.0,0.0,0.0,-0.5379,-0.5222,0.0,0.0,0.0,0.0,0.0,0.0,0.0,0.0,0.0,0.0,0.0,0.0,0.0,0.0,0.0,0.0,0.0,0.0,0.0,0.0,0.0,0.0,0.0,0.0,0.0,0.0,0.0,0.0,0.0,0.0,0.0,0.0,0.0,0.0,0.0,0.0,0.0,0.0,0.0,0.0,0.0,0.0,0.0,0.0,0.0,0.0,0.0,0.0,0.0,0.0,0.0,0.0,0.0,0.0,0.0,0.0,0.0,-0.877,-0.8792,-0.8679,-0.8328,-0.8049,-0.7836,-0.7729,-0.7521,0.0,0.0,0.0,0.0,0.0,0.0,0.0,0.0,0.0,0.0,0.0,0.0,0.0,0.0,0.0,0.0,0.0,0.0,0.0,0.0,0.0,0.0,0.0,0.0,0.0,0.0,0.0,-0.5938,0.0,0.0,0.0,0.0,0.0,0.0,0.0,0.0,0.0,0.0,0.0,0.0,0.0,0.0,-0.6365,-0.6534,-0.6391,-0.6228,0.0,0.0,-0.5791,-0.5677,-0.5289,-0.4849,0.0,0.0,0.0,0.0,0.0,0.0,0.0,0.0,0.0,0.0,0.0,0.0,0.0,0.0,0.0,0.0,0.0,0.0,0.0,0.0,0.0,0.0,0.0,0.0,0.0,0.0,0.0,0.0,0.0,0.0,0.0,0.0,0.0,0.0,0.0,0.0,0.0,0.0,0.0,0.0,0.0,0.0,0.0,0.0,0.0,0.0,0.0,0.0,0.0,0.0,0.0,0.0,0.0,0.0,0.0,-0.9153,-0.9307,-0.9159,-0.8758,-0.848,-0.8215,-0.7901,-0.7783,-0.7622,0.0,0.0,0.0,0.0,0.0,0.0,0.0,0.0,0.0,0.0,0.0,0.0,0.0,0.0,0.0,0.0,0.0,0.0,0.0,0.0,0.0,0.0,0.0,0.0,0.0,0.0,0.0,0.0,0.0,0.0,0.0,0.0,0.0,0.0,0.0,0.0,0.0,0.0,0.0,0.0,0.0,-0.6362,-0.6263,-0.6327,-0.6332,0.0,0.0,-0.595,-0.5791,-0.5517,-0.5187,-0.4901,0.0,0.0,0.0,0.0,0.0,0.0,0.0,0.0,0.0,0.0,0.0,0.0,0.0,0.0,0.0,0.0,0.0,0.0,0.0,0.0,0.0,0.0,0.0,0.0,0.0,0.0,0.0,0.0,0.0,0.0,0.0,0.0,0.0,0.0,0.0,0.0,0.0,0.0,0.0,0.0,0.0,0.0,0.0,0.0,0.0,0.0,0.0,0.0,0.0,0.0,0.0,0.0,0.0,-0.9708,-0.9555,-0.9563,-0.9316,-0.8903,-0.8745,-0.8533,-0.8315,-0.8209,-0.8096,0.0,0.0,0.0,0.0,0.0,0.0,0.0,0.0,0.0,0.0,0.0,0.0,0.0,0.0,0.0,0.0,0.0,0.0,0.0,0.0,0.0,0.0,0.0,0.0,0.0,0.0,0.0,0.0,-0.7074,-0.688,-0.6465,0.0,0.0,0.0,0.0,0.0,0.0,0.0,0.0,0.0,0.0,-0.644,-0.65,-0.644,0.0,0.0,-0.6381,-0.6223,-0.6168,-0.595,-0.5677,-0.55,-0.5289,0.0,0.0,0.0,0.0,0.0,0.0,0.0,0.0,0.0,0.0,0.0,0.0,0.0,0.0,0.0,0.0,0.0,0.0,0.0,0.0,0.0,0.0,0.0,0.0,0.0,0.0,0.0,0.0,0.0,0.0,0.0,0.0,0.0,0.0,0.0,0.0,0.0,0.0,0.0,0.0,0.0,0.0,0.0,0.0,0.0,0.0,0.0,0.0,0.0,0.0,0.0,0.0,-1.0102,-1.0007,-0.9836,-0.9517,-0.9113,-0.9015,-0.8798,-0.8573,-0.8521,-0.8421,0.0,0.0,0.0,0.0,0.0,0.0,0.0,0.0,0.0,0.0,0.0,0.0,0.0,0.0,0.0,0.0,0.0,0.0,0.0,0.0,0.0,0.0,0.0,0.0,0.0,0.0,0.0,0.0,-0.7467,-0.7163,-0.6624,0.0,0.0,0.0,0.0,0.0,0.0,0.0,0.0,0.0,0.0,-0.644,-0.6663,-0.6603,-0.6539,-0.6647,-0.6598,-0.649,-0.649,-0.6273,-0.6109,-0.5991,0.0,0.0,0.0,0.0,0.0,0.0,0.0,0.0,0.0,0.0,0.0,0.0,0.0,0.0,0.0,0.0,0.0,0.0,0.0,0.0,0.0,0.0,0.0,0.0,0.0,0.0,0.0,0.0,0.0,0.0,-0.7711,0.0,0.0,0.0,0.0,0.0,0.0,0.0,0.0,0.0,0.0,0.0,0.0,0.0,0.0,0.0,0.0,0.0,0.0,0.0,0.0,0.0,0.0,-1.047,-1.0462,-1.0154,-0.9792,-0.9413,-0.9256,-0.8995,-0.8633,-0.8573,-0.8521,-0.8421,0.0,0.0,0.0,0.0,0.0,0.0,0.0,0.0,0.0,0.0,0.0,0.0,0.0,0.0,0.0,0.0,0.0,0.0,0.0,0.0,0.0,0.0,0.0,0.0,0.0,0.0,-0.7615,-0.7437,-0.7228,0.0,0.0,0.0,0.0,0.0,0.0,0.0,0.0,0.0,0.0,-0.6322,-0.649,-0.6707,-0.6707,-0.6707,-0.6701,-0.6701,-0.6707,-0.6712,-0.6549,-0.6381,0.0,0.0,0.0,0.0,0.0,0.0,0.0,0.0,0.0,0.0,0.0,0.0,0.0,0.0,0.0,0.0,0.0,0.0,0.0,0.0,0.0,0.0,0.0,0.0,0.0,0.0,0.0,-0.9547,-0.916,0.0,0.0,0.0,0.0,0.0,0.0,0.0,0.0,0.0,0.0,0.0,-0.9078,-0.9266,0.0,0.0,0.0,0.0,0.0,0.0,0.0,0.0,0.0,0.0,0.0,0.0,-1.0565,-1.0462,-1.0205,-0.9836,-0.951,-0.9413,-0.9159,-0.8844,-0.8844,-0.8738,-0.8521,0.0,0.0,0.0,0.0,0.0,0.0,0.0,0.0,0.0,0.0,0.0,0.0,0.0,0.0,0.0,0.0,0.0,0.0,0.0,0.0,0.0,0.0,0.0,0.0,0.0,-0.7985,0.0,0.0,0.0,0.0,0.0,0.0,0.0,0.0,0.0,0.0,0.0,-0.6273,-0.6209,-0.6431,-0.6652,-0.6939,-0.6879,-0.6874,0.0,0.0,0.0,0.0,0.0,0.0,0.0,0.0,0.0,0.0,0.0,0.0,0.0,0.0,-0.5183,-0.4636,-0.4522,-0.4411,-0.4135,0.0,0.0,0.0,0.0,0.0,0.0,0.0,0.0,0.0,0.0,0.0,0.0,0.0,0.0,-1.0193,0.0,-0.9434,0.0,0.0,0.0,0.0,0.0,0.0,0.0,0.0,-0.8984,-0.9201,-0.9557,-0.9737,-1.0024,0.0,-1.0755,-1.0989,0.0,0.0,0.0,0.0,0.0,0.0,0.0,0.0,-1.0777,-1.0616,-1.0308,-0.9999,-0.9673,-0.9569,-0.9368,-0.9008,-0.8956,-0.885,-0.8738,-0.8685,-0.8639,0.0,0.0,0.0,0.0,0.0,0.0,0.0,0.0,0.0,0.0,0.0,0.0,0.0,0.0,0.0,0.0,0.0,0.0,0.0,0.0,0.0,0.0,0.0,-0.8378,0.0,0.0,0.0,0.0,0.0,0.0,0.0,0.0,0.0,-0.6564,-0.649,-0.649,-0.6376,-0.6598,-0.6815,-0.7047,0.0,0.0,0.0,0.0,0.0,0.0,0.0,-0.7612,-0.7833,-0.7623,-0.7333,-0.7065,-0.669,-0.6377,-0.6216,0.0,0.0,-0.5018,-0.4912,-0.4798,-0.4522,-0.4411,-0.4301,-0.4132,-0.4021,-0.3916,0.0,0.0,0.0,0.0,0.0,0.0,0.0,0.0,-1.0753,-1.0357,0.0,-0.9719,0.0,0.0,0.0,0.0,0.0,-0.9453,0.0,0.0,-0.9434,-0.9493,-0.9818,-0.9935,-1.0418,-1.1114,-1.1316,-1.1715,-1.229,-1.1733,0.0,0.0,0.0,0.0,0.0,0.0,-1.1057,-1.0929,-1.0672,-1.0296,-0.9896,-0.9836,-0.9568,-0.9029,-0.893,-0.8877,-0.9029,-0.893,-0.8831,-0.8844,-0.9166,0.0,0.0,0.0,0.0,0.0,0.0,0.0,0.0,0.0,0.0,0.0,0.0,0.0,0.0,0.0,0.0,0.0,0.0,0.0,0.0,-0.8633,0.0,0.0,0.0,0.0,0.0,0.0,0.0,0.0,0.0,0.0,-0.6903,-0.6797,-0.6727,-0.6727,0.0,0.0,0.0,0.0,-0.7513,-0.7688,-0.7941,-0.8145,-0.8274,-0.8269,-0.8333,-0.8286,0.0,0.0,-0.7509,-0.7085,-0.682,-0.6649,-0.642,-0.6055,-0.5458,-0.5238,-0.5124,-0.4952,-0.4849,-0.4743,-0.4691,-0.4574,-0.4463,-1.5081,0.0,0.0,0.0,0.0,-1.3185,-1.2839,-1.2489,-1.2009,-1.1457,-1.0916,-1.0732,0.0,0.0,0.0,0.0,0.0,0.0,-1.0409,-1.0623,-1.0836,-1.1177,-1.1516,-1.1588,-1.1826,-1.2312,-1.2508,-1.2814,-1.3209,-1.3284,-1.2923,-1.2233,0.0,0.0,0.0,0.0,-1.1747,-1.1638,-1.1256,-1.0926,-1.076,-1.0594,-1.0254,-0.9656,-0.9493,-0.9439,-0.9493,-0.9439,-0.9542,-0.982,-0.9804,0.0,0.0,0.0,0.0,0.0,0.0,0.0,0.0,0.0,0.0,0.0,0.0,0.0,0.0,0.0,0.0,0.0,0.0,0.0,-0.8646,-0.8769,-0.8783,0.0,0.0,0.0,0.0,0.0,0.0,0.0,0.0,0.0,-0.808,-0.7827,-0.7459,0.0,0.0,-0.7821,-0.7931,-0.7941,-0.7927,-0.8096,-0.8217,0.0,-0.852,-0.8604,-0.8606,-0.8771,-0.8663,-0.8482,-0.836,-0.7974,-0.7639,-0.7302,-0.6992,-0.6621,-0.6201,-0.5891,-0.5727,-0.5559,-0.5344,-0.5132,-0.5018,-0.4849,-0.4791,-1.7042,-1.6158,-1.5455,-1.5241,-1.5251,-1.4731,-1.4345,-1.4095,-1.3517,-1.2914,-1.232,-1.1869,-1.1495,-1.117,-1.117,0.0,0.0,0.0,-1.1312,-1.1502,-1.1685,-1.1942,-1.2316,-1.2398,-1.2601,-1.2938,-1.3148,-1.3341,-1.3584,-1.3924,-1.3793,-1.3141,0.0,0.0,-1.2637,-1.2251,-1.2064,-1.2008,-1.1616,-1.1334,-1.1107,-1.0872,-1.0549,-1.0246,-1.0072,-1.0023,-1.0079,-1.0023,-1.0052,-1.0229,-1.0429,-1.0574,0.0,0.0,0.0,0.0,0.0,0.0,0.0,0.0,0.0,0.0,0.0,-0.8504,-0.8561,0.0,0.0,0.0,-0.9136,-0.9177,-0.9048,-0.9144,0.0,0.0,0.0,0.0,0.0,0.0,0.0,-0.8974,-0.9181,-0.9248,-0.9248,-0.9053,-0.8523,-0.7457,-0.7946,-0.8457,-0.8757,0.0,-0.8477,-0.8705,-0.88,-0.893,-0.9089,-0.9119,-0.9109,-0.9116,-0.9024,-0.8862,-0.8788,-0.8533,-0.8252,-0.7982,-0.7627,-0.7284,-0.6975,-0.6663,-0.6322,-0.6046,-0.5778,-0.5618,-0.5563,-0.5449,-0.5391,-1.8728,-1.866,-1.7389,-1.6983,-1.7028,-1.6473,-1.6132,-1.5921,-1.5133,-1.4537,-1.4079,-1.315,-1.2546,-1.2265,-1.206,0.0,-1.1991,-1.2081,-1.2164,-1.2225,-1.2185,-1.2336,-1.2542,-1.2687,-1.2968,-1.3316,-1.3444,-1.3624,-1.3795,-1.413,-1.4222,-1.4156,-1.3802,-1.3451,-1.3065,-1.251,-1.2203,-1.2091,-1.189,-1.1598,-1.1184,-1.0897,-1.0768,-1.0845,-1.0624,-1.0573,-1.0688,-1.0573,-1.0458,-1.0466,-1.1123,-1.1419,-1.1422,0.0,0.0,0.0,0.0,0.0,0.0,0.0,0.0,0.0,0.0,0.0,0.0,0.0,0.0,0.0,-0.9699,0.0,-0.9744,-0.9655,0.0,0.0,0.0,-0.9498,-0.9768,-0.9714,-0.9742,-1.0021,0.0,0.0,-1.0364,-1.0281,-0.9812,-0.8652,-0.8681,-0.902,-0.9525,-0.9296,-0.9106,-0.9408,-0.9687,-0.9798,-0.9773,-0.9716,-0.9652,-0.9338,-0.9332,-0.9262,-0.9064,-0.8903,-0.8759,-0.8684,-0.8305,-0.7858,-0.7728,-0.7356,-0.6972,-0.6426,-0.6263,-0.6209,-0.6154,-0.6154,-0.61,-2.0175,-2.0194,-1.9637,-1.8789,-1.7794,-1.7442,-1.6968,-1.6473,-1.5703,-1.5246,-1.5072,-1.4426,-1.3978,-1.3693,-1.3465,-1.3314,-1.3329,-1.3441,-1.3623,-1.3778,-1.4022,-1.4283,-1.4449,-1.4366,-1.4441,-1.4832,-1.4757,-1.4906,-1.5225,-1.5289,-1.5221,-1.4968,-1.4964,-1.4616,-1.3845,-1.3149,-1.2794,-1.2786,-1.2494,-1.2245,-1.2003,-1.1821,-1.1639,-1.144,-1.1373,-1.1314,-1.1373,-1.1314,-1.1368,-1.1533,-1.1767,-1.2035,-1.2171,-1.2157,0.0,0.0,0.0,0.0,0.0,0.0,0.0,0.0,0.0,-0.996,-1.002,0.0,-1.0377,0.0,-1.0107,-1.0034,-0.9918,-1.0071,0.0,0.0,-1.0153,-1.0312,-1.0392,-1.0385,-1.0418,-1.0491,-1.0618,-1.0681,-1.0681,-1.08,-1.0815,-1.054,-1.003,-0.9931,-1.0456,-1.0177,-0.9958,-1.0077,-1.0129,-1.0117,-0.9983,-0.9862,-0.974,-0.9478,-0.9472,-0.9414,-0.9414,-0.9296,-0.9127,-0.8865,-0.8526,-0.8137,-0.7881,-0.7631,-0.7371,-0.7192,-0.6761,-0.6381,-0.6381,-0.6268,-0.6209,-2.2014,-2.2091,-2.1794,-2.1126,-2.0259,-1.9151,-1.834,-1.7815,-1.7151,-1.6702,-1.6294,-1.547,-1.4801,-1.4375,-1.429,-1.4276,-1.4216,-1.4258,-1.4271,-1.4424,-1.4672,-1.4832,-1.4987,-1.4995,-1.515,-1.5389,-1.5381,-1.551,-1.5847,-1.5922,-1.5871,-1.5596,-1.5627,-1.5257,-1.4467,-1.383,-1.3457,-1.3457,-1.2979,-1.2648,-1.2498,-1.2375,-1.2219,-1.2033,-1.1964,-1.1896,-1.1896,-1.1896,-1.1989,-1.2174,-1.2367,-1.2506,-1.2784,-1.2805,-1.2821,0.0,0.0,0.0,0.0,0.0,0.0,0.0,0.0,0.0,0.0,0.0,-1.1114,-1.0944,-1.0888,-1.0728,-1.0615,-1.0702,-1.0746,-1.0623,-1.0774,-1.0933,-1.0933,-1.1052,-1.1122,-1.1122,-1.131,-1.1365,-1.1373,-1.1351,-1.1421,-1.156,-1.1115,-1.0793,-1.0877,-1.0694,-1.0568,-1.0674,-1.0618,-1.0428,-1.0174,-0.9989,-0.9868,-0.9734,-0.9734,-0.9734,-0.9734,-0.9606,-0.9482,-0.9268,-0.8823,-0.8416,-0.819,-0.7865,-0.7574,-0.7467,-0.7198,-0.6869,-0.682,-0.6707,-0.6701,-2.3865,-2.3775,-2.3646,-2.3405,-2.308,-2.1115,-2.0093,-1.9608,-1.8932,-1.8231,-1.7499,-1.6436,-1.5565,-1.501,-1.4987,-1.5038,-1.5038,-1.4825,-1.4747,-1.4747,-1.4967,-1.5038,-1.5038,-1.5366,-1.5522,-1.5599,-1.5739,-1.5947,-1.6061,-1.63,-1.6355,-1.6218,-1.6041,-1.5666,-1.5068,-1.4622,-1.4263,-1.3974,-1.334,-1.2981,-1.2951,-1.2881,-1.2819,-1.2827,-1.2585,-1.2491,-1.2491,-1.2452,-1.2436,-1.2653,-1.2752,-1.3005,-1.33,-1.3432,-1.3571,0.0,-1.3744,0.0,0.0,0.0,0.0,0.0,0.0,0.0,0.0,-1.1677,-1.1685,-1.1747,-1.1685,-1.1622,-1.149,-1.1428,-1.1435,-1.131,-1.1365,-1.1428,-1.1428,-1.1677,-1.1872,-1.1864,-1.1996,-1.2065,-1.2065,-1.1841,-1.1772,-1.1988,-1.1864,-1.16,-1.1337,-1.1185,-1.1206,-1.1296,-1.0989,-1.0681,-1.0428,-1.0174,-1.0047,-1.0047,-0.9983,-0.9989,-0.9989,-0.9926,-0.9804,-0.9748,-0.9218,-0.8745,-0.8563,-0.8137,-0.7741,-0.7574,-0.7521,-0.7467,-0.7311,-0.7257,-0.7311,-2.4025,-2.3775,-2.3785,-2.3625,-2.3363,-2.2785,-2.216,-2.1337,-2.0154,-1.9003,-1.7935,-1.7632,-1.7313,-1.6846,-1.6508,-1.6377,-1.6296,-1.5978,-1.5889,-1.6044,-1.6044,-1.6199,-1.6369,-1.6288,-1.6288,-1.6458,-1.6532,-1.6549,-1.6653,-1.6904,-1.6961,-1.674,-1.6888,-1.6638,-1.6058,0.0,0.0,0.0,-1.3629,-1.3639,-1.3941,-1.3933,-1.3876,-1.3868,-1.3572,0.0,-1.3337,-1.3013,-1.2867,-1.2867,-1.3094,0.0,0.0,0.0,0.0,0.0,0.0,0.0,0.0,0.0,0.0,0.0,-1.4112,-1.3469,-1.2422,-1.2359,-1.2367,-1.2305,-1.2297,-1.2297,-1.2297,-1.2297,-1.2236,-1.2228,-1.2182,-1.212,-1.2112,-1.2058,-1.2058,-1.2065,-1.2065,-1.2127,-1.2127,-1.2058,-1.205,-1.2243,-1.2321,-1.2243,-1.1943,-1.2088,-1.2056,-1.1637,-1.1247,-1.0933,-1.0624,-1.0504,-1.0428,-1.0301,-1.011,-1.0053,-1.0053,-0.9983,-0.9989,-0.9977,-0.9461,-0.9078,-0.8909,-0.8478,-0.8055,-0.7842,-0.7848,-0.7741,-0.7526,-0.7467,-0.7467,-2.499,0.0,-2.4734,-2.4662,0.0,-2.4157,-2.3742,-2.3126,-2.1723,-2.0421,-1.9239,-1.8915,-1.8588,-1.8096,-1.7668,-1.7415,-1.7247,-1.6923,-1.6746,-1.673,-1.6908,-1.7077,-1.7247,-1.7154,-1.7247,-1.7423,-1.7171,-1.707,-1.7294,-1.7291,-1.7254,-1.7192,-1.7261,-1.7071,-1.6478,-1.5971,-1.5215,-1.4142,-1.4117,-1.4171,-1.428,-1.4272,-1.4272,-1.4263,0.0,0.0,0.0,0.0,0.0,0.0,0.0,0.0,0.0,0.0,0.0,-1.496,-1.5339,-1.5449,-1.5196,-1.5387,-1.5357,-1.5098,-1.4911,-1.443,-1.3412,-1.3332,-1.3332,-1.3324,-1.3332,-1.326,-1.3052,-1.306,-1.2925,-1.2704,-1.2617,-1.2555,-1.2522,-1.2544,-1.249,-1.2552,-1.2552,-1.2552,-1.2552,-1.2405,-1.2413,-1.2613,-1.2846,-1.2923,-1.2613,-1.2591,-1.236,-1.17,-1.1373,-1.1122,-1.087,-1.0751,-1.0688,-1.0624,-1.0434,-1.0301,-1.0308,-1.0174,-1.0174,-1.0142,-0.9643,-0.9201,-0.9099,-0.8639,-0.8268,-0.8162,-0.8109,-0.8008,-0.7842,-0.7735,-0.7568,-2.5972,-2.5906,-2.5728,-2.5644,-2.5644,-2.52,-2.4786,-2.4402,0.0,0.0,0.0,-2.0059,-1.9504,-1.8981,-1.8551,-1.8205,-1.7945,-1.7707,-1.7525,-1.7239,-1.7437,-1.77,-1.7866,-1.7866,-1.7953,-1.8221,-1.7758,-1.7705,-1.8019,-1.7664,-1.7504,-1.7539,-1.7525,-1.7217,-1.6614,-1.593,-1.5235,-1.4779,-1.4858,-1.4857,-1.4681,-1.4664,-1.4664,-1.473,-1.453,-1.4496,-1.4735,-1.432,-1.4052,-1.4124,-1.4082,-1.4294,-1.4782,-1.5256,-1.5663,-1.5991,-1.636,-1.6379,-1.5928,-1.6113,-1.6086,-1.5778,-1.5581,-1.5134,-1.442,-1.4404,-1.4412,-1.4395,-1.4338,-1.4189,-1.385,-1.3784,-1.3613,-1.3203,-1.3091,-1.3076,-1.3021,-1.294,-1.2923,-1.2997,-1.2981,-1.2981,-1.2981,-1.2765,-1.2749,-1.2989,-1.323,-1.3325,-1.303,-1.2707,-1.2406,-1.1817,-1.156,-1.1373,-1.1192,-1.1066,-1.0947,-1.094,-1.0751,-1.0624,-1.0561,-1.0434,-1.0364,-1.0371,-0.9765,-0.9382,-0.9221,-0.8805,-0.8447,-0.8421,-0.8321,-0.8275,-0.8221,-0.8049,-0.7777,-2.6289,-2.5895,-2.5906,-2.5906,-2.5812,-2.5644,-2.5137,-2.4413,-2.3033,-2.2053,-2.1256,-2.0677,-2.0108,-1.9401,-1.9162,-1.8818,-1.8387,-1.823,-1.7961,0.0,-1.7779,-1.7874,-1.8143,-1.8143,-1.8221,-1.8473,-1.8337,-1.8313,-1.8357,-1.8036,-1.7837,-1.783,-1.7556,-1.7199,-1.6748,-1.6162,-1.5943,-1.6004,-1.5783,-1.5649,-1.5573,-1.5573,-1.5704,-1.5817,-1.5514,-1.5416,-1.5601,-1.5239,-1.5036,-1.5036,-1.5167,-1.5359,-1.5533,-1.5807,-1.5963,-1.6147,-1.6617,-1.6835,-1.6779,-1.7101,-1.7154,-1.6734,-1.6519,-1.6026,-1.5129,-1.5059,-1.505,-1.5059,-1.488,-1.478,-1.4706,-1.4626,-1.4495,-1.441,-1.4098,-1.3802,-1.3752,-1.3416,-1.3168,-1.3071,-1.2981,-1.3005,-1.3075,-1.2997,-1.2989,-1.3058,-1.3283,-1.3291,-1.2813,-1.2637,-1.246,-1.2127,-1.1864,-1.1677,-1.1498,-1.1317,-1.1206,-1.1136,-1.0821,-1.0618,-1.0618,-1.0561,-1.0561,-1.0561,-1.0013,-0.9609,-0.9434,-0.8978,-0.8598,-0.8474,-0.8427,-0.8368,-0.8368,-0.8321,-0.8156,-2.6715,-2.631,-2.6299,-2.6147,-2.5906,-2.5549,-2.5211,-2.4765,-2.3705,-2.2832,-2.2119,-2.1612,-2.1007,-2.029,-2.0131,-1.9778,-1.9246,-1.9084,-1.8807,-1.8522,-1.8433,-1.853,-1.871,-1.871,-1.8889,-1.9067,-1.8861,-1.885,-1.8912,-1.8579,-1.8304,-1.8096,-1.7655,-1.722,-1.6959,-1.6781,-1.6599,-1.6575,-1.6038,-1.5816,-1.588,-1.5971,-1.6,-1.6132,-1.5957,-1.6007,-1.6264,-1.5838,-1.5641,-1.5707,-1.5613,-1.5716,-1.5991,-1.629,-1.66,-1.6874,-1.7398,-1.759,-1.7523,-1.7629,-1.7666,-1.752,-1.7245,-1.6803,-1.6215,-1.5927,-1.5751,-1.5683,-1.5606,-1.5462,-1.5257,-1.5138,-1.5061,-1.4841,-1.4681,-1.4538,-1.4357,-1.4143,-1.3995,-1.3933,-1.3899,-1.3823,-1.3613,-1.343,-1.326,-1.3266,-1.338,-1.3205,-1.2805,-1.276,-1.2575,-1.2182,-1.1926,-1.174,-1.1622,-1.1527,-1.1346,-1.1199,-1.0814,-1.0618,-1.0618,-1.0618,-1.0618,-1.0584,-1.0141,-0.9733,-0.9628,-0.9157,-0.8771,-0.8646,-0.8533,-0.8527,-0.8527,-0.848,-0.8321,-2.7206,-2.6791,-2.678,-2.6507,-2.5975,-2.5423,-2.52,-2.5115,-2.4176,-2.3493,-2.2891,-2.2451,-2.182,-2.1177,-2.0916,-2.0464,-2.0027,-1.9762,-1.9471,-1.9188,-1.9004,-1.9012,-1.9188,-1.918,-1.9387,-1.9637,-1.9282,-1.9231,-1.9457,-1.9042,-1.8673,-1.8313,-1.778,-1.7434,-1.7335,-1.7233,-1.7129,-1.6913,-1.6319,-1.6113,-1.6178,-1.6254,-1.6359,-1.6263,-1.6404,-1.6571,-1.6603,-1.6323,-1.6238,-1.6306,-1.6138,-1.6167,-1.652,-1.6911,-1.7273,-1.7628,-1.8076,-1.8269,-1.8144,-1.8144,-1.8076,-1.8008,-1.7735,-1.7451,-1.7157,-1.6821,-1.6482,-1.6272,-1.6167,-1.6035,-1.5745,-1.563,-1.5449,-1.5162,-1.5223,-1.5146,-1.4881,-1.4795,-1.4761,-1.4709,-1.4684,-1.4547,-1.4243,-1.3835,-1.3663,-1.3984,-1.354,-1.3096,-1.3059,-1.2886,-1.256,-1.2243,-1.1996,-1.1809,-1.1685,-1.1597,-1.1479,-1.1185,-1.094,-1.0814,-1.0751,-1.0688,-1.0624,-1.0564,-1.0141,-0.9746,-0.9633,-0.9212,-0.8871,-0.8752,-0.8692,-0.8633,-0.8633,-0.8527,-0.8427,-2.7697,-2.7282,-2.725,-2.6977,-2.6432,-2.5573,-2.5211,-2.5115,-2.4176,-2.3667,-2.3416,-2.2706,-2.2087,-2.1642,-2.1186,-2.0736,-2.0292,-2.0019,-1.9654,-1.9288,-1.9188,-1.9188,-1.9188,-1.918,-1.9463,-1.9754,-1.9621,-1.9588,-1.9736,-1.9223,-1.8787,-1.851,-1.8077,-1.7895,-1.7837,-1.7516,-1.7342,-1.7342,-1.7192,-1.6987,-1.6809,-1.6975,-1.6998,-1.6793,-1.7018,-1.7062,-1.6894,-1.6872,-1.6853,-1.6853,-1.6927,-1.7133,-1.7326,-1.7512,-1.7745,-1.793,-1.8134,-1.8337,-1.8414,-1.8482,-1.8347,-1.8008,-1.8018,-1.7901,-1.789,-1.7567,-1.7185,-1.6839,-1.6482,-1.6272,-1.6211,-1.5938,-1.5771,-1.5641,-1.5703,-1.56,-1.5257,-1.5078,-1.4883,-1.4709,-1.4769,-1.4667,-1.4567,-1.404,-1.4105,-1.5154,-1.4047,-1.3243,-1.3394,-1.2907,-1.2422,-1.2212,-1.2065,-1.1996,-1.1809,-1.1707,-1.1519,-1.124,-1.1185,-1.1136,-1.1073,-1.094,-1.0807,-1.0752,-1.0201,-0.9778,-0.963,-0.9225,-0.8831,-0.8804,-0.8752,-0.8752,-0.8752,-0.8692,-0.8533,-2.8189,-2.7763,-2.7741,-2.7315,-2.6552,-2.5883,-2.5455,-2.5126,-2.4358,-2.4024,-2.3851,-2.3144,-2.2441,-2.1731,-2.1454,-2.1186,-2.0727,-2.0292,-2.0019,-1.9837,-1.9571,-1.9379,-1.9188,-1.9379,-1.9479,-1.9471,-1.9579,-1.9671,-1.9613,-1.9126,-1.8782,-1.8611,-1.8094,-1.8002,-1.8063,-1.782,-1.7805,-1.7945,-1.7764,-1.7652,-1.7552,-1.7277,-1.7125,-1.7134,-1.7282,-1.7432,-1.7388,-1.718,-1.7115,-1.7238,-1.7237,-1.7235,-1.7314,-1.7579,-1.7716,-1.7852,-1.8202,-1.8539,-1.8818,-1.8751,-1.8694,-1.8657,-1.8357,-1.8086,-1.7988,-1.7745,-1.752,-1.7254,-1.6899,-1.6621,-1.6473,-1.6272,-1.607,-1.6,-1.5912,-1.5773,-1.5591,-1.5548,-1.5411,-1.536,-1.5343,-1.5232,-1.5018,-1.4562,-1.4701,-1.5441,-1.4581,-1.39,-1.3827,-1.3284,-1.283,-1.2522,-1.2328,-1.2065,-1.1747,-1.1645,-1.1582,-1.145,-1.1262,-1.1206,-1.1199,-1.1066,-1.0996,-1.0996,-1.0294,-0.9887,-0.9853,-0.928,-0.8804,-0.8804,-0.8804,-0.8804,-0.8804,-0.8752,-0.8692,-2.856,-2.8244,-2.8112,-2.7643,-2.6933,-2.6421,-2.5989,-2.5529,-2.4912,-2.4651,-2.4496,-2.385,-2.313,-2.2395,-2.1931,-2.1454,-2.1096,-2.0654,-2.0382,-2.0292,-1.9845,-1.9579,-1.9387,-1.9387,-1.9387,-1.9379,-1.9387,-1.9487,-1.9554,-1.9159,-1.8921,-1.8873,-1.837,-1.8193,-1.8335,-1.8181,-1.817,-1.8389,-1.8218,-1.8104,-1.81,-1.77,-1.7397,-1.7377,-1.7529,-1.7703,-1.7803,-1.7532,-1.7451,-1.766,-1.766,-1.7642,-1.7642,-1.7922,-1.8132,-1.827,-1.8636,-1.9039,-1.938,-1.9301,-1.9192,-1.911,-1.8798,-1.8466,-1.8173,-1.793,-1.7794,-1.7666,-1.7323,-1.7028,-1.6751,-1.6621,-1.6412,-1.6272,-1.6097,-1.6035,-1.5929,-1.5938,-1.5921,-1.5938,-1.5869,-1.5764,-1.5463,-1.5214,-1.5347,-1.5592,-1.51,-1.4555,-1.4305,-1.3786,-1.326,-1.2842,-1.2538,-1.2187,-1.1777,-1.1692,-1.1645,-1.1582,-1.1387,-1.1324,-1.1317,-1.1254,-1.1185,-1.1058,-1.0425,-0.999,-0.9907,-0.9391,-0.8804,-0.8804,-0.8804,-0.8804,-0.8804,-0.8804,-0.8804,-2.8746,-2.8659,-2.8233,-2.8014,-2.7836,-2.7201,-2.6818,-2.6445,-2.5951,-2.5712,-2.5431,-2.4886,-2.4447,-2.3808,-2.2479,-2.1589,-2.132,-2.0987,-2.0616,-2.0417,-2.0044,-1.977,-1.9579,-1.9379,-1.9387,-1.9487,-1.9288,-1.9288,-1.9579,-1.9563,-1.9571,-1.9521,-1.9077,-1.8912,-1.8863,-1.8534,-1.8526,-1.8682,-1.8431,-1.8313,-1.8511,-1.8177,-1.788,-1.7839,-1.8002,-1.7979,-1.7818,-1.7803,-1.7859,-1.81,-1.8386,-1.8597,-1.8606,-1.8962,-1.9252,-1.9426,-1.9653,-1.9858,-2.0032,-2.0144,-1.998,-1.9332,-1.9361,-1.916,-1.8594,-1.8368,-1.8203,-1.8027,-1.7745,-1.751,-1.7235,-1.6968,-1.676,-1.6612,-1.6603,-1.6464,-1.6272,-1.6281,-1.6272,-1.6272,-1.6211,-1.6088,-1.58,-1.5922,-1.5852,-1.5783,-1.5317,-1.5002,-1.4848,-1.4228,-1.3555,-1.3048,-1.2755,-1.2432,-1.1954,-1.1747,-1.1685,-1.163,-1.1567,-1.156,-1.1498,-1.1435,-1.1373,-1.1119,-1.0531,-1.0163,-0.9973,-0.9584,-0.9085,-0.8857,-0.8811,-0.8811,-0.8804,-0.8804,-0.8804,-2.9041,-2.8839,-2.8571,-2.8331,-2.7934,-2.758,-2.7241,-2.6783,-2.6336,-2.6076,-2.5906,-2.5361,-2.4802,-2.422,-2.3369,-2.2778,-2.2344,-2.1862,-2.1432,-2.1138,-2.0752,-2.0264,-1.9762,-1.9646,-1.9554,-1.9487,-1.9163,-1.898,-1.9112,-1.9112,-1.9112,-1.9104,-1.8983,-1.891,-1.9027,-1.8912,-1.8908,-1.9146,-1.8896,-1.888,-1.893,-1.8588,-1.8404,-1.8519,-1.8195,-1.8171,-1.8353,-1.8095,-1.8114,-1.8504,-1.8611,-1.8682,-1.8756,-1.9058,-1.937,-1.9608,-1.9825,-1.9949,-2.0073,-2.0288,-2.0277,-1.9971,-1.9971,-1.9859,-1.9535,-1.9083,-1.8686,-1.8577,-1.8135,-1.7813,-1.7735,-1.747,-1.7185,-1.7028,-1.6959,-1.689,-1.6691,-1.6551,-1.6473,-1.6473,-1.6412,-1.6272,-1.6263,-1.6272,-1.6202,-1.6132,-1.5738,-1.5539,-1.5356,-1.4803,-1.4142,-1.3838,-1.3435,-1.2972,-1.2495,-1.2047,-1.1809,-1.1747,-1.1685,-1.1622,-1.156,-1.156,-1.1498,-1.1363,-1.078,-1.035,-1.0144,-0.959,-0.9136,-0.8956,-0.891,-0.8857,-0.8804,-0.8804,-0.8804,-2.9052,-2.8883,-2.885,-2.8571,-2.8276,-2.8082,-2.7807,-2.7435,-2.7062,-2.6788,-2.6616,-2.5972,-2.5405,-2.4928,-2.4363,-2.3804,-2.329,-2.2586,-2.2034,-2.1804,-2.1327,-2.0755,-2.0256,-2.0104,-1.9954,-1.9679,-1.9171,-1.8888,-1.8912,-1.8827,-1.8827,-1.8827,-1.8827,-1.892,-1.9055,-1.9035,-1.9199,-1.9401,-1.9372,-1.9272,-1.9307,-1.9058,-1.8944,-1.8976,-1.8663,-1.8565,-1.878,-1.8504,-1.8596,-1.8948,-1.9013,-1.9164,-1.9324,-1.9548,-1.9781,-1.994,-2.0172,-2.0383,-2.0437,-2.073,-2.0803,-2.0648,-2.0514,-2.0411,-2.0186,-1.9738,-1.9374,-1.9203,-1.8894,-1.8626,-1.8557,-1.8428,-1.8023,-1.7517,-1.7373,-1.7314,-1.7116,-1.6968,-1.689,-1.6821,-1.6612,-1.656,-1.6578,-1.6491,-1.6421,-1.6447,-1.6167,-1.5876,-1.5709,-1.5337,-1.4869,-1.4539,-1.4079,-1.3639,-1.3233,-1.2786,-1.2115,-1.1921,-1.1799,-1.1659,-1.1622,-1.1622,-1.1593,-1.145,-1.1127,-1.0668,-1.015,-0.9587,-0.9284,-0.9088,-0.9008,-0.891,-0.8857,-0.8798,-0.8824,-2.8779,-2.885,-2.885,-2.8746,-2.8691,-2.8691,-2.8642,-2.8276,-2.8006,-2.7766,-2.7453,-2.6798,-2.625,-2.5925,-2.5072,-2.4669,-2.411,-2.297,-2.2256,-2.2185,-2.17,-2.1225,-2.0891,-2.0568,-2.0289,-1.9895,-1.9479,-1.9188,-1.918,-1.892,-1.8827,-1.8827,-1.8827,-1.8827,-1.8835,-1.9063,-1.9347,-1.9555,-1.9541,-1.9567,-1.9692,-1.9531,-1.9495,-1.9545,-1.9388,-1.9281,-1.9074,-1.9002,-1.9107,-1.9511,-1.9728,-2.007,-2.0382,-2.0459,-2.0518,-2.0536,-2.0904,-2.1155,-2.1211,-2.1476,-2.1466,-2.1207,-2.1124,-2.0906,-2.0493,-2.0247,-2.0093,-1.9929,-1.9777,-1.9756,-1.9736,-1.9645,-1.9152,-1.8036,-1.7831,-1.7734,-1.7586,-1.748,-1.7392,-1.7245,-1.7038,-1.6908,-1.683,-1.676,-1.67,-1.6718,-1.643,-1.6,-1.5867,-1.5587,-1.532,-1.4894,-1.4509,-1.4144,-1.3897,-1.3553,-1.2825,-1.219,-1.1966,-1.1781,-1.1645,-1.1622,-1.1622,-1.148,-1.126,-1.0799,-1.0142,-0.9667,-0.9457,-0.926,-0.9141,-0.9015,-0.9015,-0.8976,-0.8931,-2.9063,-2.8768,-2.885,-2.885,-2.885,-2.885,-2.8757,-2.8664,-2.8384,-2.8102,-2.7809,-2.7051,-2.6572,-2.5994,-2.5226,-2.4735,-2.4412,-2.3466,-2.2841,-2.2532,-2.2108,-2.161,-2.119,-2.0665,-2.0284,-2.018,-1.9845,-1.9563,-1.9288,-1.9104,-1.9004,-1.8827,-1.8827,-1.8827,-1.8827,-1.9204,-1.9487,-1.9662,-1.9918,-2.0121,-2.0364,-2.0105,-2.0079,-2.0381,-2.021,-2.019,-2.0292,-1.9613,-1.9329,-1.9576,-1.9951,-2.0342,-2.0576,-2.0576,-2.0576,-2.0654,-2.0974,-2.1215,-2.1215,-2.1578,-2.1745,-2.1611,-2.158,-2.1538,-2.1298,-2.0872,-2.0645,-2.052,-2.0204,-1.9919,-1.9919,-1.9919,-1.9665,-1.9039,-1.8764,-1.8497,-1.823,-1.7889,-1.7617,-1.7461,-1.7323,-1.7254,-1.7176,-1.7028,-1.6978,-1.6857,-1.6639,-1.6333,-1.5974,-1.585,-1.5771,-1.5345,-1.5013,-1.4701,-1.4372,-1.4006,-1.3435,-1.2722,-1.2352,-1.2003,-1.1828,-1.1619,-1.1611,-1.1534,-1.1253,-1.0909,-1.0304,-0.9883,-0.9699,-0.9415,-0.9267,-0.9201,-0.9194,-0.915,-0.9146,-2.9194,-2.8872,-2.885,-2.885,-2.885,-2.885,-2.885,-2.8757,-2.8477,-2.829,-2.7904,-2.7336,-2.6764,-2.6187,-2.5421,-2.4932,-2.4538,-2.3746,-2.3223,-2.292,-2.2498,-2.1996,-2.1627,-2.1004,-2.0732,-2.0617,-2.0298,-1.9945,-1.966,-1.9437,-1.9196,-1.9012,-1.892,-1.892,-1.9012,-1.9387,-1.9587,-1.9762,-2.0201,-2.0564,-2.061,-2.0615,-2.0748,-2.1038,-2.0961,-2.1033,-2.1212,-2.0501,-2.0089,-2.0099,-2.0272,-2.0498,-2.0566,-2.0576,-2.0576,-2.0644,-2.0886,-2.1061,-2.1138,-2.1359,-2.1578,-2.1578,-2.1578,-2.1578,-2.1527,-2.113,-2.1029,-2.0958,-2.07,-2.036,-2.0434,-2.036,-2.0286,-2.0128,-1.9518,-1.9132,-1.8703,-1.8104,-1.7745,-1.7666,-1.7608,-1.7392,-1.7245,-1.7235,-1.7107,-1.6917,-1.6691,-1.6533,-1.6105,-1.6053,-1.585,-1.5692,-1.5345,-1.508,-1.4743,-1.4372,-1.3974,-1.3382,-1.2884,-1.2439,-1.2159,-1.1746,-1.1581,-1.1524,-1.1297,-1.1106,-1.0566,-1.0348,-1.0125,-0.98,-0.9567,-0.9521,-0.9531,-0.9465,-0.9515,-2.9248,-2.8811,-2.8861,-2.885,-2.885,-2.885,-2.885,-2.8757,-2.8571,-2.829,-2.7904,-2.7526,-2.6965,-2.64,-2.5616,-2.5137,-2.4745,-2.3945,-2.3438,-2.3203,-2.2885,-2.2412,-2.2013,-2.1565,-2.1369,-2.1292,-2.0771,-2.0508,-2.0397,-1.9969,-1.9528,-1.9369,-1.9277,-1.9212,-1.9304,-1.9487,-1.9671,-1.9936,-2.0382,-2.0654,-2.0736,-2.1195,-2.1445,-2.1686,-2.1609,-2.1673,-2.1797,-2.1652,-2.1303,-2.0989,-2.0672,-2.0644,-2.0586,-2.0576,-2.0576,-2.0644,-2.0819,-2.0906,-2.0984,-2.1138,-2.1282,-2.1292,-2.1292,-2.1215,-2.1272,-2.1231,-2.1201,-2.1135,-2.1104,-2.1115,-2.1104,-2.1094,-2.1028,-2.0854,-2.0083,-1.9407,-1.8923,-1.8241,-1.8007,-1.7949,-1.7773,-1.7461,-1.7304,-1.7235,-1.7107,-1.6899,-1.676,-1.6542,-1.6403,-1.6272,-1.6061,-1.5816,-1.5632,-1.5317,-1.5031,-1.4686,-1.4247,-1.3917,-1.3393,-1.2961,-1.2513,-1.2087,-1.174,-1.1614,-1.148,-1.1253,-1.0982,-1.0733,-1.0493,-1.0326,-1.0147,-1.0012,-1.0064,-1.013,-1.0214,-2.9729,-2.9259,-2.8899,-2.885,-2.885,-2.885,-2.885,-2.8757,-2.8757,-2.8466,-2.7987,-2.7726,-2.7167,-2.6496,-2.5723,-2.5137,-2.4735,-2.4044,-2.3555,-2.3356,-2.3046,-2.2702,-2.2447,-2.203,-2.1833,-2.1667,-2.1352,-2.1086,-2.0982,-2.0752,-2.0395,-1.9865,-1.9772,-1.9649,-1.9537,-1.9604,-1.9671,-1.9928,-2.0473,-2.0826,-2.1006,-2.1374,-2.1741,-2.1998,-2.224,-2.2446,-2.2505,-2.2398,-2.189,-2.1209,-2.1063,-2.0889,-2.0635,-2.0596,-2.0596,-2.0644,-2.0741,-2.0906,-2.0906,-2.1061,-2.1215,-2.1215,-2.1138,-2.1215,-2.1215,-2.1215,-2.1215,-2.1215,-2.1215,-2.1205,-2.1215,-2.1205,-2.1051,-2.0847,-2.023,-1.9654,-1.9223,-1.874,-1.8397,-1.8377,-1.8056,-1.7793,-1.7529,-1.7382,-1.7263,-1.6978,-1.6839,-1.6769,-1.656,-1.6351,-1.6132,-1.6,-1.5833,-1.5551,-1.5271,-1.4924,-1.4649,-1.4364,-1.3964,-1.3531,-1.2984,-1.2431,-1.2145,-1.1984,-1.1897,-1.1714,-1.1311,-1.0908,-1.0843,-1.0865,-1.0836,-1.0792,-1.1105,-1.1207,-1.1246,-3.0111,-2.9456,-2.9172,-2.8943,-2.8768,-2.885,-2.885,-2.885,-2.8757,-2.8466,-2.8092,-2.7809,-2.7251,-2.6496,-2.581,-2.5226,-2.4833,-2.4143,-2.3655,-2.3347,-2.3046,-2.2736,-2.2584,-2.2295,-2.2227,-2.2068,-2.1833,-2.1582,-2.1434,-2.1315,-2.0912,-2.057,-2.0434,-2.0157,-1.9835,-1.9979,-1.9895,-2.0053,-2.0464,-2.0916,-2.0997,-2.1454,-2.1909,-2.2185,-2.253,-2.2715,-2.2843,-2.2727,-2.2298,-2.1637,-2.1494,-2.1309,-2.0908,-2.084,-2.0771,-2.0605,-2.0731,-2.0741,-2.0809,-2.0886,-2.0964,-2.0964,-2.0964,-2.0964,-2.0964,-2.0964,-2.0964,-2.0964,-2.0964,-2.0964,-2.0964,-2.0964,-2.0886,-2.0702,-2.0342,-1.9944,-1.9683,-1.918,-1.8857,-1.8723,-1.8437,-1.8046,-1.7577,-1.747,-1.7254,-1.7047,-1.6908,-1.6769,-1.663,-1.6421,-1.6211,-1.607,-1.5867,-1.5647,-1.533,-1.5023,-1.4636,-1.4419,-1.4229,-1.3871,-1.3331,-1.2785,-1.2533,-1.2358,-1.2292,-1.2138,-1.1701,-1.1461,-1.1464,-1.1534,-1.16,-1.1637,-1.1823,-1.1971,-1.205,-3.0406,-2.9631,-2.9576,-2.9303,-2.8975,-2.891,-2.9008,-2.8932,-2.891,-2.8585,-2.8188,-2.803,-2.7347,-2.6496,-2.58,-2.5304,-2.4833,-2.4152,-2.3746,-2.3347,-2.2955,-2.2653,-2.2644,-2.261,-2.2484,-2.2449,-2.2192,-2.2081,-2.1996,-2.1722,-2.1454,-2.1218,-2.1105,-2.0799,-2.042,-2.0439,-2.0332,-2.018,-2.0685,-2.0987,-2.1114,-2.1454,-2.1919,-2.2264,-2.2344,-2.2608,-2.2794,-2.2814,-2.2428,-2.1977,-2.1899,-2.1637,-2.1205,-2.1218,-2.1004,-2.0703,-2.0615,-2.0596,-2.0489,-2.0566,-2.0566,-2.0566,-2.0644,-2.0576,-2.0654,-2.0644,-2.0644,-2.0654,-2.0576,-2.0644,-2.0576,-2.0566,-2.0566,-2.0479,-2.0313,-2.0217,-2.0115,-1.9619,-1.9199,-1.8951,-1.874,-1.8238,-1.7808,-1.7489,-1.7332,-1.6978,-1.6908,-1.676,-1.6542,-1.6333,-1.6202,-1.6008,-1.5797,-1.5655,-1.5401,-1.5122,-1.4773,-1.4419,-1.4219,-1.3882,-1.339,-1.3001,-1.2855,-1.2723,-1.2621,-1.2519,-1.2276,-1.2189,-1.2115,-1.227,-1.2313,-1.2328,-1.241,-1.246,-1.2553,-3.0777,-3.057,-3.0209,-2.9991,-2.9915,-2.9904,-2.9882,-2.9838,-2.9478,-2.904,-2.8476,-2.7989,-2.7272,-2.6516,-2.5732,-2.5235,-2.4833,-2.435,-2.3854,-2.3347,-2.3046,-2.2745,-2.2644,-2.2653,-2.2653,-2.2619,-2.2475,-2.2424,-2.2372,-2.227,-2.2141,-2.1803,-2.1556,-2.129,-2.0866,-2.0912,-2.0744,-2.0534,-2.0914,-2.1107,-2.1149,-2.1472,-2.183,-2.2176,-2.2353,-2.2432,-2.253,-2.253,-2.2435,-2.2235,-2.194,-2.1598,-2.1339,-2.1253,-2.1024,-2.0671,-2.0556,-2.0442,-2.0184,-2.0255,-2.0342,-2.0342,-2.0489,-2.0576,-2.0576,-2.0566,-2.0566,-2.0576,-2.0576,-2.0489,-2.042,-2.0342,-2.0255,-2.0098,-2.002,-1.9982,-1.9927,-1.9602,-1.9297,-1.9077,-1.8629,-1.8119,-1.7731,-1.7483,-1.7269,-1.6996,-1.683,-1.6673,-1.6533,-1.6315,-1.6123,-1.6,-1.5797,-1.5576,-1.533,-1.4996,-1.4585,-1.4292,-1.4155,-1.3977,-1.3417,-1.3208,-1.3133,-1.3023,-1.2928,-1.2833,-1.2745,-1.2636,-1.2495,-1.2824,-1.3018,-1.2972,-1.2939,-1.2987,-1.2928,-3.1094,-3.0876,-3.0635,-3.0406,-3.0242,-3.022,-3.022,-3.0177,-2.9775,-2.944,-2.8934,-2.8156,-2.739,-2.6778,-2.583,-2.5137,-2.4735,-2.4143,-2.3655,-2.3356,-2.3055,-2.2754,-2.2653,-2.2653,-2.2653,-2.2653,-2.2644,-2.2653,-2.2653,-2.2636,-2.2415,-2.2278,-2.2144,-2.1643,-2.1234,-2.1298,-2.1009,-2.0682,-2.0849,-2.1023,-2.1125,-2.1374,-2.1741,-2.2097,-2.2264,-2.2353,-2.2264,-2.2087,-2.1998,-2.1854,-2.1609,-2.1488,-2.1504,-2.1485,-2.121,-2.0699,-2.0576,-2.0368,-2.0065,-2.0029,-2.0108,-2.0108,-2.0177,-2.0255,-2.0255,-2.0255,-2.0255,-2.0255,-2.0255,-2.0177,-2.0108,-2.0098,-2.002,-1.9951,-1.9794,-1.9784,-1.9756,-1.9674,-1.9525,-1.9345,-1.8947,-1.8429,-1.7965,-1.7605,-1.7204,-1.7009,-1.6917,-1.676,-1.6691,-1.6482,-1.6193,-1.6061,-1.5788,-1.5568,-1.5251,-1.4846,-1.4435,-1.4173,-1.4027,-1.384,-1.3513,-1.3426,-1.3411,-1.3287,-1.317,-1.3199,-1.3119,-1.3001,-1.2943,-1.316,-1.3292,-1.3417,-1.3432,-1.3243,-1.3126,-3.1389,-3.1007,-3.1007,-3.0777,-3.0461,-3.0362,-3.0395,-3.0362,-2.9958,-2.9639,-2.9204,-2.8271,-2.7472,-2.6863,-2.58,-2.5147,-2.4637,-2.4044,-2.3555,-2.3356,-2.2946,-2.2745,-2.2653,-2.2653,-2.2653,-2.2653,-2.2653,-2.2653,-2.2653,-2.2653,-2.2627,-2.2526,-2.2636,-2.2038,-2.1512,-2.1553,-2.1402,-2.0953,-2.0897,-2.101,-2.1133,-2.1228,-2.1482,-2.182,-2.1989,-2.1998,-2.182,-2.1642,-2.1562,-2.1383,-2.1087,-2.1264,-2.1503,-2.1614,-2.1352,-2.0595,-2.0466,-2.0205,-1.9789,-1.9771,-1.9706,-1.9784,-1.9784,-1.9775,-1.9775,-1.9784,-1.9784,-1.9784,-1.9784,-1.9775,-1.9784,-1.9706,-1.9715,-1.9636,-1.9557,-1.9478,-1.9478,-1.9627,-1.944,-1.9371,-1.8956,-1.8452,-1.8091,-1.7705,-1.7339,-1.7082,-1.6991,-1.6848,-1.6639,-1.65,-1.6211,-1.5991,-1.5718,-1.5355,-1.4974,-1.4752,-1.4331,-1.406,-1.3905,-1.3702,-1.3572,-1.3484,-1.3462,-1.3477,-1.3418,-1.3411,-1.3397,-1.3309,-1.3323,-1.3484,-1.3462,-1.3411,-1.3411,-1.3426,-1.3228,-3.1392,-3.1498,-3.1498,-3.1444,-3.1287,-3.1084,-3.0939,-3.0928,-3.0248,-2.9806,-2.9174,-2.8109,-2.718,-2.6468,-2.5417,-2.4745,-2.435,-2.3845,-2.3546,-2.3356,-2.3046,-2.2745,-2.2653,-2.2653,-2.2653,-2.2653,-2.2653,-2.2653,-2.2653,-2.2653,-2.2653,-2.2653,-2.2653,-2.2265,-2.1828,-2.1812,-2.1637,-2.1114,-2.0945,-2.1018,-2.1078,-2.0981,-2.1015,-2.1275,-2.1356,-2.1356,-2.1275,-2.1186,-2.1096,-2.1096,-2.0997,-2.1042,-2.106,-2.1123,-2.0871,-2.0562,-2.0219,-1.9904,-1.948,-1.9263,-1.9207,-1.9161,-1.9311,-1.939,-1.9381,-1.9381,-1.939,-1.939,-1.939,-1.9311,-1.9161,-1.924,-1.9082,-1.9002,-1.8931,-1.894,-1.894,-1.9002,-1.9143,-1.9136,-1.883,-1.8506,-1.8152,-1.7779,-1.7352,-1.7062,-1.6872,-1.6605,-1.6254,-1.6202,-1.6079,-1.5788,-1.5576,-1.5141,-1.4776,-1.4561,-1.425,-1.3962,-1.3775,-1.3702,-1.3564,-1.3492,-1.3492,-1.3492,-1.3492,-1.3462,-1.347,-1.3492,-1.344,-1.3404,-1.3397,-1.3389,-1.3228,-1.3075,-1.2844,-3.1023,-3.1127,-3.1127,-3.123,-3.1127,-3.1023,-3.092,-3.0795,-3.043,-3.0015,-2.9199,-2.8147,-2.7202,-2.6413,-2.5286,-2.4548,-2.4152,-2.3746,-2.3546,-2.3356,-2.3046,-2.2745,-2.2653,-2.2653,-2.2653,-2.2653,-2.2653,-2.2653,-2.2653,-2.2653,-2.2653,-2.2653,-2.2653,-2.2342,-2.1827,-2.1802,-2.1634,-2.1303,-2.1016,-2.0937,-2.1011,-2.0793,-2.0771,-2.0907,-2.0997,-2.0907,-2.0826,-2.0645,-2.0555,-2.0464,-2.0292,-2.0382,-2.0374,-2.0421,-2.048,-2.0316,-2.0157,-1.9777,-1.9374,-1.9128,-1.9075,-1.8878,-1.8922,-1.9002,-1.9002,-1.9002,-1.9002,-1.9002,-1.9002,-1.8922,-1.8851,-1.8851,-1.8772,-1.87,-1.8709,-1.8709,-1.8709,-1.8709,-1.878,-1.8922,-1.8699,-1.8458,-1.8249,-1.7787,-1.7311,-1.7063,-1.6866,-1.6395,-1.5903,-1.5745,-1.5621,-1.5576,-1.5284,-1.4935,-1.4569,-1.4353,-1.4137,-1.3855,-1.371,-1.3637,-1.3564,-1.3492,-1.3492,-1.3492,-1.3492,-1.3492,-1.3492,-1.3484,-1.3404,-1.3301,-1.3164,-1.3062,-1.2822,-1.2701,-1.2531,-3.0335,-3.0345,-3.0335,-3.0387,-3.0461,-3.0483,-3.0317,-3.0297,-3.0297,-2.9774,-2.913,-2.8051,-2.7186,-2.6377,-2.5239,-2.435,-2.4143,-2.3646,-2.3456,-2.3247,-2.2846,-2.2653,-2.2653,-2.2653,-2.2653,-2.2653,-2.2653,-2.2653,-2.2653,-2.2653,-2.2653,-2.2653,-2.2653,-2.2342,-2.1827,-2.1725,-2.1522,-2.1322,-2.0994,-2.0818,-2.0774,-2.0576,-2.0564,-2.0736,-2.0736,-2.0555,-2.0382,-2.03,-2.011,-1.9936,-1.9762,-1.9671,-1.9845,-1.9845,-1.9974,-2.0156,-2.0219,-1.9764,-1.9242,-1.8911,-1.8637,-1.8334,-1.8379,-1.8451,-1.846,-1.8371,-1.8371,-1.846,-1.8451,-1.8371,-1.8371,-1.8371,-1.8371,-1.8371,-1.8379,-1.846,-1.8379,-1.8299,-1.8299,-1.8371,-1.8451,-1.8391,-1.8197,-1.7982,-1.7517,-1.6772,-1.6494,-1.6156,-1.5664,-1.5209,-1.5147,-1.5125,-1.4927,-1.4649,-1.4361,-1.4145,-1.3928,-1.371,-1.3637,-1.3564,-1.3492,-1.3492,-1.3492,-1.3492,-1.3492,-1.3492,-1.3492,-1.3455,-1.336,-1.3236,-1.2933,-1.2709,-1.2434,-1.2301,-1.2212,-2.8773,-2.8963,-2.8984,-2.9192,-2.9424,-2.926,-2.9394,-2.9608,-2.9489,-2.8906,-2.7924,-2.754,-2.656,-2.5503,-2.4681,-2.426,-2.4044,-2.3655,-2.3356,-2.3247,-2.2846,-2.2653,-2.2653,-2.2653,-2.2653,-2.2653,-2.2653,-2.2653,-2.2544,-2.2544,-2.2552,-2.2552,-2.2544,-2.2241,-2.1725,-2.1623,-2.1522,-2.1261,-2.0978,-2.0582,-2.0272,-1.9995,-1.9887,-1.9853,-1.9853,-1.9853,-1.9853,-1.977,-1.9671,-1.9679,-1.9587,-1.9587,-1.9579,-1.9679,-1.9671,-1.9612,-1.9558,-1.9267,-1.8707,-1.8456,-1.8113,-1.791,-1.7686,-1.7571,-1.7725,-1.7725,-1.7716,-1.7563,-1.7644,-1.7635,-1.7725,-1.7635,-1.7554,-1.7635,-1.7716,-1.7716,-1.7635,-1.7887,-1.7887,-1.7806,-1.7878,-1.8121,-1.8143,-1.7944,-1.7639,-1.6817,-1.6178,-1.5777,-1.5438,-1.507,-1.4704,-1.4689,-1.4713,-1.4361,-1.4225,-1.3935,-1.3783,-1.3637,-1.3564,-1.3492,-1.3492,-1.3492,-1.3492,-1.3492,-1.3492,-1.3419,-1.3419,-1.3361,-1.3316,-1.3106,-1.2827,-1.2445,-1.2006,-1.1909,-1.2006,-2.7152,-2.8217,-2.8227,-2.8329,-2.8492,-2.8198,-2.8084,-2.8161,-2.8207,-2.7796,-2.6814,-2.5973,-2.5254,-2.4627,-2.4306,-2.4152,-2.3945,-2.3555,-2.3356,-2.3155,-2.2846,-2.2653,-2.2653,-2.2653,-2.2653,-2.2653,-2.2552,-2.2434,-2.2434,-2.2544,-2.2552,-2.2342,-2.2333,-2.203,-2.1522,-2.153,-2.1326,-2.0969,-2.0708,-2.0362,-2.0069,-1.9816,-1.9587,-1.9587,-1.9587,-1.9587,-1.9587,-1.9396,-1.9387,-1.9396,-1.9304,-1.9188,-1.918,-1.9279,-1.9387,-1.9363,-1.934,-1.9158,-1.8828,-1.8622,-1.8148,-1.7854,-1.7681,-1.7631,-1.7474,-1.7408,-1.7408,-1.7392,-1.7392,-1.7392,-1.7392,-1.7392,-1.7392,-1.7392,-1.731,-1.731,-1.731,-1.7392,-1.7473,-1.7392,-1.7392,-1.7635,-1.7844,-1.7775,-1.7674,-1.7295,-1.6455,-1.5913,-1.5429,-1.4969,-1.4609,-1.4338,-1.4274,-1.4137,-1.4,-1.3863,-1.371,-1.3564,-1.3564,-1.3492,-1.3492,-1.3492,-1.3492,-1.3419,-1.3346,-1.3346,-1.3346,-1.3295,-1.3143,-1.2978,-1.2727,-1.2315,-1.1942,-1.1889,-1.1873,-2.5708,-2.7092,-2.7102,-2.7262,-2.7371,-2.7058,-2.6904,-2.691,-2.6924,-2.6631,-2.5814,-2.4785,-2.4236,-2.4198,-2.417,-2.4053,-2.3746,-2.3555,-2.3256,-2.2955,-2.2754,-2.2653,-2.2653,-2.2653,-2.2653,-2.2653,-2.2443,-2.2333,-2.2232,-2.2232,-2.2131,-2.203,-2.203,-2.1725,-2.142,-2.1318,-2.1216,-2.0869,-2.0464,-2.0216,-2.0015,-1.9654,-1.9385,-1.9396,-1.9396,-1.9396,-1.9396,-1.9204,-1.9104,-1.9104,-1.9012,-1.8904,-1.8888,-1.8996,-1.9096,-1.9096,-1.9047,-1.905,-1.8905,-1.8702,-1.8496,-1.8136,-1.7875,-1.7684,-1.7458,-1.7368,-1.7286,-1.7163,-1.7139,-1.7139,-1.7229,-1.7229,-1.7147,-1.7147,-1.7147,-1.7229,-1.7221,-1.7229,-1.7147,-1.7057,-1.7147,-1.7229,-1.7415,-1.7523,-1.7497,-1.7475,-1.6851,-1.608,-1.5421,-1.4911,-1.4551,-1.4183,-1.4111,-1.3958,-1.3797,-1.3659,-1.3572,-1.3564,-1.3492,-1.3419,-1.3419,-1.3346,-1.3346,-1.3273,-1.32,-1.32,-1.3127,-1.3091,-1.3034,-1.2749,-1.2473,-1.2256,-1.2012,-1.1937,-1.1861,-2.4763,-2.5125,-2.5134,-2.5372,-2.5805,-2.5714,-2.5914,-2.6151,-2.5788,-2.5489,-2.5163,-2.459,-2.4198,-2.4152,-2.4152,-2.4053,-2.3755,-2.3555,-2.3247,-2.2946,-2.2745,-2.2653,-2.2653,-2.2653,-2.2653,-2.2544,-2.2342,-2.2232,-2.2021,-2.1818,-2.1827,-2.1733,-2.1725,-2.1522,-2.1318,-2.1216,-2.1113,-2.0782,-2.044,-2.0103,-1.9774,-1.9343,-1.8944,-1.892,-1.892,-1.8827,-1.8827,-1.8819,-1.8912,-1.892,-1.8827,-1.8827,-1.8812,-1.8819,-1.8912,-1.892,-1.892,-1.8864,-1.8768,-1.8659,-1.8233,-1.7954,-1.7762,-1.772,-1.7447,-1.7323,-1.7179,-1.698,-1.7111,-1.6924,-1.6892,-1.6746,-1.699,-1.6902,-1.6894,-1.6894,-1.6894,-1.6894,-1.6812,-1.6812,-1.6812,-1.6984,-1.7057,-1.7187,-1.7354,-1.7347,-1.6963,-1.6207,-1.5474,-1.4856,-1.4433,-1.4187,-1.4033,-1.3872,-1.3609,-1.355,-1.3667,-1.3543,-1.3499,-1.3346,-1.3273,-1.3273,-1.32,-1.3127,-1.298,-1.2973,-1.29,-1.2879,-1.2715,-1.2485,-1.2262,-1.2177,-1.2009,-1.1925,-1.1917,-2.4341,-2.4449,-2.4449,-2.473,-2.5178,-2.497,-2.4964,-2.5086,-2.4794,-2.4629,-2.4581,-2.4316,-2.4152,-2.3954,-2.3954,-2.3746,-2.3347,-2.3247,-2.3046,-2.2846,-2.2644,-2.2653,-2.2653,-2.2653,-2.2653,-2.2544,-2.2241,-2.203,-2.1827,-2.1623,-2.1318,-2.1326,-2.142,-2.1216,-2.1113,-2.1121,-2.1019,-2.0734,-2.0381,-1.9981,-1.9822,-1.9217,-1.8827,-1.8827,-1.8827,-1.8827,-1.8827,-1.8827,-1.8827,-1.8827,-1.8827,-1.8827,-1.8827,-1.8827,-1.8827,-1.8827,-1.8827,-1.8827,-1.8827,-1.8669,-1.8462,-1.8136,-1.7906,-1.7723,-1.7604,-1.758,-1.754,-1.7421,-1.7326,-1.7239,-1.7088,-1.7064,-1.7032,-1.6833,-1.668,-1.6711,-1.6743,-1.679,-1.6818,-1.6857,-1.6786,-1.682,-1.6812,-1.6788,-1.6968,-1.713,-1.674,-1.6323,-1.5658,-1.5039,-1.4726,-1.4343,-1.4201,-1.4,-1.3814,-1.377,-1.3726,-1.3572,-1.3411,-1.3257,-1.3124,-1.3053,-1.2973,-1.29,-1.2753,-1.2753,-1.268,-1.2599,-1.2517,-1.2394,-1.2301,-1.2184,-1.2084,-1.1886,-1.184,-2.4152,-2.4053,-2.4053,-2.4341,-2.4637,-2.444,-2.4332,-2.4233,-2.4071,-2.3954,-2.3954,-2.3954,-2.3854,-2.3746,-2.3655,-2.3447,-2.3147,-2.3046,-2.2846,-2.2745,-2.2653,-2.2653,-2.2653,-2.2552,-2.2544,-2.2443,-2.2131,-2.1827,-2.1522,-2.1318,-2.1121,-2.1019,-2.1019,-2.1019,-2.1019,-2.0925,-2.0925,-2.0758,-2.0166,-1.9868,-1.9765,-1.9209,-1.8835,-1.8827,-1.8827,-1.8827,-1.8827,-1.8827,-1.8827,-1.8827,-1.8827,-1.8827,-1.8827,-1.8827,-1.8827,-1.8827,-1.8827,-1.8827,-1.8827,-1.8796,-1.8716,-1.8462,-1.8295,-1.8105,-1.7962,-1.7914,-1.7874,-1.7715,-1.7715,-1.7676,-1.7429,-1.7413,-1.7382,-1.7239,-1.7014,-1.703,-1.7115,-1.713,-1.6988,-1.6992,-1.6929,-1.6905,-1.6738,-1.673,-1.678,-1.6928,-1.6797,-1.6444,-1.5983,-1.5567,-1.5211,-1.485,-1.4466,-1.4238,-1.4081,-1.3885,-1.3758,-1.3604,-1.3429,-1.3198,-1.3007,-1.2938,-1.2781,-1.2606,-1.2532,-1.2459,-1.2385,-1.2305,-1.2378,-1.2432,-1.2265,-1.2084,-1.1937,-1.1732,-1.1617,-2.4007,-2.3854,-2.3818,-2.3908,-2.407,-2.3945,-2.3845,-2.3854,-2.3546,-2.3456,-2.3546,-2.3456,-2.3447,-2.3447,-2.3447,-2.3247,-2.3046,-2.2946,-2.2846,-2.2644,-2.2653,-2.2653,-2.2653,-2.2544,-2.2434,-2.2131,-2.1928,-2.1632,-2.1326,-2.1121,-2.0925,-2.0925,-2.0917,-2.0917,-2.0925,-2.0925,-2.0925,-2.0813,-1.998,-1.981,-1.9701,-1.9193,-1.8883,-1.8827,-1.8827,-1.8827,-1.8827,-1.8827,-1.8827,-1.8827,-1.8827,-1.8827,-1.8827,-1.8827,-1.8827,-1.8827,-1.8827,-1.8827,-1.8827,-1.8827,-1.8788,-1.8748,-1.8581,-1.8526,-1.8343,-1.8263,-1.82,-1.8057,-1.7938,-1.7858,-1.7779,-1.7763,-1.7731,-1.7612,-1.7368,-1.7337,-1.7407,-1.7501,-1.7366,-1.7278,-1.7239,-1.7159,-1.6905,-1.6656,-1.6648,-1.6708,-1.6678,-1.6524,-1.619,-1.5889,-1.563,-1.5219,-1.4808,-1.4518,-1.4281,-1.3995,-1.3782,-1.3698,-1.3502,-1.3355,-1.3072,-1.2934,-1.275,-1.2466,-1.2452,-1.2496,-1.2296,-1.2016,-1.2009,-1.2003,-1.2003,-1.1916,-1.1706,-1.1577,-1.1366,-2.3048,-2.2961,-2.2856,-2.2759,-2.2937,-2.3341,-2.3546,-2.3546,-2.3456,-2.3356,-2.3456,-2.3456,-2.3256,-2.3147,-2.3147,-2.2955,-2.2745,-2.2745,-2.2653,-2.2653,-2.2653,-2.2653,-2.2653,-2.2552,-2.2443,-2.2123,-2.1827,-2.153,-2.1326,-2.1019,-2.0917,-2.0925,-2.0925,-2.0925,-2.0925,-2.0925,-2.0925,-2.079,-2.0265,-1.9828,-1.9773,-1.9225,-1.8827,-1.8827,-1.8827,-1.8827,-1.8827,-1.8827,-1.8827,-1.8827,-1.8827,-1.8827,-1.8827,-1.8827,-1.8827,-1.8827,-1.8827,-1.8827,-1.8827,-1.8827,-1.8827,-1.8827,-1.8812,-1.8764,-1.8653,-1.8645,-1.8557,-1.8478,-1.8375,-1.8295,-1.8192,-1.8144,-1.8049,-1.7771,-1.7589,-1.7589,-1.7589,-1.7794,-1.7841,-1.7714,-1.7588,-1.7195,-1.6867,-1.6716,-1.6653,-1.6492,-1.6482,-1.6555,-1.633,-1.6118,-1.5843,-1.5509,-1.5145,-1.4822,-1.4465,-1.416,-1.3975,-1.3863,-1.3773,-1.3662,-1.3388,-1.2963,-1.2866,-1.2665,-1.2608,-1.2544,-1.2158,-1.1853,-1.1608,-1.1558,-1.1583,-1.1577,-1.1403,-1.1196,-1.1063,-2.2461,-2.2271,-2.2176,-2.1986,-2.2065,-2.2629,-2.2911,-2.2944,-2.3085,-2.3155,-2.3147,-2.3147,-2.3046,-2.2946,-2.2846,-2.2846,-2.2653,-2.2653,-2.2653,-2.2653,-2.2653,-2.2653,-2.2552,-2.2443,-2.2232,-2.192,-2.1725,-2.1428,-2.113,-2.1027,-2.0925,-2.0925,-2.0925,-2.0925,-2.0925,-2.0925,-2.0917,-2.0726,-2.0273,-1.9852,-1.9662,-1.9272,-1.8835,-1.8827,-1.8827,-1.8827,-1.8827,-1.8827,-1.8827,-1.8827,-1.8827,-1.8827,-1.8827,-1.8827,-1.8827,-1.8827,-1.8827,-1.8827,-1.8827,-1.8827,-1.8827,-1.8827,-1.8827,-1.8827,-1.8827,-1.8788,-1.8796,-1.878,-1.8827,-1.8708,-1.851,-1.8462,-1.8351,-1.8081,-1.7992,-1.8,-1.8016,-1.8249,-1.8169,-1.8033,-1.7802,-1.7376,-1.7001,-1.6768,-1.668,-1.6495,-1.6304,-1.6327,-1.6245,-1.5982,-1.5824,-1.556,-1.5296,-1.4814,-1.4482,-1.4303,-1.4104,-1.3959,-1.387,-1.3794,-1.3366,-1.3022,-1.2896,-1.281,-1.2561,-1.2315,-1.1914,-1.1629,-1.1384,-1.1201,-1.1171,-1.1118,-1.1059,-1.0918,-1.0747,-2.2227,-2.1856,-2.1761,-2.1631,-2.1457,-2.1683,-2.1926,-2.1996,-2.2429,-2.2558,-2.2567,-2.2515,-2.2515,-2.2593,-2.261,-2.2619,-2.2653,-2.2653,-2.2653,-2.2653,-2.2653,-2.2653,-2.2544,-2.2333,-2.203,-2.1725,-2.1428,-2.1224,-2.0925,-2.0925,-2.0925,-2.0925,-2.0925,-2.0925,-2.0925,-2.0925,-2.0925,-2.0734,-2.0265,-1.9924,-1.9717,-1.9201,-1.8891,-1.8827,-1.8827,-1.8827,-1.8827,-1.8827,-1.8827,-1.8827,-1.8827,-1.8827,-1.8827,-1.8827,-1.8827,-1.8827,-1.8827,-1.8827,-1.8827,-1.8827,-1.8827,-1.8827,-1.8827,-1.8827,-1.8827,-1.8827,-1.8827,-1.8827,-1.8827,-1.8827,-1.878,-1.8764,-1.874,-1.8676,-1.8676,-1.8684,-1.8692,-1.8653,-1.8541,-1.8332,-1.8182,-1.7833,-1.7368,-1.7102,-1.6684,-1.6216,-1.5965,-1.5966,-1.5853,-1.5538,-1.5379,-1.5401,-1.5061,-1.4734,-1.4518,-1.4309,-1.4108,-1.396,-1.383,-1.3749,-1.3323,-1.3007,-1.2939,-1.2732,-1.2333,-1.2,-1.1742,-1.1478,-1.1198,-1.1016,-1.0857,-1.0813,-1.0768,-1.0612,-1.0437,-2.116,-2.0976,-2.0801,-2.0709,-2.066,-2.1002,-2.1337,-2.1585,-2.1704,-2.1739,-2.173,-2.1739,-2.1936,-2.215,-2.2158,-2.2312,-2.255,-2.2653,-2.2653,-2.2619,-2.2524,-2.261,-2.2409,-2.2165,-2.1903,-2.1709,-2.1404,-2.1089,-2.0925,-2.0925,-2.0925,-2.0925,-2.0925,-2.0925,-2.0901,-2.0917,-2.0885,-2.0694,-2.0154,-1.9924,-1.9662,-1.9161,-1.8931,-1.8827,-1.8827,-1.8827,-1.8827,-1.8827,-1.8827,-1.8827,-1.8827,-1.8827,-1.8827,-1.8827,-1.8827,-1.8827,-1.8827,-1.8827,-1.8827,-1.8827,-1.8827,-1.8827,-1.8827,-1.8827,-1.8827,-1.8735,-1.8827,-1.8827,-1.8827,-1.8827,-1.8735,-1.8735,-1.8827,-1.8827,-1.8827,-1.8835,-1.8743,-1.8703,-1.8601,-1.8378,-1.8229,-1.8049,-1.7674,-1.7113,-1.6692,-1.6102,-1.5712,-1.5618,-1.5459,-1.514,-1.5039,-1.5061,-1.4901,-1.4489,-1.4412,-1.421,-1.4062,-1.3873,-1.371,-1.3574,-1.3284,-1.2983,-1.2893,-1.2569,-1.2105,-1.1887,-1.1699,-1.1336,-1.0958,-1.0676,-1.0519,-1.0498,-1.0482,-1.0402,-1.0293,-2.0654,-2.0564,-2.0382,-2.0292,-2.0326,-2.0549,-2.078,-2.0994,-2.1276,-2.1405,-2.1405,-2.1422,-2.1542,-2.173,-2.1773,-2.1859,-2.203,-2.2021,-2.203,-2.2021,-2.2133,-2.2047,-2.1883,-2.1744,-2.1462,-2.1244,-2.114,-2.0852,-2.0837,-2.0909,-2.0925,-2.0925,-2.0925,-2.0821,-2.0742,-2.0662,-2.0591,-2.0384,-2.0091,-1.9836,-1.9503,-1.9137,-1.8923,-1.8827,-1.8827,-1.8827,-1.8827,-1.8827,-1.8827,-1.8827,-1.8827,-1.8827,-1.8827,-1.8827,-1.8827,-1.8827,-1.8827,-1.8827,-1.8827,-1.8827,-1.8827,-1.8827,-1.8827,-1.8635,-1.8635,-1.8635,-1.8727,-1.8827,-1.8827,-1.8827,-1.8735,-1.8735,-1.8735,-1.8827,-1.8835,-1.8759,-1.8743,-1.8643,-1.8527,-1.8326,-1.8226,-1.8185,-1.7794,-1.7318,-1.6766,-1.6228,-1.5753,-1.5325,-1.5182,-1.4916,-1.4699,-1.4727,-1.4489,-1.4243,-1.4166,-1.3997,-1.3743,-1.3483,-1.3269,-1.3165,-1.3045,-1.2857,-1.2523,-1.224,-1.1872,-1.1562,-1.1332,-1.1042,-1.0653,-1.0471,-1.0362,-1.0325,-1.0393,-1.0331,-1.0247,-2.0564,-2.0292,-2.0292,-2.0292,-2.0292,-2.0317,-2.0326,-2.036,-2.0994,-2.1302,-2.1268,-2.1293,-2.1285,-2.1362,-2.1388,-2.1439,-2.1567,-2.1593,-2.1619,-2.1335,-2.1479,-2.14,-2.1198,-2.0912,-2.0982,-2.0702,-2.0576,-2.0556,-2.071,-2.071,-2.0655,-2.0837,-2.0758,-2.0599,-2.0377,-2.0353,-2.0226,-1.9932,-1.9812,-1.9654,-1.9383,-1.9074,-1.8827,-1.8827,-1.8827,-1.8827,-1.8827,-1.8827,-1.8827,-1.8827,-1.8827,-1.8827,-1.8735,-1.8643,-1.8643,-1.8643,-1.8643,-1.8643,-1.8643,-1.8643,-1.8751,-1.8743,-1.8743,-1.8542,-1.845,-1.855,-1.8651,-1.8643,-1.855,-1.855,-1.855,-1.8465,-1.8465,-1.8558,-1.8558,-1.8566,-1.8558,-1.8365,-1.8172,-1.7978,-1.7762,-1.7742,-1.7589,-1.7014,-1.6493,-1.6195,-1.577,-1.517,-1.4823,-1.4589,-1.4401,-1.428,-1.4103,-1.394,-1.3737,-1.3568,-1.3313,-1.3137,-1.2784,-1.2693,-1.254,-1.2369,-1.2112,-1.1729,-1.1353,-1.1214,-1.101,-1.0696,-1.058,-1.0509,-1.0424,-1.0326,-1.0206,-1.0249,-1.0174,-2.0382,-2.0292,-2.0292,-2.0292,-2.0292,-2.0292,-2.0292,-2.03,-2.0463,-2.0591,-2.0574,-2.06,-2.0746,-2.0985,-2.1002,-2.1097,-2.1302,-2.1147,-2.1292,-2.1162,-2.105,-2.087,-2.0812,-2.0561,-2.0516,-2.0476,-2.0337,-2.0197,-2.0202,-2.0194,-2.0138,-2.0146,-2.0186,-2.013,-2.0011,-1.9995,-1.9828,-1.9503,-1.9471,-1.9447,-1.9296,-1.9042,-1.8827,-1.8827,-1.8827,-1.8735,-1.8735,-1.8735,-1.8827,-1.8827,-1.8827,-1.8743,-1.8574,-1.8373,-1.8272,-1.8272,-1.8272,-1.8272,-1.8265,-1.8272,-1.8381,-1.8497,-1.8497,-1.828,-1.8272,-1.8465,-1.8473,-1.8373,-1.8272,-1.8272,-1.8272,-1.8187,-1.8187,-1.8187,-1.8187,-1.828,-1.8272,-1.7994,-1.7714,-1.7527,-1.734,-1.721,-1.7073,-1.6664,-1.6154,-1.5737,-1.5378,-1.4904,-1.4466,-1.416,-1.4002,-1.3868,-1.3741,-1.351,-1.3299,-1.312,-1.2893,-1.2582,-1.2301,-1.2123,-1.2037,-1.1768,-1.1505,-1.116,-1.0804,-1.0814,-1.0733,-1.0539,-1.0448,-1.0381,-1.0294,-1.0212,-1.0139,-1.0053,-1.0067,-2.0292,-2.0292,-2.0292,-2.0292,-2.0292,-2.0201,-2.011,-2.011,-2.0027,-2.0027,-2.0027,-2.0218,-2.042,-2.0617,-2.0617,-2.061,-2.0746,-2.0712,-2.0483,-2.0431,-2.042,-2.0235,-2.0198,-2.0083,-2.0044,-1.9902,-2.0022,-1.9997,-1.9812,-1.9876,-1.99,-1.9836,-1.9836,-1.9773,-1.9685,-1.9622,-1.9479,-1.9153,-1.9153,-1.9153,-1.9153,-1.8947,-1.8827,-1.8827,-1.8827,-1.8743,-1.8658,-1.8658,-1.8558,-1.855,-1.8458,-1.8458,-1.828,-1.8179,-1.8087,-1.7994,-1.7908,-1.79,-1.78,-1.7807,-1.7923,-1.8132,-1.8024,-1.7707,-1.7412,-1.7512,-1.7916,-1.7815,-1.7908,-1.8001,-1.7714,-1.7621,-1.7621,-1.7714,-1.7628,-1.7535,-1.7535,-1.7441,-1.7246,-1.7059,-1.677,-1.6574,-1.6351,-1.6163,-1.5563,-1.507,-1.4735,-1.4622,-1.4184,-1.3818,-1.3688,-1.3519,-1.3315,-1.3201,-1.3028,-1.2715,-1.2511,-1.2186,-1.1869,-1.1543,-1.1451,-1.117,-1.0895,-1.0727,-1.0554,-1.0554,-1.0381,-1.0313,-1.0217,-1.0212,-1.0125,-1.0038,-0.9984,-0.9962,-1.0,-2.0201,-2.0292,-2.0201,-2.0201,-2.0201,-2.0019,-1.9845,-1.9837,-1.9679,-1.9587,-1.9679,-2.0027,-2.0209,-2.0201,-2.0201,-2.0019,-1.9987,-2.013,-1.987,-1.9662,-1.967,-1.9567,-1.9358,-1.9192,-1.9293,-1.9399,-1.9598,-1.9686,-1.9598,-1.9598,-1.9598,-1.9717,-1.9677,-1.9582,-1.9391,-1.928,-1.9153,-1.897,-1.8907,-1.8783,-1.8843,-1.8827,-1.8735,-1.8735,-1.8735,-1.8651,-1.8481,-1.8388,-1.8288,-1.8094,-1.7994,-1.79,-1.7807,-1.7714,-1.7621,-1.7535,-1.7441,-1.734,-1.7239,-1.7239,-1.7448,-1.7557,-1.734,-1.7037,-1.6655,-1.6756,-1.7059,-1.7254,-1.7347,-1.7441,-1.7145,-1.7052,-1.7052,-1.7052,-1.6965,-1.6878,-1.6878,-1.6878,-1.6777,-1.6581,-1.6298,-1.6008,-1.5724,-1.5439,-1.4956,-1.4465,-1.4184,-1.4004,-1.3782,-1.3498,-1.3254,-1.304,-1.2856,-1.2755,-1.2592,-1.2361,-1.2009,-1.1893,-1.1572,-1.1154,-1.086,-1.0758,-1.0656,-1.0559,-1.0386,-1.0313,-1.0251,-1.0192,-1.0081,-1.0105,-1.0214,-1.0187,-1.0098,-1.0069,-0.9931,-1.9845,-2.0027,-2.0019,-2.0019,-1.9928,-1.9928,-1.9845,-1.9671,-1.9579,-1.9587,-1.9587,-1.9679,-1.9762,-1.9762,-1.9762,-1.9671,-1.9662,-1.9662,-1.9471,-1.9296,-1.9288,-1.9104,-1.9012,-1.892,-1.8867,-1.8986,-1.909,-1.9034,-1.9217,-1.9145,-1.9058,-1.9098,-1.9082,-1.9034,-1.9002,-1.8939,-1.8939,-1.8735,-1.8743,-1.8743,-1.8651,-1.8651,-1.8651,-1.8651,-1.8566,-1.8381,-1.8195,-1.8009,-1.7822,-1.7721,-1.7441,-1.7254,-1.716,-1.7059,-1.6965,-1.6864,-1.6777,-1.6777,-1.6676,-1.6581,-1.6791,-1.648,-1.6271,-1.6183,-1.5994,-1.5906,-1.6109,-1.6109,-1.6298,-1.6581,-1.6487,-1.6386,-1.6386,-1.6298,-1.6211,-1.6298,-1.6298,-1.64,-1.64,-1.6109,-1.5825,-1.5445,-1.5064,-1.4777,-1.4484,-1.4004,-1.3925,-1.3738,-1.3335,-1.3136,-1.2834,-1.2662,-1.2384,-1.2261,-1.2124,-1.1902,-1.1608,-1.1405,-1.1263,-1.094,-1.0701,-1.045,-1.0343,-1.0431,-1.0299,-1.0187,-1.0129,-1.0159,-1.0182,-1.0154,-1.0395,-1.0475,-1.0264,-0.9998,-0.9855]}]]